[[{"header":{"parameterUnit":"m.s-1","parameterCategory":1,"la1":30.6,"la2":28.766,"lo1":-90.7593,"lo2":-88.6598,"dx":0.0162,"dy":0.0183,"nx":116,"ny":114,"refTime":"2022-11-19T18:00:00:Z","depth":0,"parameterNumber":2,"parameterNumberName":"U-component_of_WINDS"},"data":[0.0,0.0,0.0,0.0,0.0,0.0,0.0,0.0,0.0,0.0,0.0,0.0,0.0,0.0,0.0,0.0,0.0,0.0,0.0,0.0,0.0,0.0,0.0,0.0,0.0,0.0,0.0,0.0,0.0,0.0,0.0,0.0,0.0,0.0,0.0,0.0,0.0,0.0,0.0,0.0,0.0,0.0,0.0,0.0,0.0,0.0,0.0,0.0,0.0,0.0,0.0,0.0,0.0,0.0,0.0,0.0,0.0,0.0,0.0,0.0,0.0,0.0,0.0,0.0,0.0,0.0,0.0,0.0,0.0,0.0,0.0,0.0,0.0,0.0,0.0,0.0,0.0,0.0,0.0,0.0,0.0,0.0,0.0,0.0,0.0,0.0,0.0,0.0,0.0,0.0,0.0,0.0,0.0,0.0,0.0,0.0,0.0,0.0,0.0,0.0,0.0,0.0,0.0,0.0,0.0,0.0,0.0,0.0,0.0,0.0,0.0,0.0,0.0,0.0,0.0,0.0,0.0,0.0,0.0,0.0,0.0,0.0,0.0,0.0,0.0,0.0,0.0,0.0,0.0,0.0,0.0,0.0,0.0,0.0,0.0,0.0,0.0,0.0,0.0,0.0,0.0,0.0,0.0,0.0,0.0,0.0,0.0,0.0,0.0,0.0,0.0,0.0,0.0,0.0,0.0,0.0,0.0,0.0,0.0,0.0,0.0,0.0,0.0,0.0,0.0,0.0,0.0,0.0,0.0,0.0,0.0,0.0,0.0,0.0,0.0,0.0,0.0,0.0,0.0,0.0,0.0,0.0,0.0,0.0,0.0,0.0,0.0,0.0,0.0,0.0,0.0,0.0,0.0,0.0,0.0,0.0,0.0,0.0,0.0,0.0,0.0,0.0,0.0,0.0,0.0,0.0,0.0,0.0,0.0,0.0,0.0,0.0,0.0,0.0,0.0,0.0,0.0,0.0,0.0,0.0,0.0,0.0,0.0,0.0,0.0,0.0,0.0,0.0,0.0,0.0,0.0,0.0,0.0,0.0,0.0,0.0,0.0,0.0,0.0,0.0,0.0,0.0,0.0,0.0,0.0,0.0,0.0,0.0,0.0,0.0,0.0,0.0,0.0,0.0,0.0,0.0,0.0,0.0,0.0,0.0,0.0,0.0,0.0,0.0,0.0,0.0,0.0,0.0,0.0,0.0,0.0,0.0,0.0,0.0,0.0,0.0,0.0,0.0,0.0,0.0,0.0,0.0,0.0,0.0,0.0,0.0,0.0,0.0,0.0,0.0,0.0,0.0,0.0,0.0,0.0,0.0,0.0,0.0,0.0,0.0,0.0,0.0,0.0,0.0,0.0,0.0,0.0,0.0,0.0,0.0,0.0,0.0,0.0,0.0,0.0,0.0,0.0,0.0,0.0,0.0,0.0,0.0,0.0,0.0,0.0,0.0,0.0,0.0,0.0,0.0,0.0,0.0,0.0,0.0,0.0,0.0,0.0,0.0,0.0,0.0,0.0,0.0,0.0,0.0,0.0,0.0,0.0,0.0,0.0,0.0,0.0,0.0,0.0,0.0,0.0,0.0,0.0,0.0,0.0,0.0,0.0,0.0,0.0,0.0,0.0,0.0,0.0,0.0,0.0,0.0,0.0,0.0,0.0,0.0,0.0,0.0,0.0,0.0,0.0,0.0,0.0,0.0,0.0,0.0,0.0,0.0,0.0,0.0,0.0,0.0,0.0,0.0,0.0,0.0,0.0,0.0,0.0,0.0,0.0,0.0,0.0,0.0,0.0,0.0,0.0,0.0,0.0,0.0,0.0,0.0,0.0,0.0,0.0,0.0,0.0,0.0,0.0,0.0,0.0,0.0,0.0,0.0,0.0,0.0,0.0,0.0,0.0,0.0,0.0,0.0,0.0,0.0,0.0,0.0,0.0,0.0,0.0,0.0,0.0,0.0,0.0,0.0,0.0,0.0,0.0,0.0,0.0,0.0,0.0,0.0,0.0,0.0,0.0,0.0,0.0,0.0,0.0,0.0,0.0,0.0,0.0,0.0,0.0,0.0,0.0,0.0,0.0,0.0,0.0,0.0,0.0,0.0,0.0,0.0,0.0,0.0,0.0,0.0,0.0,0.0,0.0,0.0,0.0,0.0,0.0,0.0,0.0,0.0,0.0,0.0,0.0,0.0,0.0,0.0,0.0,0.0,0.0,0.0,0.0,0.0,0.0,0.0,0.0,0.0,0.0,0.0,0.0,0.0,0.0,0.0,0.0,0.0,0.0,0.0,0.0,0.0,0.0,0.0,0.0,0.0,0.0,0.0,0.0,0.0,0.0,0.0,0.0,0.0,0.0,0.0,0.0,0.0,0.0,0.0,0.0,0.0,0.0,0.0,0.0,0.0,0.0,0.0,0.0,0.0,0.0,0.0,0.0,0.0,0.0,0.0,0.0,0.0,0.0,0.0,0.0,0.0,0.0,0.0,0.0,0.0,0.0,0.0,0.0,0.0,0.0,0.0,0.0,0.0,0.0,0.0,0.0,0.0,0.0,0.0,0.0,0.0,0.0,0.0,0.0,0.0,0.0,0.0,0.0,0.0,0.0,0.0,0.0,0.0,0.0,0.0,0.0,0.0,0.0,0.0,0.0,0.0,0.0,0.0,0.0,0.0,0.0,0.0,0.0,0.0,0.0,0.0,0.0,0.0,0.0,0.0,0.0,0.0,0.0,0.0,0.0,0.0,0.0,0.0,0.0,0.0,0.0,0.0,0.0,0.0,0.0,0.0,0.0,0.0,0.0,0.0,0.0,0.0,0.0,0.0,0.0,0.0,0.0,0.0,0.0,0.0,0.0,0.0,0.0,0.0,0.0,0.0,0.0,0.0,0.0,0.0,0.0,0.0,0.0,0.0,0.0,0.0,0.0,0.0,0.0,0.0,0.0,0.0,0.0,0.0,0.0,0.0,0.0,0.0,0.0,0.0,0.0,0.0,0.0,0.0,0.0,0.0,0.0,0.0,0.0,0.0,0.0,0.0,0.0,0.0,0.0,0.0,0.0,0.0,0.0,0.0,0.0,0.0,0.0,0.0,0.0,0.0,0.0,0.0,0.0,0.0,0.0,0.0,0.0,0.0,0.0,0.0,0.0,0.0,0.0,0.0,0.0,0.0,0.0,0.0,0.0,0.0,0.0,0.0,0.0,0.0,0.0,0.0,0.0,0.0,0.0,0.0,0.0,0.0,0.0,0.0,0.0,0.0,0.0,0.0,0.0,0.0,0.0,0.0,0.0,0.0,0.0,0.0,0.0,0.0,0.0,0.0,0.0,0.0,0.0,0.0,0.0,0.0,0.0,0.0,0.0,0.0,0.0,0.0,0.0,0.0,0.0,0.0,0.0,0.0,0.0,0.0,0.0,0.0,0.0,0.0,0.0,0.0,0.0,0.0,0.0,0.0,0.0,0.0,0.0,0.0,0.0,0.0,0.0,0.0,0.0,0.0,0.0,0.0,0.0,0.0,0.0,0.0,0.0,0.0,0.0,0.0,0.0,0.0,0.0,0.0,0.0,0.0,0.0,0.0,0.0,0.0,0.0,0.0,0.0,0.0,0.0,0.0,0.0,0.0,0.0,0.0,0.0,0.0,0.0,0.0,0.0,0.0,0.0,0.0,0.0,0.0,0.0,0.0,0.0,0.0,0.0,0.0,0.0,0.0,0.0,0.0,0.0,0.0,0.0,0.0,0.0,0.0,0.0,0.0,0.0,0.0,0.0,0.0,0.0,0.0,0.0,0.0,0.0,0.0,0.0,0.0,0.0,0.0,0.0,0.0,0.0,0.0,0.0,0.0,0.0,0.0,0.0,0.0,0.0,0.0,0.0,0.0,0.0,0.0,0.0,0.0,0.0,0.0,0.0,0.0,0.0,0.0,0.0,0.0,0.0,0.0,0.0,0.0,0.0,0.0,0.0,0.0,0.0,0.0,0.0,0.0,0.0,0.0,0.0,0.0,0.0,0.0,0.0,0.0,0.0,0.0,0.0,0.0,0.0,0.0,0.0,0.0,0.0,0.0,0.0,0.0,0.0,0.0,0.0,0.0,0.0,0.0,0.0,0.0,0.0,0.0,0.0,0.0,0.0,0.0,0.0,0.0,0.0,0.0,0.0,0.0,0.0,0.0,0.0,0.0,0.0,0.0,0.0,0.0,0.0,0.0,0.0,0.0,0.0,0.0,0.0,0.0,0.0,0.0,0.0,0.0,0.0,0.0,0.0,0.0,0.0,0.0,0.0,0.0,0.0,0.0,0.0,0.0,0.0,0.0,0.0,0.0,0.0,0.0,0.0,0.0,0.0,0.0,0.0,0.0,0.0,0.0,0.0,0.0,0.0,0.0,0.0,0.0,0.0,0.0,0.0,0.0,0.0,0.0,0.0,0.0,0.0,0.0,0.0,0.0,0.0,0.0,0.0,0.0,0.0,0.0,0.0,0.0,0.0,0.0,0.0,0.0,0.0,0.0,0.0,0.0,0.0,0.0,0.0,0.0,0.0,0.0,0.0,0.0,0.0,0.0,0.0,0.0,0.0,0.0,0.0,0.0,0.0,0.0,0.0,0.0,0.0,0.0,0.0,0.0,0.0,0.0,0.0,0.0,0.0,0.0,0.0,0.0,0.0,0.0,0.0,0.0,0.0,0.0,0.0,0.0,0.0,0.0,0.0,0.0,0.0,0.0,0.0,0.0,0.0,0.0,0.0,0.0,0.0,0.0,0.0,0.0,0.0,0.0,0.0,0.0,0.0,0.0,0.0,0.0,0.0,0.0,0.0,0.0,0.0,0.0,0.0,0.0,0.0,0.0,0.0,0.0,0.0,0.0,0.0,0.0,0.0,0.0,0.0,0.0,0.0,0.0,0.0,0.0,0.0,0.0,0.0,0.0,0.0,0.0,0.0,0.0,0.0,0.0,0.0,0.0,0.0,0.0,0.0,0.0,0.0,0.0,0.0,0.0,0.0,0.0,0.0,0.0,0.0,0.0,0.0,0.0,0.0,0.0,0.0,0.0,0.0,0.0,0.0,0.0,0.0,0.0,0.0,0.0,0.0,0.0,0.0,0.0,0.0,0.0,0.0,0.0,0.0,0.0,0.0,0.0,0.0,0.0,0.0,0.0,0.0,0.0,0.0,0.0,0.0,0.0,0.0,0.0,0.0,0.0,0.0,0.0,0.0,0.0,0.0,0.0,0.0,0.0,0.0,0.0,0.0,0.0,0.0,0.0,0.0,0.0,0.0,0.0,0.0,0.0,0.0,0.0,0.0,0.0,0.0,0.0,0.0,0.0,0.0,0.0,0.0,0.0,0.0,0.0,0.0,0.0,0.0,0.0,0.0,0.0,0.0,0.0,0.0,0.0,0.0,0.0,0.0,0.0,0.0,0.0,0.0,0.0,0.0,0.0,0.0,0.0,0.0,0.0,0.0,0.0,0.0,0.0,0.0,0.0,0.0,0.0,0.0,0.0,0.0,0.0,0.0,0.0,0.0,0.0,0.0,0.0,0.0,0.0,0.0,0.0,0.0,0.0,0.0,0.0,0.0,0.0,0.0,0.0,0.0,0.0,0.0,0.0,0.0,0.0,0.0,0.0,0.0,0.0,0.0,0.0,0.0,0.0,0.0,0.0,0.0,0.0,0.0,0.0,0.0,0.0,0.0,0.0,0.0,0.0,0.0,0.0,0.0,0.0,0.0,0.0,0.0,0.0,0.0,0.0,0.0,0.0,0.0,0.0,0.0,0.0,0.0,0.0,0.0,0.0,0.0,0.0,0.0,0.0,0.0,0.0,0.0,0.0,0.0,0.0,0.0,0.0,0.0,0.0,0.0,0.0,0.0,0.0,0.0,0.0,0.0,0.0,0.0,0.0,0.0,0.0,0.0,0.0,0.0,0.0,0.0,0.0,0.0,0.0,0.0,0.0,0.0,0.0,0.0,0.0,0.0,0.0,0.0,0.0,0.0,0.0,0.0,0.0,0.0,0.0,0.0,0.0,0.0,0.0,0.0,0.0,0.0,0.0,0.0,0.0,0.0,0.0,0.0,0.0,0.0,0.0,0.0,0.0,0.0,0.0,0.0,0.0,0.0,0.0,0.0,0.0,3.9078,3.3239,0.0,0.0,0.0,0.0,0.0,0.0,0.0,0.0,0.0,0.0,0.0,0.0,0.0,0.0,0.0,0.0,0.0,0.0,0.0,0.0,0.0,0.0,0.0,1.851,1.8444,1.8785,1.8676,0.0,0.0,0.0,0.0,0.0,0.0,0.0,0.0,0.0,1.8565,2.0171,2.1451,2.4199,2.8225,2.6404,2.4023,2.1221,0.0,0.0,0.0,0.0,0.0,0.0,0.0,0.0,0.0,0.0,0.0,0.0,0.0,0.0,0.0,0.0,0.0,0.0,0.0,0.0,0.0,0.0,0.0,0.0,0.0,0.0,0.0,0.0,0.0,0.0,0.0,0.0,0.0,0.0,0.0,0.0,0.0,0.0,0.0,0.0,0.0,0.0,0.0,0.0,0.0,0.0,0.0,0.0,0.0,0.0,0.0,0.0,0.0,0.0,0.0,0.0,0.0,0.0,0.0,0.0,0.0,0.0,0.0,0.0,0.0,0.0,0.0,0.0,0.0,0.0,4.3148,3.9669,0.0,0.0,0.0,0.0,0.0,0.0,0.0,0.0,0.0,0.0,0.0,0.0,0.0,0.0,0.0,0.0,0.0,0.0,0.0,0.0,0.0,1.9332,1.9673,1.9712,1.9907,2.0327,2.0137,1.9964,1.9874,1.9663,0.0,0.0,0.0,0.0,1.8344,1.9437,2.1422,2.4323,2.7256,3.0924,3.5216,3.6079,3.3745,2.869,2.5134,0.0,0.0,0.0,0.0,0.0,0.0,0.0,0.0,0.0,0.0,0.0,0.0,0.0,0.0,0.0,0.0,0.0,0.0,0.0,0.0,0.0,0.0,0.0,0.0,0.0,0.0,0.0,0.0,0.0,0.0,0.0,0.0,0.0,0.0,0.0,0.0,0.0,0.0,0.0,0.0,0.0,0.0,0.0,0.0,0.0,0.0,0.0,0.0,0.0,0.0,0.0,0.0,0.0,0.0,0.0,0.0,0.0,0.0,0.0,0.0,0.0,0.0,0.0,4.5307,4.627,4.6888,4.741,4.9931,5.3527,4.6992,4.6905,5.0736,4.1544,0.0,0.0,0.0,0.0,0.0,0.0,0.0,0.0,0.0,0.0,0.0,0.0,0.0,0.0,0.0,0.0,0.0,0.0,0.0,1.9867,2.16,2.0843,2.1078,2.3238,2.1317,2.027,2.0937,1.996,0.0,0.0,0.0,0.0,1.9661,2.0974,2.3224,2.6411,3.4902,4.0168,4.2369,4.3185,4.2613,4.063,3.4561,3.059,2.8285,0.0,0.0,0.0,0.0,0.0,0.0,0.0,0.0,0.0,0.0,0.0,0.0,0.0,0.0,0.0,0.0,0.0,0.0,0.0,0.0,0.0,0.0,0.0,0.0,0.0,0.0,0.0,0.0,0.0,0.0,0.0,0.0,0.0,0.0,0.0,0.0,0.0,0.0,0.0,0.0,0.0,3.9165,3.9915,0.0,0.0,0.0,0.0,0.0,0.0,0.0,0.0,0.0,0.0,0.0,0.0,0.0,4.2935,4.4079,4.9059,5.13,5.0748,5.5206,5.6982,5.6288,5.6493,5.689,5.7361,5.6318,0.0,5.2572,5.0446,0.0,0.0,0.0,0.0,0.0,0.0,0.0,0.0,0.0,0.0,0.0,0.0,0.0,0.0,0.0,0.0,0.0,0.0,0.0,0.0,0.0,2.4331,2.5422,2.8002,2.7785,2.6647,2.4543,2.4334,0.0,0.0,0.0,2.0653,2.0632,2.3995,2.8983,3.5507,4.1311,4.4927,4.6468,4.6783,4.666,4.6031,4.3162,3.8814,3.3436,3.0811,0.0,0.0,0.0,0.0,0.0,0.0,0.0,0.0,0.0,0.0,0.0,0.0,0.0,0.0,0.0,0.0,0.0,0.0,0.0,0.0,0.0,0.0,0.0,0.0,0.0,0.0,0.0,0.0,0.0,0.0,0.0,0.0,0.0,0.0,0.0,0.0,0.0,0.0,0.0,3.5809,3.8449,4.0009,3.8137,3.5811,0.0,0.0,0.0,0.0,0.0,0.0,0.0,0.0,0.0,4.6693,4.7442,4.8887,5.1245,5.4074,5.5535,5.5756,5.8169,5.9201,5.8907,5.9185,5.9271,5.9219,5.9476,5.858,5.6762,5.3689,5.0124,4.6369,0.0,0.0,0.0,0.0,4.2721,4.3376,0.0,0.0,0.0,0.0,0.0,0.0,0.0,0.0,0.0,0.0,0.0,0.0,2.6673,2.8117,2.9964,3.2586,3.3452,3.245,2.9168,2.8543,2.6362,0.0,2.1826,2.2053,2.256,2.8177,3.5063,4.3145,4.5665,4.7582,4.8928,4.8893,4.8845,4.8858,4.8829,4.5157,3.8821,3.6346,3.2898,2.8895,0.0,0.0,0.0,0.0,0.0,0.0,0.0,0.0,0.0,0.0,0.0,0.0,0.0,0.0,0.0,0.0,0.0,0.0,0.0,0.0,0.0,0.0,0.0,0.0,0.0,0.0,0.0,0.0,0.0,0.0,0.0,0.0,0.0,0.0,0.0,0.0,0.0,3.7945,4.0147,4.1574,4.1313,3.9687,0.0,0.0,0.0,0.0,0.0,0.0,4.5766,4.6709,4.8796,5.234,5.2831,5.4313,5.7025,5.7523,5.8134,5.8835,5.9434,5.9802,5.9937,6.0228,6.0362,6.0381,6.0498,6.0495,6.0084,5.6507,5.4504,5.3425,5.0388,4.8376,4.7362,4.9306,5.0031,5.0686,0.0,0.0,0.0,0.0,0.0,0.0,0.0,0.0,0.0,0.0,0.0,2.6328,2.9694,3.1482,3.3524,3.6187,3.559,3.4856,3.453,3.0707,2.801,2.6965,2.4512,2.4153,2.6182,3.3792,4.0252,4.5419,4.6925,4.8381,4.9827,4.9827,4.9827,4.9807,4.9697,4.8192,4.5523,4.2448,3.9757,3.6835,2.9386,0.0,0.0,0.0,0.0,0.0,0.0,0.0,0.0,0.0,0.0,0.0,0.0,0.0,0.0,0.0,0.0,0.0,0.0,0.0,0.0,0.0,0.0,0.0,0.0,0.0,0.0,0.0,0.0,0.0,0.0,0.0,0.0,0.0,0.0,0.0,0.0,0.0,0.0,4.8501,4.8492,0.0,0.0,0.0,0.0,4.4272,4.5781,4.8199,5.1762,5.3268,5.5369,5.8369,5.8509,5.8575,5.8774,5.919,5.9418,5.9466,6.0593,6.1086,6.1134,6.1153,6.112,6.1086,6.0433,6.0501,6.1134,6.095,5.8926,5.5945,5.6209,5.4494,5.2237,5.5219,5.6357,5.6805,0.0,0.0,0.0,1.7742,1.9046,2.019,2.005,2.0931,2.2083,2.3391,2.5438,2.8087,3.1579,3.4955,3.7919,4.0335,4.0906,4.0365,3.8578,3.4313,3.1799,3.167,2.8481,3.0043,3.7239,4.0193,4.4463,5.0153,4.9945,5.0286,5.1176,5.0764,5.036,4.9979,5.0342,4.9759,4.8465,4.6777,4.4026,4.0509,3.7299,3.1822,0.0,0.0,0.0,0.0,0.0,0.0,0.0,0.0,0.0,0.0,0.0,0.0,0.0,0.0,0.0,0.0,0.0,0.0,0.0,0.0,0.0,0.0,0.0,0.0,0.0,0.0,0.0,0.0,0.0,0.0,0.0,0.0,0.0,0.0,0.0,0.0,0.0,4.7049,4.9025,0.0,4.6719,4.8546,5.0004,5.0286,5.297,5.5189,5.6514,5.7508,5.8535,5.9562,6.0059,6.0556,6.1007,6.07,6.0782,6.1235,6.1158,6.1152,6.1152,6.1152,6.1152,6.1139,6.1119,6.1113,6.1166,6.1714,6.14,6.0574,6.072,6.0284,5.9633,6.0487,6.0937,6.1288,0.0,0.0,0.0,1.7606,1.8782,1.9842,2.0023,2.0938,2.2513,2.4992,2.7471,3.0624,3.498,3.8615,4.1589,4.3575,4.4738,4.4563,4.2645,3.8363,3.5866,3.5766,3.3254,3.559,4.365,4.4405,4.7162,5.2138,5.0921,5.0643,5.1262,5.0814,5.0369,5.0018,5.0626,5.0661,5.0212,4.9565,4.7541,4.4628,4.2614,3.7661,3.1217,0.0,0.0,0.0,0.0,0.0,0.0,0.0,0.0,0.0,0.0,0.0,0.0,0.0,0.0,0.0,0.0,0.0,0.0,0.0,0.0,0.0,0.0,0.0,0.0,0.0,0.0,0.0,0.0,0.0,0.0,0.0,0.0,0.0,0.0,4.4925,4.7935,4.704,5.0602,5.206,4.9359,5.2837,5.5256,5.5256,5.7972,5.9628,5.9628,6.0324,6.0721,6.0721,6.0986,6.1318,6.1836,6.1351,6.1351,6.1836,6.1604,6.145,6.145,6.145,6.145,6.1471,6.1496,6.1355,6.1127,6.1669,6.2169,6.2562,6.2697,6.2928,6.3136,6.287,6.2928,6.3152,0.0,0.0,1.7452,1.7958,1.8821,1.9642,2.0212,2.088,2.3137,2.8119,3.0528,3.3985,3.9782,4.2438,4.4355,4.5648,4.6572,4.6984,4.6724,4.2647,3.9891,3.9075,3.8681,4.0522,4.4785,4.6273,4.8311,5.1054,4.9722,4.942,5.0052,5.0052,5.0002,5.002,5.0636,5.0887,5.0897,5.0886,5.046,4.9376,4.4869,4.2392,4.0594,0.0,0.0,0.0,0.0,0.0,0.0,0.0,0.0,0.0,0.0,0.0,0.0,0.0,0.0,0.0,0.0,0.0,0.0,0.0,0.0,0.0,0.0,0.0,0.0,0.0,0.0,0.0,0.0,0.0,0.0,0.0,0.0,0.0,4.5037,4.7292,4.9123,4.9292,5.3699,5.5885,5.3746,5.6812,5.8933,5.8966,6.0357,6.1185,6.1185,6.1869,6.2233,6.2233,6.155,6.1185,6.1185,6.1152,6.1152,6.1152,6.1836,6.2167,6.2167,6.2167,6.2167,6.2101,6.1417,6.1119,6.1119,6.1119,6.1334,6.1729,6.2116,6.2293,6.2293,6.2293,6.2274,6.2375,1.8255,1.8606,1.891,1.8792,1.9619,2.0334,2.0475,2.1401,2.395,2.9115,3.196,3.5339,4.0181,4.4095,4.607,4.5224,4.6178,4.68,4.6767,4.1527,3.8875,3.9963,4.3412,4.6548,4.914,4.9222,5.0225,5.2319,5.1157,5.0884,5.1432,5.0992,5.0533,5.0105,5.0692,5.0984,5.1013,5.0484,5.0685,5.1224,4.9398,4.6335,4.2671,0.0,0.0,0.0,0.0,0.0,0.0,0.0,0.0,0.0,0.0,0.0,0.0,0.0,0.0,0.0,0.0,0.0,0.0,0.0,0.0,0.0,0.0,0.0,0.0,0.0,0.0,0.0,0.0,0.0,0.0,0.0,4.6318,4.8908,4.8729,5.2073,5.4339,5.3879,5.5984,5.7243,5.6647,5.8469,5.9926,6.0456,6.1848,6.2697,6.2697,6.2896,6.2996,6.2996,6.2797,6.2697,6.2697,6.2167,6.1902,6.1902,6.1348,6.1099,6.1099,6.1099,6.1099,6.112,6.1102,6.1119,6.1119,6.1119,6.1181,6.1293,6.1709,6.2037,6.2254,6.1957,6.187,6.1944,1.8894,1.9135,1.9381,1.9535,2.0054,2.0552,2.0861,2.1736,2.4497,3.0361,3.3111,3.6484,4.1565,4.5152,4.6639,4.5323,4.6479,4.7019,4.6454,4.282,4.1546,4.3509,4.6405,4.8964,5.0968,5.0704,5.121,5.2557,5.1927,5.1777,5.2081,5.1729,5.1186,5.0575,5.0884,5.1078,5.1078,5.0937,5.1142,5.1608,5.1787,4.974,4.6422,4.5005,4.2668,3.9974,3.8227,3.6435,3.4906,3.5106,0.0,0.0,0.0,0.0,0.0,0.0,0.0,0.0,0.0,0.0,0.0,0.0,0.0,0.0,0.0,0.0,0.0,0.0,0.0,0.0,0.0,0.0,0.0,0.0,5.0561,5.2917,5.3728,5.5412,5.6682,5.6959,5.827,5.9164,5.9164,6.0523,6.1417,6.155,6.2929,6.3493,6.2863,6.3128,6.3161,6.283,6.2425,6.2217,6.2217,6.2085,6.2018,6.2018,6.1877,6.1789,6.1789,6.1789,6.1789,6.1789,6.195,6.2013,6.2013,6.2013,6.2013,6.1968,0.0,0.0,0.0,0.0,6.1624,6.1932,2.0086,1.9694,1.9479,2.019,2.0327,2.0536,2.1188,2.1989,2.4955,3.1671,3.4011,3.735,4.334,4.5762,4.6498,4.5388,4.7077,4.7597,4.6074,4.5555,4.6083,4.7911,4.8252,4.9289,5.1283,5.1413,5.1737,5.2333,5.2495,5.2527,5.243,5.243,5.2074,5.1432,5.1295,5.1239,5.1265,5.1685,5.1602,5.1217,5.2379,5.2053,5.0575,4.75,4.6283,4.577,4.2056,4.0097,3.9318,3.9005,0.0,0.0,0.0,0.0,0.0,0.0,0.0,0.0,0.0,0.0,0.0,0.0,0.0,0.0,0.0,0.0,0.0,0.0,0.0,0.0,0.0,0.0,0.0,0.0,5.4859,5.7278,5.8912,5.7879,5.7443,5.8846,6.0258,6.1152,6.1218,6.2477,6.3029,6.2366,6.3603,6.3747,6.2356,6.2799,0.0,0.0,0.0,6.0882,6.0969,6.1628,6.1958,6.1979,6.2833,6.3251,6.3251,6.3251,6.3251,6.3251,6.3294,6.3294,6.3294,6.3294,6.3294,6.3161,6.1848,6.1351,6.1351,6.1351,6.1748,6.23,2.0294,2.0568,2.0906,2.1051,2.1091,2.1156,2.1293,2.2418,2.5733,3.2554,3.454,3.7715,4.4018,4.6247,4.6237,4.3568,4.6753,4.8232,4.6574,4.754,4.8138,4.8026,4.9645,5.1005,5.1977,5.2592,5.2961,5.3091,5.4224,5.4503,5.3984,5.3984,5.3596,5.2883,5.2259,5.202,5.2007,5.0961,5.1053,5.1896,5.0993,5.0749,5.089,5.0809,5.0056,4.9083,4.8765,4.6907,4.4803,4.6477,4.3881,4.0036,4.0422,3.8277,0.0,0.0,0.0,0.0,0.0,0.0,0.0,0.0,0.0,0.0,0.0,0.0,0.0,0.0,0.0,0.0,0.0,0.0,0.0,5.2952,5.6145,5.8959,6.0469,6.0382,6.0084,5.9827,6.0556,6.1318,6.1935,6.2764,6.3227,6.3095,6.3683,6.3705,6.2825,6.2157,6.2125,6.2759,6.2024,6.1989,6.2799,6.2931,6.303,6.303,6.299,0.0,6.299,6.299,6.299,6.299,6.3207,6.3294,6.3294,6.3294,6.3294,6.3261,6.2996,6.2863,6.2863,6.2863,6.2962,6.3095,2.0809,2.1051,2.1293,2.1293,2.1293,2.1293,2.1293,2.2248,2.5145,3.12,3.3267,3.6087,4.1177,4.3294,4.3429,4.1199,4.3986,4.6094,4.6709,4.7843,4.8817,4.958,5.094,5.2041,5.2754,5.3447,5.4191,5.4924,5.5604,5.5798,5.5442,5.5442,5.5053,5.4288,5.322,5.2771,5.2726,5.1663,5.1388,5.1695,5.1661,5.138,5.1032,5.1382,5.1035,5.0454,5.0863,4.9729,4.8255,4.9528,4.7886,4.5302,4.5371,4.349,4.0454,0.0,0.0,0.0,0.0,0.0,0.0,0.0,0.0,0.0,0.0,0.0,0.0,0.0,0.0,4.6944,4.9177,0.0,5.4725,5.6892,5.88,6.0523,6.198,6.2179,6.2047,6.1703,6.2312,6.2896,6.3261,6.3935,6.4067,6.336,6.3847,6.3716,6.2604,6.2451,6.2627,6.3099,6.2606,6.2573,6.3099,6.3484,6.365,6.365,6.3991,6.4156,6.4134,6.453,6.452,6.4189,6.5083,6.5227,6.4929,6.5293,6.5459,6.5459,6.5459,6.4564,6.3294,6.3294,6.3294,6.3294,2.1317,2.1332,2.134,2.1317,2.1332,2.1348,2.1348,2.1956,2.4235,2.9247,3.1317,3.3708,3.7404,3.9314,4.0107,3.9548,4.1278,4.3751,4.6944,4.8076,4.9386,5.1121,5.1847,5.2495,5.3058,5.4244,5.5215,5.6089,5.664,5.6834,5.6705,5.6705,5.6316,5.5551,5.4288,5.3479,5.3032,5.2524,5.186,5.1298,5.2436,5.2175,5.1102,5.106,5.0916,5.0743,5.1049,5.0607,5.0036,5.0638,5.0394,4.977,4.9394,4.785,4.5374,4.0904,3.9549,0.0,0.0,0.0,0.0,0.0,0.0,0.0,0.0,4.1442,4.3211,4.6314,4.9059,5.1587,5.4026,5.5667,5.7654,6.0622,6.1351,6.198,6.3327,6.3526,6.3559,6.3691,6.4122,6.4454,6.4564,6.4962,6.473,6.3592,6.388,6.3593,6.2401,6.2855,6.3252,6.3428,6.3232,6.321,6.3364,6.4134,6.4497,6.4497,6.5402,6.5834,6.5834,6.643,6.6397,6.59,6.7092,6.7258,6.6761,6.7357,6.7589,6.7589,6.7589,6.6165,6.4155,6.4155,6.4155,6.4155,2.1402,2.1472,2.1543,2.1418,2.148,2.1574,2.1574,2.2092,2.3938,2.7991,2.9517,3.1468,3.4685,3.613,3.7837,4.0318,4.1268,4.3539,4.7781,4.9801,5.0959,5.1186,5.1847,5.2236,5.2333,5.4891,5.5733,5.4632,5.7137,5.8044,5.7471,5.7471,5.7082,5.6349,5.5518,5.4094,5.23,5.2234,5.1813,5.1205,5.1373,5.1327,5.1187,5.1164,5.0722,5.0192,5.0996,5.0441,4.9618,5.1147,5.1209,5.0797,5.1401,5.0188,4.8154,4.6273,4.313,3.9865,3.7983,3.7752,3.8811,4.1844,4.2255,4.3734,0.0,5.1125,5.0996,5.4402,5.6511,5.7886,5.8237,5.9496,6.0622,6.1032,6.2179,6.3327,6.4067,6.4233,6.4498,6.5094,6.4664,6.4564,6.5204,6.4829,6.4454,6.4288,6.354,6.298,6.2815,6.2738,6.3067,6.3914,6.3892,6.4288,6.5094,6.5844,6.6242,6.6242,6.697,6.7357,6.7357,6.7456,6.7423,6.7357,6.7523,6.7556,6.7489,6.7589,6.7589,6.7589,6.7589,6.739,6.7125,6.7125,6.7125,6.7125,2.134,2.1464,2.1589,2.1518,2.1574,2.1604,2.1604,2.1795,2.3014,2.5873,2.7323,2.8764,3.0468,3.143,3.2963,3.5551,3.8961,4.2501,4.609,4.9379,5.1218,5.1218,5.1847,5.2398,5.2832,5.4438,5.5183,5.4968,5.6166,5.6834,5.6952,5.6952,5.7017,5.7082,5.5507,5.4341,5.3402,5.2139,5.1477,5.1218,5.1218,5.1218,5.1205,5.1331,5.0641,4.9641,5.0041,4.9525,0.0,4.9765,4.9796,4.9547,5.0498,4.9903,4.8425,4.6061,4.4815,4.4423,4.5516,4.5185,4.5103,4.7504,4.8465,4.9689,5.2993,5.3776,5.4574,5.7291,5.874,5.9661,6.0092,6.102,6.2034,6.2875,6.3559,6.4188,6.4862,6.4962,6.5094,6.537,6.5502,6.5701,6.5999,6.579,6.5459,6.5028,6.4608,6.4178,6.3749,6.4024,6.4618,6.5434,6.5864,6.6273,6.6662,6.6993,6.7158,6.7158,6.7456,6.7589,6.7622,6.8042,6.8473,6.8871,6.844,6.8473,6.8904,6.8904,6.8904,6.8904,6.8904,6.8998,6.8991,6.7966,6.7681,6.7818,2.1371,2.1518,2.1673,2.1673,2.1673,2.1673,2.1673,2.165,2.2251,2.403,2.5234,2.6161,2.6805,2.7308,2.8593,3.1043,3.626,4.0811,4.4139,4.8344,5.0834,5.1186,5.1847,5.2365,5.2702,5.3823,5.4438,5.4535,5.4903,5.5409,5.5928,5.6122,5.6478,5.6952,5.5377,5.447,5.3984,5.2203,5.138,5.1218,5.1218,5.1218,5.1172,5.0969,4.9964,4.8683,4.8779,4.8065,4.7052,4.6933,4.6933,4.7107,4.7818,4.774,4.7105,4.5297,4.5487,4.6808,4.9144,4.974,5.0055,5.153,5.34,5.4906,5.4906,5.5899,5.7257,5.8866,5.996,6.0755,6.1285,6.2167,6.3161,6.4222,6.4553,6.4829,6.5304,6.5403,6.5469,6.5668,6.6165,6.6662,6.7059,6.6728,6.6264,6.5734,6.5701,6.5469,6.4962,6.5602,6.6231,6.6794,6.7324,6.7589,6.7589,6.7787,6.7887,6.7887,6.8119,6.8218,6.8218,6.8771,6.9268,6.9765,6.9235,6.9348,6.9917,6.9917,6.9941,7.0011,7.0011,7.0129,7.0113,6.8792,6.8463,6.8669,2.1597,2.1685,2.1797,2.1797,2.1797,2.1797,2.1797,2.1738,2.1982,2.2773,2.3342,2.3948,2.4533,2.4621,2.5764,2.8648,3.3624,3.8363,4.2518,4.6902,4.9924,5.1153,5.1847,5.1931,5.1283,5.3304,5.3725,5.23,5.3725,5.4438,5.447,5.513,5.5454,5.5454,5.5389,5.4612,5.3285,5.2495,5.1782,5.1218,5.1218,5.1218,5.1075,4.9845,4.8414,4.7078,4.7284,4.5996,4.3986,4.2365,4.2548,4.3429,4.3338,4.352,4.4007,4.5348,4.5282,4.4935,4.5764,4.8547,5.1563,5.3003,5.6051,5.8734,5.8734,5.933,5.9893,5.996,6.114,6.2134,6.2167,6.336,6.4354,6.4387,6.4962,6.537,6.5403,6.5403,6.5668,6.6363,6.6496,6.7059,6.8473,6.7347,6.6496,6.6463,6.6463,6.6463,6.643,6.7125,6.7556,6.7589,6.7589,6.7589,6.7589,6.8307,6.8695,6.8672,6.9368,6.9732,6.9732,6.9765,6.9765,6.9798,6.9765,6.9941,7.0209,7.0209,7.0316,7.0469,7.0469,7.0469,7.0469,7.0236,7.025,7.0425,2.1604,2.1688,2.173,2.173,2.1775,2.1805,2.1805,2.1783,2.1844,2.2022,2.2556,0.0,0.0,0.0,0.0,0.0,3.192,3.5798,3.9675,4.4318,4.7502,4.8802,5.0612,5.1445,5.1218,5.1931,5.2028,5.1542,5.2028,5.2495,5.2948,5.3673,5.4256,5.4762,5.4762,5.4191,5.3252,5.2527,5.1815,5.1218,5.1218,5.0505,4.9512,5.0274,4.737,4.2912,0.0,4.1701,4.0541,3.9735,3.9591,3.9756,4.0072,4.0533,4.118,4.2397,4.4408,4.6785,4.8961,5.1832,5.4626,5.6547,5.8369,5.9628,5.9628,6.0576,6.1471,6.1471,6.1471,6.1637,6.2101,6.2598,6.3095,6.3592,6.463,6.5569,6.6065,6.6132,6.6397,6.7158,6.7678,6.8341,6.9334,6.8539,6.8175,6.8639,6.8241,6.7943,6.7943,6.8208,6.8341,6.8341,6.8804,6.9069,6.9069,6.9301,6.9434,6.9434,7.0163,7.0527,7.056,7.1024,7.1256,7.1256,7.1256,7.1401,7.1666,7.1666,7.1809,7.2022,7.2022,7.1656,7.1108,7.101,7.0659,7.0296,2.1643,2.1678,2.173,2.173,2.1775,0.0,0.0,0.0,0.0,0.0,0.0,0.0,0.0,0.0,0.0,0.0,0.0,3.3315,3.6545,4.0716,4.3847,4.5647,4.7133,4.8074,4.8368,4.8074,4.83,4.9143,4.9424,5.0316,5.1752,5.2812,5.3673,5.4405,5.4405,5.4146,5.3576,5.1939,5.1196,5.0976,4.9572,4.8216,4.6999,4.72,4.3668,0.0,3.7665,3.6448,3.524,3.5024,3.5595,3.6474,3.7175,3.8865,4.0893,4.2652,4.5094,4.8084,5.1934,5.4435,5.6614,5.9065,6.0225,6.0854,6.1119,6.1902,6.2598,6.2598,6.1781,6.1318,6.2068,6.22,6.2532,6.3526,6.4862,6.6032,6.6794,6.6893,6.7158,6.791,6.8639,6.9368,7.0096,6.9997,6.9864,6.9798,6.9334,6.897,6.8705,6.8937,6.9069,6.9069,6.9533,6.9931,7.0196,7.0196,7.0461,7.0991,7.1286,7.17,7.2231,7.211,7.2183,7.2447,7.2447,7.2339,7.2206,7.2366,7.2365,7.2184,7.1944,7.1466,7.0924,7.0823,7.0603,7.0397,2.1693,2.1753,2.1805,0.0,0.0,0.0,0.0,0.0,0.0,0.0,0.0,0.0,0.0,0.0,0.0,0.0,0.0,0.0,3.3208,3.6267,3.9175,4.1789,4.1917,4.2301,4.3216,4.2445,4.3085,4.5235,4.6099,4.7892,5.0548,5.2152,5.3233,5.39,5.3932,5.3932,5.3686,5.0582,4.9754,5.0188,4.6426,4.4503,4.3647,4.1099,3.774,3.4213,3.2876,3.0833,2.8826,2.8931,3.1161,3.4071,3.5234,3.8785,4.3104,4.6023,4.7375,4.9051,5.4301,5.6349,5.7641,6.0523,6.1736,6.2432,6.3128,6.3327,6.3327,6.3183,6.2001,6.1173,6.1724,6.1956,6.252,6.3957,6.5492,6.6761,6.7556,6.7655,6.792,6.8705,6.9434,0.0,0.0,0.0,7.1397,6.9991,6.9874,6.9543,6.88,6.9363,6.976,6.9826,6.9826,7.0181,7.0958,7.0942,7.1646,7.3069,7.2629,7.3126,7.4431,7.2868,7.2541,7.3221,7.3221,7.2715,7.196,7.241,7.2064,7.1217,7.0591,7.0273,7.0195,6.9934,7.0219,7.0701,0.0,0.0,0.0,0.0,0.0,0.0,0.0,0.0,0.0,0.0,0.0,0.0,0.0,0.0,0.0,0.0,0.0,0.0,2.9853,3.2545,3.5221,3.7844,3.9679,4.1165,4.2333,4.2205,4.2446,4.3023,4.3795,4.4518,4.5289,4.6737,4.7205,4.6901,4.7462,4.7398,4.6787,4.5479,4.5013,4.5047,4.3007,4.0991,3.9228,3.9173,3.6017,3.1667,3.2036,3.0667,2.8917,3.0673,3.4205,3.8381,4.1508,4.3977,4.618,4.848,5.131,5.4218,5.6701,5.9066,6.1107,6.2399,6.2896,6.3062,6.3261,6.3725,6.3514,6.1418,6.0276,5.9106,5.7177,5.8566,6.0263,6.114,6.4199,6.6926,6.8241,6.8407,6.8904,7.0196,0.0,7.1123,7.2415,7.2216,7.1697,7.0964,7.0749,7.0386,6.9863,6.8991,6.8991,7.004,7.0156,7.0689,7.172,7.1594,7.1952,7.2868,7.2342,7.2428,7.3032,7.2889,7.309,7.3504,7.3504,7.3477,7.3472,7.3548,7.3593,7.3533,7.3371,7.2756,7.1949,7.1893,7.1137,7.0108,0.0,0.0,0.0,0.0,0.0,0.0,0.0,0.0,0.0,0.0,0.0,0.0,0.0,0.0,0.0,0.0,0.0,0.0,0.0,2.9243,3.1219,3.3548,3.4632,3.5943,3.7537,3.6967,3.7487,3.9116,3.9318,4.0239,4.1821,4.2334,4.251,4.243,4.283,4.2975,4.2815,4.1342,4.1182,0.0,0.0,3.6642,3.5166,3.4655,3.2182,2.9083,2.9939,3.1565,3.366,3.639,3.9421,4.2522,4.5571,4.7505,4.9159,5.1651,5.408,5.6556,5.9132,6.1003,6.2432,6.3526,6.3791,6.3547,6.2617,6.2737,6.2128,5.8973,5.7288,5.5809,5.3879,5.6332,5.8896,5.9643,6.4112,6.7877,6.9003,6.9434,6.9796,7.0067,7.0674,7.1186,7.1513,7.1428,7.1134,7.0562,7.0564,7.0261,6.9446,6.8918,6.9014,6.9814,7.0167,7.0813,7.1772,7.2138,7.2685,7.3394,7.3043,7.3343,7.412,7.3588,7.3638,7.4126,7.4126,7.3895,7.3604,7.3805,7.3677,7.3333,7.3016,7.2267,7.1466,7.1747,7.1024,6.9936,0.0,0.0,0.0,0.0,0.0,0.0,0.0,0.0,0.0,2.2962,2.3419,2.4,0.0,0.0,0.0,0.0,0.0,0.0,0.0,0.0,2.7704,2.9521,2.8944,2.9498,3.1461,3.0211,3.1147,3.4394,3.4081,3.5544,3.8601,3.815,3.8226,3.8705,3.8705,3.9072,3.9519,3.7404,3.7389,3.8365,3.4189,3.2182,3.152,0.0,2.7904,2.7014,2.7989,3.2813,3.9281,4.3047,4.5291,4.6848,4.8848,5.0677,5.2572,5.5099,5.6336,5.7646,6.1375,6.2333,6.2697,6.4188,6.4553,6.3967,6.1779,6.114,5.9923,5.6173,5.3694,5.1946,5.1081,5.43,5.7522,5.8832,6.411,6.8522,6.9765,7.0373,7.0363,6.949,7.0383,7.0674,6.9738,7.0224,7.0294,6.9594,6.993,6.9649,6.8524,6.8976,6.9413,6.9657,7.0371,7.1178,7.2056,7.2762,7.3448,7.408,7.3788,7.4303,7.5448,7.4039,7.372,7.4281,7.4375,7.3777,7.2737,7.3207,7.2809,7.1813,7.1259,7.0675,7.0244,7.0921,7.0736,7.0274,0.0,0.0,0.0,0.0,0.0,0.0,0.0,0.0,0.0,0.0,2.5156,2.4651,0.0,0.0,0.0,0.0,0.0,0.0,0.0,0.0,0.0,2.7537,2.7461,2.8034,2.9382,2.9289,2.9517,3.0152,3.0698,3.1272,3.1899,3.2342,3.2323,3.1892,3.1892,3.1968,3.2051,3.1652,3.1956,3.2538,3.0554,2.9387,2.8695,2.7657,0.0,0.0,2.9765,3.3058,3.7161,4.3814,4.8557,5.2043,5.4491,5.6305,5.7634,5.8131,5.9236,6.0672,6.2577,6.3095,6.3459,6.4862,6.5227,6.4542,6.1912,6.0274,5.8072,5.3585,5.0755,4.8723,4.7602,5.0182,5.3729,5.7575,6.1969,6.626,7.0166,6.9976,6.9779,7.0792,7.0241,6.9971,7.0346,7.0536,7.0366,6.9766,6.9821,6.9511,6.8691,6.8755,6.9517,7.0985,7.2073,7.3369,7.4959,7.3852,7.3342,7.3437,7.2358,7.184,7.1831,7.1812,7.1721,7.1592,7.2241,7.1996,7.129,7.1347,7.1286,7.1136,7.1629,7.1752,7.1721,7.2398,7.2214,7.1752,0.0,0.0,0.0,0.0,0.0,0.0,0.0,2.5424,2.6801,2.9348,2.9411,2.8537,2.6667,2.6184,2.6036,0.0,0.0,0.0,0.0,0.0,0.0,0.0,0.0,0.0,2.7897,2.7538,2.7706,2.8486,0.0,2.8122,2.858,2.809,2.771,2.7375,2.6954,2.6985,2.7417,2.7807,2.8176,2.8462,2.8178,2.7641,2.6946,0.0,0.0,0.0,3.0084,3.3883,3.8351,4.1682,4.7688,5.4156,5.6509,5.8005,5.8899,5.8899,5.9926,6.1351,6.2432,6.2996,6.3559,6.4597,6.516,6.4068,5.8926,5.7321,5.5005,4.8192,4.6235,4.5338,4.3944,4.7567,5.1604,5.407,5.9928,6.495,6.7247,6.8759,6.9618,6.9457,6.9258,6.9246,6.9465,6.9528,6.9628,6.9854,7.0068,6.9854,6.9154,6.961,7.0435,7.166,7.2242,7.2947,7.3751,7.2794,7.2302,7.2301,7.1506,7.1077,7.0921,7.1077,7.1046,7.0952,7.169,7.1813,7.1475,7.1475,7.166,7.1967,7.1998,7.1998,7.209,7.2768,7.2583,7.2121,0.0,0.0,0.0,0.0,0.0,0.0,2.6751,2.7912,2.9714,3.3065,3.3615,3.2534,2.9454,2.7797,2.6718,0.0,0.0,0.0,0.0,0.0,0.0,0.0,0.0,0.0,0.0,0.0,0.0,0.0,2.6251,0.0,0.0,0.0,0.0,0.0,2.4182,2.4255,2.4889,2.5581,2.5926,0.0,0.0,2.662,0.0,0.0,0.0,0.0,0.0,3.3925,3.8216,3.9779,4.528,5.2075,5.5355,5.7442,5.8648,5.8567,5.9633,6.1086,6.2167,6.2962,6.3725,6.4454,6.5028,6.3496,5.6095,5.445,5.2105,4.3815,4.2237,4.212,4.1382,4.513,4.8924,5.0712,5.7054,6.2444,6.4292,6.7109,6.8698,6.8018,6.8195,6.8422,6.8391,6.8482,6.8968,7.0032,7.0635,7.0629,6.993,7.0727,7.1494,7.2104,7.1951,7.1891,7.1986,7.1535,7.12,7.1077,7.08,7.0613,7.049,7.0613,7.0705,7.0736,7.1444,7.1782,7.1782,7.1782,7.206,7.2491,7.2152,7.1998,7.2121,7.2922,7.2891,7.2522,0.0,0.0,0.0,0.0,0.0,0.0,2.7552,2.9071,3.1575,3.647,3.5896,3.4435,3.2884,3.1057,2.8835,0.0,0.0,0.0,0.0,0.0,0.0,0.0,0.0,0.0,0.0,0.0,0.0,0.0,2.544,0.0,0.0,0.0,0.0,0.0,0.0,2.4902,2.5029,2.558,0.0,0.0,0.0,0.0,0.0,0.0,0.0,0.0,0.0,3.1735,3.2585,4.0533,4.2535,4.2881,4.974,5.4678,5.7846,5.7455,5.865,6.0556,6.2631,6.3725,6.4454,6.516,6.5337,6.3452,5.5933,5.3275,5.0476,4.3841,4.0588,3.9508,4.1318,4.1866,4.3849,4.9408,5.235,5.6481,6.3751,6.4824,6.5814,6.8366,6.7788,6.7392,6.799,6.8297,6.9025,7.0353,7.1586,7.1983,7.1256,7.1665,7.2075,7.2451,7.181,7.1628,7.1998,7.1291,7.0644,7.006,7.0028,6.9659,6.9074,6.969,6.9997,7.0028,7.0705,7.1013,7.1013,7.1013,7.1044,7.1136,7.1782,7.1998,7.2152,7.3414,7.3876,7.3907,0.0,0.0,0.0,0.0,0.0,0.0,2.8761,3.0141,3.2721,3.8262,3.8381,3.7454,3.6206,3.42,3.1068,2.6357,0.0,0.0,0.0,0.0,0.0,0.0,0.0,0.0,0.0,0.0,0.0,2.6839,2.6439,0.0,0.0,0.0,0.0,0.0,0.0,2.4285,2.4365,2.508,0.0,0.0,0.0,0.0,0.0,0.0,0.0,0.0,0.0,0.0,3.3635,3.6854,3.9893,4.2738,4.5032,4.8596,5.247,5.5396,5.8018,6.039,6.2167,6.3493,6.4553,6.5227,6.3956,6.0967,5.5122,5.1568,4.7734,4.154,3.9517,3.9206,4.0346,4.1101,4.2826,4.6723,5.046,5.4027,5.7288,6.1004,6.362,6.4145,6.5353,6.6512,6.7586,6.8174,6.9029,7.0338,7.1107,7.1322,7.0826,7.1564,7.2058,7.2182,7.1476,7.1199,7.1321,7.0644,7.0151,6.9905,6.9474,6.9351,6.9505,6.9782,7.012,7.0551,7.1229,7.1536,7.1567,7.1998,7.2398,7.2798,7.3076,7.3445,7.3876,7.4399,7.4584,7.4645,0.0,0.0,0.0,0.0,0.0,2.5339,2.9297,3.1024,3.3755,3.8975,3.9519,3.9047,3.8045,3.5412,3.1989,2.7674,2.6636,0.0,0.0,0.0,0.0,0.0,0.0,0.0,0.0,0.0,2.7729,2.8137,2.7774,2.7423,0.0,0.0,2.617,2.5478,0.0,0.0,0.0,0.0,0.0,0.0,0.0,0.0,0.0,0.0,0.0,0.0,0.0,0.0,0.0,0.0,0.0,4.1333,4.128,4.3776,4.7654,5.2532,5.6538,5.9641,6.1015,6.3307,6.5392,6.5635,6.3259,5.9494,5.4463,5.0191,4.562,3.9981,3.8723,3.8896,3.982,4.0555,4.1949,4.4755,4.8492,5.1613,5.3275,5.7768,6.0995,6.1319,6.2972,6.4808,6.6619,6.802,6.9211,7.019,7.0678,7.0739,7.0282,7.0985,7.1475,7.169,7.0982,7.0613,7.0613,6.9936,6.9597,6.9597,6.932,6.9443,6.9905,7.009,7.0582,7.1259,7.1782,7.2244,7.2614,7.2891,7.3506,7.4276,7.4061,7.4399,7.5015,7.523,7.5292,7.5261,0.0,0.0,0.0,0.0,0.0,0.0,2.8844,3.177,3.4885,3.8519,3.8876,3.8564,3.7885,3.3991,3.1144,3.044,2.7803,0.0,0.0,0.0,0.0,0.0,0.0,0.0,0.0,0.0,2.8486,2.988,2.9124,2.8778,2.8745,2.8106,2.7392,2.6669,0.0,0.0,0.0,0.0,0.0,0.0,0.0,0.0,0.0,0.0,0.0,0.0,0.0,0.0,0.0,0.0,0.0,0.0,0.0,4.1309,4.4487,4.8872,5.3798,5.8058,5.9132,6.3419,6.739,6.6662,6.3888,5.9839,5.4179,4.9284,4.4578,3.9769,3.8121,3.8098,4.0047,3.9732,4.0382,4.3936,4.5725,4.8498,5.3751,5.5547,5.7698,6.1263,6.1175,6.1998,6.4859,6.7776,6.9633,6.9974,7.0557,7.0648,7.0036,6.9944,7.0213,7.089,7.0244,6.9905,6.9905,6.9228,6.8889,6.8919,6.9566,6.9874,6.9905,7.0582,7.129,7.1998,7.1998,7.2768,7.3907,7.326,7.3783,7.4922,7.4245,7.4399,7.5076,7.5754,7.6,7.5907,0.0,0.0,0.0,0.0,0.0,0.0,0.0,2.8685,3.121,3.4844,3.5268,3.5576,3.6467,3.3091,3.0701,3.048,2.7864,0.0,0.0,0.0,0.0,0.0,0.0,0.0,0.0,0.0,3.0653,3.1622,3.1702,3.1562,3.1242,2.9859,2.8615,2.7402,2.614,0.0,0.0,0.0,0.0,0.0,0.0,0.0,0.0,0.0,0.0,0.0,0.0,0.0,0.0,0.0,0.0,0.0,0.0,0.0,0.0,4.2485,4.8339,5.3988,5.4101,5.6103,5.7998,5.7356,5.4102,5.0625,4.9034,4.4926,4.0994,3.9354,3.8302,3.8243,4.0084,3.9968,4.1007,4.5258,4.6627,4.8302,5.1526,5.5438,5.813,5.8636,6.1635,6.4213,6.5564,6.6556,6.7348,6.7936,6.8486,6.8758,6.8577,6.9423,6.9997,7.0213,6.9566,6.9659,7.0582,6.9905,7.0274,7.169,7.0952,7.1075,7.1998,7.1752,7.2029,7.2706,7.2706,7.3168,7.403,7.4276,7.4892,7.5723,7.5969,7.6184,7.6338,7.6092,7.6,7.5969,0.0,0.0,0.0,0.0,0.0,0.0,0.0,2.6986,2.9184,3.1682,3.2243,3.3135,3.497,3.1636,2.9605,3.0423,2.785,0.0,0.0,0.0,0.0,0.0,0.0,0.0,0.0,3.0103,3.1484,3.335,3.3931,3.4205,3.4164,3.3123,3.1253,2.8766,2.7578,2.6587,0.0,0.0,0.0,0.0,0.0,0.0,2.9473,0.0,0.0,0.0,0.0,0.0,0.0,0.0,0.0,0.0,0.0,0.0,0.0,0.0,4.3,4.7744,4.9292,5.188,5.3946,5.329,4.9956,4.6738,4.6337,4.2436,3.8758,3.8212,3.7717,3.7871,3.9347,3.9585,4.0744,4.432,4.585,4.7672,5.0672,5.4562,5.7384,5.8147,6.1829,6.4554,6.521,6.5713,6.6252,6.6926,6.7513,6.7909,6.7903,6.9154,6.9883,6.9883,6.9755,7.0059,7.089,7.049,7.1075,7.2614,7.1967,7.2275,7.3353,7.3199,7.3353,7.3722,7.3476,7.3753,0.0,7.4276,7.4799,7.5661,7.5815,7.6031,7.6246,7.6061,7.6,7.6,0.0,0.0,0.0,0.0,0.0,0.0,0.0,2.6279,2.8333,2.9075,2.9761,3.0996,3.3105,2.9669,2.8002,3.0036,0.0,0.0,0.0,0.0,0.0,0.0,0.0,0.0,0.0,2.9496,3.1294,3.4883,3.581,3.6605,3.7334,3.7334,3.497,3.0688,2.9903,2.8314,0.0,0.0,0.0,0.0,2.7415,2.8267,0.0,0.0,0.0,0.0,0.0,0.0,0.0,0.0,0.0,0.0,0.0,0.0,0.0,0.0,0.0,0.0,0.0,4.9497,5.3266,5.2472,4.9574,4.6516,4.5131,4.1211,0.0,3.6565,3.6552,3.7116,3.8275,3.884,3.9867,4.215,4.4136,4.6864,5.1192,5.3623,5.6235,5.9764,6.1969,6.3473,6.4088,6.5267,6.6237,6.6797,6.7488,6.7879,6.7894,6.9163,6.988,6.988,7.0526,7.0953,7.1044,7.1105,7.1506,7.2306,7.2891,7.3476,7.4153,7.4738,7.5015,7.4953,7.4338,7.443,7.4892,7.366,7.3876,7.4953,7.4368,7.4522,7.5138,7.5784,7.6,7.6,0.0,0.0,0.0,0.0,0.0,0.0,0.0,0.0,0.0,0.0,2.7112,2.7618,2.8707,2.7405,2.6658,0.0,0.0,0.0,0.0,0.0,0.0,0.0,0.0,0.0,0.0,3.0489,3.2354,3.4883,3.7347,3.8904,3.9633,3.9633,3.7247,3.2961,3.1648,2.9264,0.0,0.0,0.0,0.0,2.8688,2.944,0.0,0.0,0.0,0.0,3.1967,3.3039,0.0,0.0,0.0,0.0,0.0,0.0,0.0,0.0,3.4994,3.6023,3.764,0.0,4.2164,4.0692,3.9621,3.8759,0.0,3.6968,3.5959,3.5946,3.619,3.7219,3.9857,3.9305,4.0211,4.5591,4.6269,4.7952,5.3134,5.7599,6.1163,6.348,6.4239,6.4595,6.4784,6.5481,6.6005,6.6122,6.7201,6.7905,6.7891,6.9168,6.9915,6.9915,7.0555,7.1429,7.2491,7.3014,7.3876,7.5046,7.4707,7.4892,7.5538,7.5169,7.5015,7.4984,7.483,7.4861,7.4984,7.4645,7.4707,7.5046,7.5384,7.563,7.5784,7.5938,7.6,7.6,0.0,0.0,0.0,0.0,0.0,0.0,0.0,0.0,0.0,0.0,0.0,2.5971,2.6709,2.6435,0.0,0.0,0.0,0.0,0.0,0.0,0.0,0.0,0.0,0.0,2.892,3.0036,3.2155,3.5413,3.7678,3.9487,4.0845,4.0845,3.8493,3.4154,3.104,2.8721,0.0,0.0,0.0,0.0,2.893,0.0,0.0,0.0,0.0,0.0,3.1462,3.259,0.0,3.4869,3.6129,3.7049,0.0,0.0,0.0,0.0,3.3544,3.3724,3.4412,3.6773,3.8873,3.8069,3.7751,3.7442,3.6794,3.5827,3.5002,3.4704,3.5393,3.6605,3.8524,3.996,4.1908,4.5201,4.8031,5.1598,5.6709,6.0253,6.2981,6.4793,6.4996,6.4996,6.4996,6.5577,6.6009,6.636,6.7331,6.8024,6.8284,6.9326,6.9895,6.9895,7.0846,7.1575,7.2042,7.303,7.3861,7.4596,7.5162,7.5661,7.6,7.5938,7.5938,7.5907,7.5261,7.5015,7.4953,7.4338,7.4245,7.449,7.4202,7.432,7.4531,7.4239,7.4109,7.417,0.0,0.0,0.0,0.0,0.0,0.0,0.0,0.0,0.0,0.0,0.0,0.0,0.0,0.0,0.0,0.0,0.0,0.0,0.0,0.0,0.0,0.0,0.0,2.7098,2.8707,2.9383,3.1791,3.6009,3.7917,3.9772,4.1593,4.2255,4.0004,3.5181,3.0189,2.8111,0.0,0.0,0.0,0.0,2.8896,0.0,0.0,0.0,0.0,0.0,0.0,0.0,0.0,3.4569,3.6292,3.7716,3.6318,0.0,0.0,0.0,0.0,0.0,3.3784,3.7075,3.9939,3.9084,3.9057,3.8908,3.7625,3.6092,3.469,3.3861,3.487,3.6295,3.7602,4.1135,4.4089,4.4761,5.0348,5.6133,6.0514,6.2272,6.3604,6.4964,6.5054,6.5025,6.5112,6.5693,6.6331,6.6999,6.7638,6.8247,6.8765,6.937,6.9737,6.9737,7.0832,7.1129,7.0593,7.2347,7.3068,7.2789,7.5058,7.6058,7.5868,7.6642,7.6921,7.6767,7.5661,7.5046,7.4769,7.3722,7.3444,7.3594,7.2596,7.2461,7.2692,7.2226,7.2059,7.2086,0.0,0.0,0.0,0.0,0.0,0.0,0.0,0.0,0.0,0.0,0.0,0.0,0.0,0.0,0.0,0.0,0.0,0.0,0.0,0.0,0.0,0.0,0.0,2.8101,3.0135,3.0886,3.2817,3.6009,3.9937,4.2024,4.2421,4.6163,4.4242,3.7487,3.295,2.998,2.8409,0.0,0.0,2.944,2.997,0.0,0.0,0.0,0.0,0.0,0.0,0.0,0.0,3.335,3.4514,3.5554,3.3698,0.0,0.0,0.0,0.0,0.0,3.5862,4.0079,4.2197,3.6535,3.7038,3.8362,3.6513,3.5814,3.5521,3.5428,3.6155,3.8387,4.3493,4.3743,4.5119,5.1132,5.5473,5.9186,6.2291,6.4262,6.548,6.5718,6.5315,6.5199,6.5689,6.636,6.6999,6.7729,6.8334,6.8678,6.8794,6.8929,6.8963,6.8963,6.9185,6.9219,6.9131,7.282,7.3779,7.2103,7.5289,7.6259,7.5183,7.6446,7.6708,7.6154,7.5938,7.5199,7.4184,7.4553,7.3744,7.2318,7.3318,7.3018,7.2101,7.2571,7.2747,7.2588,0.0,0.0,0.0,0.0,0.0,0.0,0.0,0.0,0.0,0.0,0.0,0.0,0.0,0.0,0.0,0.0,0.0,0.0,0.0,0.0,0.0,0.0,2.9582,3.0102,3.1085,3.2983,3.54,3.8374,4.156,4.3287,4.3642,4.3315,4.0751,3.6261,3.2627,3.033,2.9179,2.9339,2.9496,2.966,0.0,0.0,0.0,0.0,0.0,0.0,0.0,0.0,0.0,0.0,3.4211,3.5696,3.4102,0.0,0.0,0.0,0.0,0.0,3.4157,3.7597,4.0297,3.9164,4.2883,4.6558,4.5775,4.4194,4.2668,4.1728,4.1625,4.2798,4.6438,4.815,5.1538,5.9041,6.0199,6.1334,6.4677,6.4964,6.5138,6.5834,6.566,6.5573,6.5864,6.7111,6.7928,6.7903,6.8799,6.9176,6.8823,6.8794,6.8794,6.8794,6.8794,6.8794,6.8794,7.1477,7.2096,7.0842,7.3515,7.4464,7.3924,7.4918,7.5234,7.4898,7.4916,7.4362,7.3399,7.3337,7.2963,7.2399,7.1959,7.1616,7.1281,7.085,7.0687,7.0624,0.0,0.0,0.0,0.0,0.0,0.0,0.0,0.0,0.0,0.0,0.0,0.0,0.0,0.0,0.0,0.0,0.0,0.0,0.0,0.0,0.0,3.0688,3.1638,3.2517,3.3369,3.5611,3.8117,4.0856,4.3194,4.4753,4.5514,4.0837,3.7637,3.5622,3.2508,3.062,2.9794,2.9718,2.9711,2.9826,0.0,0.0,0.0,0.0,0.0,0.0,0.0,0.0,0.0,0.0,0.0,0.0,0.0,0.0,0.0,3.2751,3.1959,3.2079,3.3678,3.6297,3.9457,4.3168,4.7296,5.1012,5.3103,5.0576,4.7786,4.7793,4.7527,4.7782,4.9531,5.3109,5.7858,6.4004,6.3516,6.3428,6.6683,6.5722,6.508,6.6212,6.6096,6.6067,6.6531,6.7778,6.8596,6.8538,6.9176,6.9408,6.906,6.8881,6.8794,6.8794,6.8794,6.8794,6.8794,6.9868,7.017,6.9666,7.1837,7.2736,7.2465,7.3355,7.3663,7.3514,7.3515,7.3084,7.2389,7.2056,7.2021,7.2066,7.0687,7.0245,7.0279,6.9205,6.8794,6.8794,0.0,0.0,0.0,0.0,0.0,0.0,0.0,0.0,0.0,0.0,0.0,0.0,0.0,0.0,0.0,0.0,0.0,0.0,0.0,0.0,2.9327,3.1416,0.0,0.0,3.8659,3.895,4.0114,4.2249,4.5094,4.7181,4.8472,4.2988,3.9629,3.8061,3.4511,0.0,0.0,0.0,0.0,2.9793,2.9826,0.0,0.0,0.0,0.0,0.0,0.0,0.0,0.0,0.0,0.0,0.0,0.0,0.0,3.3724,3.4158,3.3395,3.3379,3.7716,4.0427,4.299,4.6899,4.4512,4.3185,5.0855,4.8097,4.5458,5.085,5.1955,5.2551,5.4594,5.809,6.1047,6.218,6.4183,6.6067,6.7609,6.7144,6.6941,6.7667,6.668,6.6618,6.8417,6.8218,6.8654,7.0395,6.949,6.9118,6.9704,6.9147,6.8794,6.8794,6.8794,6.8794,6.8794,6.8891,6.8924,6.8895,7.1603,7.2268,7.1077,7.2398,7.2634,7.2065,7.2038,7.1678,7.1074,7.1675,7.1192,7.0153,7.0648,7.0061,6.8954,6.8857,6.8794,6.8794,0.0,0.0,0.0,0.0,0.0,0.0,0.0,0.0,0.0,0.0,0.0,0.0,0.0,0.0,0.0,0.0,0.0,0.0,0.0,0.0,2.8627,3.1653,3.2441,3.4744,3.8836,4.0451,4.2719,4.577,4.6454,4.6412,4.5515,4.1093,3.7662,3.5148,0.0,0.0,0.0,0.0,0.0,3.0501,3.0005,2.9957,0.0,0.0,0.0,0.0,0.0,0.0,0.0,0.0,3.0749,3.2063,3.1749,3.2781,3.4009,3.3425,3.2916,3.305,3.5639,3.9,4.2513,4.5793,4.5478,4.6621,5.5243,5.5491,5.4484,5.6566,5.7738,5.8395,5.8436,6.1913,6.4561,6.398,6.5722,6.7463,6.8334,6.7899,6.7754,6.8392,6.7696,6.758,6.8678,6.8973,6.9205,6.949,6.9466,6.935,6.9205,6.891,6.8794,6.8794,6.8794,6.8794,6.8794,6.8794,6.8794,6.8794,6.9834,7.0325,7.0319,7.0822,7.0892,7.0687,7.1115,7.09,7.0298,7.0565,7.0341,6.9899,6.9667,6.9268,6.8692,6.7719,6.7374,6.7374,0.0,0.0,0.0,0.0,0.0,0.0,0.0,0.0,0.0,0.0,0.0,0.0,0.0,0.0,0.0,0.0,0.0,0.0,0.0,2.6247,2.7793,3.0902,3.1387,3.3706,3.818,4.0383,4.3102,4.6442,4.6652,4.5684,4.3518,3.9946,3.7049,0.0,0.0,0.0,0.0,0.0,0.0,0.0,3.0633,3.0325,0.0,0.0,0.0,0.0,0.0,0.0,0.0,0.0,3.0103,3.1569,3.148,3.2721,3.4099,3.3604,3.4322,3.5549,3.6673,3.9317,4.2641,4.6417,4.712,4.9094,5.7506,5.878,5.8787,6.1063,6.1945,6.2237,6.2027,6.4262,6.594,6.537,6.6912,6.8392,6.9031,6.8392,6.8189,6.9031,6.8392,6.8218,6.906,6.935,6.9466,6.9403,6.9466,6.9379,6.9147,6.891,6.8794,6.8794,6.8794,6.8794,6.8794,6.8794,6.8794,6.8794,6.8794,6.9064,6.9537,6.9537,6.9537,6.957,7.0035,6.9969,6.9537,6.9537,6.9537,6.9437,6.8465,6.8056,6.7885,6.6342,6.5751,6.5751,0.0,0.0,0.0,0.0,0.0,0.0,0.0,0.0,0.0,0.0,0.0,0.0,0.0,0.0,0.0,0.0,0.0,0.0,2.5477,2.5817,2.6947,2.9102,2.9918,3.2511,3.7245,3.8681,4.0722,4.3507,4.5507,4.5458,4.3482,4.0146,0.0,0.0,0.0,0.0,0.0,0.0,0.0,0.0,3.175,3.0867,2.9134,0.0,0.0,0.0,0.0,0.0,0.0,0.0,2.9608,3.0057,3.2647,3.3484,3.3784,3.51,3.8272,4.1493,4.2171,4.2545,4.4103,4.9674,4.9039,4.8962,5.6334,5.5788,5.595,6.3744,6.4041,6.3526,6.5531,6.508,6.4749,6.5741,6.7546,6.906,6.9733,6.8716,6.8397,6.9675,6.8687,6.8426,6.9675,6.9205,6.9316,7.0564,6.949,6.9089,6.9762,6.9176,6.8794,6.8794,6.8794,6.8794,6.8794,6.8794,6.8794,6.8794,6.8794,6.8794,6.8794,6.8794,6.8794,6.8794,6.8794,6.8794,6.8794,6.8794,6.876,6.8596,6.7069,6.6483,6.6307,6.4752,6.4183,6.4183,0.0,0.0,0.0,0.0,0.0,0.0,0.0,0.0,0.0,0.0,0.0,0.0,0.0,0.0,0.0,0.0,0.0,0.0,2.5108,2.5667,2.6545,2.7736,2.9391,3.1445,3.3915,3.661,3.9785,4.3432,4.3639,4.2449,3.9926,0.0,0.0,0.0,0.0,0.0,0.0,0.0,0.0,0.0,3.2431,3.1727,3.1074,0.0,0.0,0.0,0.0,0.0,0.0,0.0,0.0,0.0,3.1704,3.3724,3.5506,3.4967,3.6284,3.7921,3.7866,4.2129,4.6657,4.7056,5.1897,5.7016,5.8561,5.8934,6.0435,6.5866,6.5233,6.413,6.5628,6.6436,6.6635,6.6009,6.7928,6.9554,6.9791,6.9472,6.9525,7.0337,6.9321,6.8857,6.9733,6.9205,6.8939,6.9316,6.8997,6.8881,6.9089,6.891,6.8794,6.8794,6.8794,6.8794,6.8794,6.8794,6.8794,6.8794,6.8794,6.8794,6.8794,6.8794,6.8794,6.8794,6.8794,6.8794,6.8726,6.7616,6.6518,6.5502,6.5074,6.4895,6.4716,6.3115,6.2524,6.2524,0.0,0.0,0.0,0.0,0.0,0.0,0.0,0.0,2.5366,2.6086,2.6194,2.6194,0.0,0.0,0.0,2.5505,2.5224,0.0,2.4695,2.5383,2.6399,2.7665,2.92,3.106,3.3264,3.5993,3.8205,3.9876,4.0891,4.0128,0.0,0.0,0.0,0.0,0.0,0.0,0.0,0.0,0.0,0.0,0.0,3.3188,3.1714,0.0,0.0,0.0,0.0,0.0,0.0,0.0,0.0,0.0,3.1301,3.308,3.5172,3.6471,3.8258,4.0367,4.2851,4.7062,5.1161,5.2934,5.6795,6.0551,6.1965,6.2545,6.3789,6.7215,6.6528,6.5672,6.6817,6.7794,6.8195,6.7546,6.8973,7.025,7.0517,7.014,7.0018,7.0657,6.9577,6.8939,6.935,6.906,6.8794,6.8794,6.8794,6.8794,6.8794,6.8794,6.8794,6.8794,6.8794,6.8794,6.8794,6.8794,6.8794,6.8794,6.8794,6.8794,6.8794,6.8794,6.8794,6.8794,6.8794,6.8794,6.8726,6.7816,6.6483,6.5074,6.4464,6.3784,6.3078,6.1467,6.0888,6.0888,0.0,0.0,0.0,0.0,0.0,0.0,0.0,2.4679,2.5433,2.602,2.6125,2.6141,0.0,0.0,0.0,2.5486,2.4794,2.4338,2.4338,2.5288,2.6616,2.8394,2.9477,3.1416,3.4354,3.6184,3.6214,3.4324,3.7681,3.8236,0.0,0.0,0.0,0.0,0.0,0.0,0.0,0.0,0.0,0.0,0.0,3.4749,3.1618,3.2714,0.0,0.0,0.0,0.0,0.0,0.0,0.0,0.0,3.1361,3.2093,3.363,3.8444,4.2235,4.6233,5.243,5.455,5.6576,6.3192,6.2425,6.1296,6.587,6.6246,6.6162,6.7939,6.7829,6.767,6.8702,6.9106,6.9379,6.981,7.0395,7.0976,7.1534,7.0633,7.0047,7.057,6.9519,6.8794,6.8794,6.8794,6.8794,6.8794,6.8794,6.8794,6.8794,6.8794,6.8794,6.8794,6.8794,6.8794,6.8794,6.8794,6.8794,6.8794,6.8794,6.8794,6.8794,6.8794,6.8794,6.8794,6.863,6.8494,6.8358,6.8193,6.7242,6.5715,6.4319,6.2894,6.1429,6.0022,5.9483,5.9483,0.0,0.0,0.0,0.0,0.0,0.0,2.3984,2.5102,2.5797,2.54,2.5475,2.5719,2.615,2.5728,0.0,2.5519,2.5059,2.4764,2.4764,2.6586,2.7839,2.8252,3.1522,3.3497,3.3709,3.4577,3.4334,3.2946,3.5674,3.6042,0.0,0.0,0.0,0.0,0.0,0.0,0.0,0.0,0.0,0.0,0.0,0.0,3.2976,3.3235,3.1701,0.0,0.0,0.0,0.0,0.0,0.0,0.0,3.1914,3.3125,3.4277,3.5432,4.0062,4.5052,4.6223,5.2194,5.8552,6.0544,6.3208,6.5705,6.7293,6.75,6.7558,6.818,6.8031,6.8151,6.935,6.9635,6.9862,7.0424,7.1063,7.1324,7.0976,7.0686,7.0395,7.0018,6.9292,6.8794,6.8794,6.8794,6.8794,6.8794,6.8794,6.8794,6.8794,6.8794,6.8794,6.8794,6.8794,6.8794,6.8794,6.8794,6.8794,6.8794,6.8794,6.8794,6.8794,6.8794,6.8794,6.8726,6.7512,6.6307,6.511,6.3847,6.2413,6.0964,6.0622,6.0304,5.9946,5.9599,5.9483,5.9483,0.0,0.0,0.0,0.0,0.0,0.0,0.0,0.0,2.5532,2.5135,2.5494,2.589,2.6168,2.5747,0.0,0.0,2.5137,2.4813,2.4634,2.655,2.8351,2.9715,3.3043,3.4301,3.3051,3.3653,3.3184,3.1525,3.3495,0.0,0.0,0.0,0.0,0.0,0.0,0.0,0.0,0.0,0.0,0.0,0.0,0.0,0.0,0.0,3.2119,3.0357,2.9663,0.0,0.0,0.0,0.0,0.0,0.0,0.0,3.402,3.6581,3.9416,4.2963,4.861,5.4015,5.887,6.2375,6.5077,6.7003,6.7318,6.7671,6.8127,6.8851,6.8929,6.9036,6.9675,7.0314,7.0837,7.1121,7.144,7.1592,7.1208,7.0657,7.0134,6.9849,6.9205,6.8794,6.8794,6.8794,6.8794,6.8794,6.8794,6.8794,6.8794,6.8794,6.8794,6.8794,6.8794,6.8794,6.8794,6.8794,6.8794,6.8794,6.8794,6.8794,6.8794,6.8022,6.7305,6.6553,6.5751,6.4931,6.4111,6.3272,6.2003,6.0584,6.0584,6.015,5.9483,5.9483,5.9483,5.9483,0.0,0.0,0.0,0.0,0.0,0.0,0.0,0.0,0.0,2.4936,2.5594,2.6105,2.6185,2.5775,2.55,0.0,0.0,0.0,2.4421,2.6285,2.8631,3.148,3.3723,3.4135,3.2495,3.2931,3.2466,3.1034,3.1835,0.0,0.0,0.0,0.0,0.0,0.0,0.0,0.0,0.0,0.0,0.0,0.0,0.0,0.0,0.0,0.0,0.0,3.0365,3.0243,3.0582,3.2004,0.0,0.0,0.0,0.0,3.3376,3.7956,3.9098,4.1157,5.1468,5.5785,5.8986,6.5602,6.7144,6.7119,6.7202,6.7725,6.8542,6.9588,6.982,6.9878,7.011,7.0895,7.1592,7.1679,7.1621,7.1505,7.1388,7.0459,6.9762,6.9612,6.9147,6.8794,6.8794,6.8794,6.8794,6.8794,6.8794,6.8794,6.8794,6.8794,6.8794,6.8794,6.8794,6.8794,6.8794,6.8794,6.8794,6.8794,6.8528,6.8124,6.7547,6.6272,6.5289,6.4581,6.4319,6.4038,6.3774,6.3492,6.2598,6.1391,6.1391,6.0622,5.9483,5.9483,5.9483,5.9483,0.0,0.0,0.0,0.0,0.0,0.0,0.0,0.0,0.0,0.0,2.4958,2.5673,2.615,2.5719,2.5443,2.5477,2.5137,2.4873,2.4813,0.0,0.0,3.1912,3.258,3.2717,3.2327,3.195,3.2204,3.3109,3.2109,0.0,0.0,0.0,0.0,0.0,0.0,0.0,0.0,0.0,0.0,0.0,0.0,0.0,0.0,0.0,0.0,0.0,0.0,0.0,2.9997,3.1854,3.2512,0.0,0.0,0.0,3.2795,3.4335,3.7707,4.1479,4.411,5.174,6.0554,6.6937,6.816,6.7899,6.845,6.906,6.9617,6.9762,6.982,7.014,7.1243,7.1092,7.1034,7.1621,7.1208,7.0657,7.014,6.9907,6.9583,6.9002,6.8852,6.8794,6.8794,6.8794,6.8794,6.8794,6.8794,6.8794,6.8794,6.8794,6.8794,6.8794,6.8794,6.8794,6.8794,6.8794,6.8794,6.8794,6.7443,6.536,6.2746,6.2524,6.3811,6.6131,6.4788,6.3409,6.2003,6.066,5.9997,5.983,5.983,5.9676,5.9483,5.9483,5.9483,5.9483,0.0,0.0,0.0,0.0,0.0,0.0,0.0,0.0,0.0,0.0,0.0,2.5936,2.6168,2.5981,2.5747,2.5538,2.5589,2.557,2.5481,2.7116,2.8709,3.0094,3.1578,3.2029,3.1306,3.143,3.1766,3.2331,0.0,0.0,0.0,3.8463,3.9584,0.0,0.0,0.0,0.0,0.0,0.0,0.0,0.0,0.0,0.0,0.0,0.0,0.0,0.0,0.0,0.0,3.2527,3.3066,3.3185,3.3859,0.0,0.0,0.0,3.5495,3.9006,4.7039,5.43,6.1101,6.7285,6.8625,6.8392,6.8305,6.906,6.9907,7.0221,7.0308,7.0482,7.1034,7.0918,7.0802,7.1092,7.0599,7.0105,6.9849,6.9466,6.9147,6.8823,6.8794,6.8794,6.8794,6.8794,6.8794,6.8794,6.8794,6.8794,6.8794,6.8794,6.8794,6.8794,6.8794,6.8794,6.8794,6.8794,6.8358,6.7478,6.5955,6.45,6.3125,6.3125,6.2931,6.2524,6.1853,6.1191,6.0431,5.9792,5.9483,5.9483,5.9483,5.9483,5.9483,5.9483,5.9483,5.9483,0.0,0.0,0.0,0.0,0.0,0.0,0.0,0.0,0.0,0.0,0.0,2.6194,2.6194,0.0,0.0,0.0,2.5673,2.5846,2.5759,2.6878,2.7907,2.8675,3.0573,3.1157,3.0218,3.0853,3.1271,3.142,0.0,0.0,4.0452,3.8881,4.0852,0.0,4.0598,0.0,0.0,0.0,0.0,0.0,0.0,3.7468,0.0,0.0,0.0,0.0,0.0,0.0,0.0,0.0,3.3484,3.3619,3.4377,3.386,0.0,0.0,0.0,3.6644,4.8312,5.3728,5.7858,6.5222,6.7115,6.7376,6.8363,6.935,7.0192,7.0831,7.0831,7.068,7.068,7.057,7.0482,7.0482,6.996,6.9525,6.9525,6.9118,6.8794,6.8794,6.8794,6.8794,6.8794,6.8794,6.8794,6.8794,6.8794,6.8794,6.8794,6.8794,6.8794,6.8794,6.8794,6.8794,6.8794,6.8794,6.785,6.5892,6.4752,6.3784,6.3005,6.3005,6.173,5.9521,5.9882,5.9869,5.9483,5.9483,5.9483,5.9483,5.9483,5.9483,5.9483,5.9483,5.9483,5.9483,0.0,0.0,0.0,0.0,0.0,0.0,0.0,0.0,0.0,0.0,0.0,2.6194,2.6194,2.6194,2.5853,2.5001,2.4952,2.5078,2.5325,2.5938,2.7094,2.8908,2.9472,0.0,2.9388,3.0032,3.0725,0.0,0.0,0.0,4.3603,4.1312,4.3229,4.837,4.3407,4.0409,3.8853,0.0,0.0,0.0,0.0,4.0152,0.0,0.0,0.0,0.0,0.0,0.0,0.0,0.0,3.3484,3.3662,3.4607,0.0,0.0,0.0,0.0,0.0,4.2378,4.4949,4.8391,5.9626,6.2441,6.3864,6.9321,7.0628,7.086,7.1534,7.115,7.068,7.068,7.0221,6.9849,6.9849,6.9292,6.8852,6.8852,6.8823,6.8794,6.8794,6.8794,6.8794,6.8794,6.8794,6.8794,6.8794,6.8794,6.8794,6.8794,6.8794,6.8794,6.8794,6.8794,6.8794,6.8794,6.8794,6.7277,6.4319,6.422,6.2635,5.9753,5.9753,5.9637,5.956,6.1077,6.085,5.9483,5.9483,5.9483,5.9483,5.9483,5.9483,5.9483,5.9483,5.9483,5.9483,0.0,0.0,0.0,0.0,0.0,0.0,0.0,0.0,0.0,0.0,0.0,0.0,0.0,0.0,0.0,0.0,2.4513,2.4751,2.5272,2.6482,2.7435,2.8082,2.9569,2.9881,2.8876,2.9383,0.0,0.0,0.0,3.3793,3.9031,3.9489,4.15,4.4628,4.1961,4.0903,4.083,3.6106,0.0,0.0,0.0,0.0,0.0,0.0,0.0,0.0,0.0,0.0,0.0,0.0,0.0,0.0,0.0,0.0,0.0,0.0,3.3985,3.6419,4.2302,4.4869,4.7849,5.5824,5.9974,6.2848,6.5747,6.862,7.0889,7.1563,7.115,7.068,7.068,6.9873,6.9176,6.9176,6.8939,6.8794,6.8794,6.8794,6.8794,6.8794,6.8794,6.8794,6.8794,6.8794,6.8794,6.8794,6.8794,6.8794,6.8794,6.8794,6.8794,6.8794,6.8794,6.8463,6.7839,6.686,6.5482,6.3736,6.2737,6.185,6.1115,6.1115,6.1291,6.1617,6.181,6.1213,6.006,6.0437,6.0588,6.0588,6.0588,6.0588,6.0588,6.0588,6.0588,6.0588,0.0,0.0,0.0,0.0,0.0,0.0,0.0,0.0,0.0,0.0,0.0,0.0,0.0,0.0,0.0,0.0,2.5038,2.5191,2.5827,2.7135,2.7926,2.8046,2.9562,2.9844,2.8633,2.9197,0.0,0.0,0.0,0.0,0.0,0.0,4.0371,4.2768,4.0666,0.0,0.0,0.0,0.0,3.6924,0.0,0.0,5.0006,0.0,0.0,0.0,0.0,0.0,0.0,0.0,0.0,0.0,0.0,0.0,0.0,0.0,0.0,0.0,4.003,4.2386,4.5223,5.1563,5.5242,5.8639,6.3806,6.6763,6.9113,7.1498,7.1324,7.068,7.068,6.9635,6.8794,6.8794,6.8794,6.8794,6.8794,6.8794,6.8794,6.8794,6.8794,6.8794,6.8794,6.8794,6.8794,6.8794,6.8794,6.8794,6.8794,6.8794,6.8881,6.9147,6.9147,6.8654,6.7648,6.6612,6.5224,6.3478,6.2455,6.1959,6.1994,6.1994,6.2295,6.2781,6.2647,6.1918,6.0914,6.109,6.119,6.119,6.119,6.119,6.119,6.119,6.119,6.119,0.0,0.0,0.0,0.0,0.0,0.0,0.0,0.0,0.0,0.0,0.0,0.0,0.0,0.0,0.0,0.0,2.6592,2.6483,2.6976,2.7725,2.8415,2.8932,2.9363,2.9289,2.8607,0.0,0.0,0.0,0.0,0.0,0.0,0.0,4.0156,0.0,3.9942,4.0275,4.3277,0.0,4.0164,3.9331,0.0,5.0237,4.7715,0.0,0.0,0.0,5.5967,5.4846,0.0,5.2133,0.0,0.0,0.0,0.0,0.0,0.0,0.0,0.0,0.0,0.0,0.0,4.6685,4.8043,5.1,6.3547,6.5083,6.5457,7.1237,7.1405,7.0593,7.068,6.9664,6.8823,6.8794,6.8794,6.8794,6.8794,6.8794,6.8794,6.8794,6.8794,6.8794,6.8794,6.8794,6.8794,6.8794,6.8794,6.8794,6.8794,6.8823,6.9147,6.982,6.9849,6.932,6.8337,6.8265,6.666,6.3569,6.3491,6.2985,6.2044,6.2069,6.237,6.2857,6.3475,6.3099,6.2044,6.1492,6.1305,6.1305,6.1266,6.1291,6.1291,6.1291,6.1291,6.1291,0.0,0.0,0.0,0.0,0.0,2.8347,2.7869,2.8191,0.0,0.0,0.0,0.0,0.0,0.0,0.0,0.0,2.8288,2.778,2.7449,2.75,2.7677,2.7966,2.8786,2.9045,0.0,0.0,0.0,0.0,0.0,0.0,0.0,0.0,0.0,0.0,3.9682,4.018,4.051,3.8148,0.0,0.0,4.8309,5.1978,0.0,0.0,0.0,0.0,0.0,5.9333,5.6627,0.0,5.2191,4.3723,0.0,0.0,0.0,0.0,0.0,0.0,3.5462,0.0,0.0,0.0,0.0,0.0,5.3123,5.7274,6.1396,6.6647,6.787,6.8509,7.0332,7.0076,6.935,6.8852,6.8794,6.8794,6.8794,6.8794,6.8794,6.8794,6.8794,6.8794,6.8794,6.8794,6.8794,6.8794,6.8794,6.8794,6.8794,6.9263,6.9815,7.0424,7.0453,6.9981,6.8983,6.781,6.6417,6.4783,6.3567,6.3093,6.3249,6.3626,6.3877,6.4053,6.4605,6.4454,6.3818,6.3667,6.3366,6.3023,6.3466,6.3592,6.3592,6.3592,6.3592,6.3592,0.0,0.0,2.9294,2.9294,3.0112,3.0642,3.0255,3.0342,0.0,0.0,0.0,0.0,0.0,0.0,0.0,0.0,2.991,2.9209,2.8763,2.8184,2.7971,2.8291,2.894,2.9233,2.9022,0.0,0.0,0.0,0.0,0.0,0.0,0.0,0.0,0.0,0.0,0.0,3.8524,0.0,0.0,0.0,4.9563,0.0,0.0,6.0501,6.4018,0.0,0.0,0.0,6.0326,6.4277,5.7494,0.0,0.0,0.0,0.0,0.0,0.0,0.0,0.0,0.0,0.0,0.0,0.0,0.0,5.1643,5.5474,5.9568,6.6825,6.8625,6.9384,7.0831,7.0599,6.996,6.9321,6.9234,6.9118,6.8823,6.8794,6.8794,6.8794,6.8794,6.8794,6.8794,6.8794,6.8794,6.8794,6.8794,6.891,6.9205,6.9815,7.0453,7.1092,7.0431,6.9696,6.8955,6.7326,6.5871,6.4629,6.3665,6.3375,6.3701,6.427,6.4622,6.4873,6.5383,6.5333,6.4873,6.5057,6.4705,6.4053,6.4396,6.4496,6.4496,6.4496,6.4496,6.4521,0.0,0.0,3.0831,3.1062,3.2266,3.3215,3.33,3.284,3.2696,0.0,0.0,0.0,0.0,0.0,0.0,0.0,0.0,3.0807,3.0475,2.929,2.8815,2.9307,2.9488,2.9638,2.9698,3.0762,0.0,0.0,0.0,0.0,0.0,0.0,0.0,0.0,3.4727,3.5476,3.6985,3.5535,0.0,4.1145,5.1176,5.3284,0.0,0.0,6.2355,6.0268,6.4455,6.4964,6.4366,6.903,6.4219,0.0,0.0,0.0,0.0,0.0,3.6827,0.0,0.0,0.0,0.0,0.0,0.0,0.0,5.3646,5.5707,5.7913,6.7322,6.9501,6.9791,7.0052,6.9728,6.9234,6.8509,6.8891,6.9147,6.8823,6.8794,6.8794,6.8794,6.8794,6.8794,6.8794,6.8794,6.8794,6.8794,6.8852,6.9234,6.9994,7.0512,7.1121,7.1795,7.0233,6.9226,6.8857,6.7045,6.5375,6.3965,6.3708,6.3601,6.3626,6.417,6.4655,6.5157,6.576,6.5735,6.5333,6.5886,6.5484,6.4597,6.4672,6.4697,6.4697,6.4739,6.4781,6.4823,3.0897,3.1669,3.284,3.4618,3.5678,3.6417,3.6967,3.6535,0.0,0.0,0.0,0.0,0.0,0.0,0.0,0.0,0.0,0.0,3.1368,2.9589,2.8869,2.9516,2.9572,2.9817,3.0313,3.1056,3.1356,0.0,0.0,0.0,0.0,0.0,0.0,0.0,0.0,3.4697,3.5176,3.6913,0.0,4.5957,4.808,0.0,5.7794,6.3418,6.7394,7.0173,7.1332,6.978,6.6647,6.3535,6.1585,5.9118,0.0,0.0,0.0,0.0,0.0,0.0,0.0,0.0,0.0,0.0,0.0,0.0,0.0,4.5518,4.9088,5.3181,5.562,5.7681,5.9742,6.0874,6.1135,5.9916,6.3225,6.6593,6.8533,6.8794,6.8794,6.8794,6.8794,6.8794,6.8794,6.8794,6.8794,6.8794,6.9292,7.014,7.1272,7.1446,7.1789,7.2398,7.1268,7.0604,7.0527,6.7571,6.5954,6.5592,6.3828,6.2957,6.3023,6.3576,6.3902,6.4053,6.5032,6.5383,6.5333,6.5886,6.5735,6.5183,6.5609,6.5785,6.5828,6.6212,6.6339,6.6424,3.2232,3.3624,3.5346,3.6837,3.858,3.9901,4.0241,4.0085,0.0,0.0,0.0,0.0,0.0,0.0,0.0,0.0,0.0,0.0,0.0,3.0448,2.9714,3.0013,3.0057,3.0492,3.1465,3.2153,3.2333,3.1989,0.0,0.0,0.0,0.0,0.0,0.0,0.0,0.0,0.0,0.0,3.9439,4.3878,5.012,0.0,6.3075,6.7818,7.1121,7.3283,7.4311,7.3214,7.0588,6.6208,6.2639,0.0,0.0,5.2373,4.9306,0.0,4.5084,4.6879,0.0,0.0,0.0,4.1744,0.0,0.0,0.0,0.0,4.8101,5.2572,5.3996,5.5126,5.739,5.8087,5.8203,5.7855,6.1832,6.4648,6.3719,6.6883,6.9408,6.9693,6.9171,6.891,6.9263,6.9002,6.891,6.9263,6.9902,7.0657,7.165,7.1963,7.2282,7.2602,7.0782,6.9806,6.9806,6.6818,6.517,6.4873,6.4038,6.35,6.3299,6.4103,6.4479,6.453,6.5358,6.571,6.571,6.5986,6.6064,6.6051,6.6354,6.6455,6.6498,6.6967,6.7137,6.7222,3.3222,3.4991,3.7036,3.8071,4.04,4.2239,4.2622,4.2677,0.0,0.0,0.0,0.0,0.0,0.0,0.0,0.0,0.0,0.0,0.0,0.0,3.2407,3.2407,3.142,3.1854,3.3978,3.3933,3.3425,3.2512,0.0,0.0,0.0,0.0,0.0,0.0,0.0,0.0,0.0,0.0,0.0,4.4028,0.0,6.0381,6.3946,6.9505,7.1946,7.2748,7.4969,7.5164,7.3813,7.0111,6.4791,5.9713,5.9275,5.6161,0.0,0.0,0.0,0.0,0.0,0.0,0.0,0.0,0.0,4.4153,0.0,0.0,0.0,5.321,5.3559,5.35,5.5068,5.5097,5.501,5.53,5.9422,6.1251,5.739,6.3022,6.7754,6.8243,6.8794,6.906,6.8712,6.8102,6.8334,6.9844,6.9757,7.0279,7.1795,7.234,7.2602,7.2602,7.0078,6.8694,6.8586,6.6006,6.4396,6.3852,6.432,6.4295,6.3877,6.4731,6.5183,6.5308,6.576,6.5961,6.5961,6.6047,6.6228,6.6492,6.6695,6.6882,6.701,6.7434,6.7646,6.7688,3.4091,3.4637,3.5902,3.8023,3.9623,4.1244,4.3108,4.2899,0.0,0.0,0.0,0.0,0.0,0.0,0.0,0.0,0.0,0.0,4.2462,0.0,0.0,3.929,3.4801,3.4546,3.9409,3.6716,3.4366,3.2512,3.3185,0.0,0.0,0.0,0.0,0.0,4.1531,0.0,0.0,0.0,5.0298,0.0,5.8704,5.7196,0.0,6.2191,6.6673,6.9481,7.3423,7.4613,7.3566,0.0,6.6331,6.3813,0.0,5.7571,5.9825,0.0,0.0,0.0,0.0,0.0,0.0,0.0,4.5982,0.0,0.0,0.0,0.0,4.3137,0.0,0.0,0.0,0.0,0.0,0.0,4.9954,5.344,5.1784,5.62,5.9626,5.9713,6.6099,6.8939,6.5022,6.4125,6.5664,7.025,6.7522,6.7638,7.2253,7.2573,7.2602,7.2602,7.0456,6.9089,6.8586,6.6352,6.4931,6.4421,6.4471,6.4471,6.4421,6.4547,6.4873,6.5283,6.5358,6.5383,6.5426,6.5833,6.5698,6.5385,6.6416,6.7052,6.7477,6.7925,6.8135,6.8193,3.4575,3.5518,0.0,3.7602,3.9624,4.139,4.2261,4.3719,0.0,0.0,0.0,0.0,0.0,0.0,0.0,0.0,0.0,4.8528,0.0,0.0,0.0,0.0,3.507,3.4681,3.8063,3.5998,3.4338,3.3095,3.3769,3.3889,0.0,0.0,0.0,0.0,4.4569,0.0,4.9859,0.0,5.2174,0.0,0.0,0.0,0.0,6.61,7.1846,7.2831,7.3758,7.3932,7.3238,0.0,6.6241,0.0,0.0,0.0,0.0,0.0,0.0,0.0,0.0,0.0,0.0,0.0,0.0,0.0,4.3472,0.0,4.2295,0.0,0.0,0.0,0.0,0.0,0.0,0.0,4.8038,0.0,0.0,0.0,5.8,5.8784,6.128,6.3194,6.392,6.5141,6.7376,7.1005,6.8741,6.8799,7.2427,7.2602,7.2602,7.2602,7.0512,6.9143,6.8613,6.6403,6.5007,6.4496,6.4823,6.4823,6.4521,6.4848,6.4949,6.4848,6.4848,6.4974,6.5184,6.5419,6.5642,6.5919,6.6381,6.6685,6.6893,6.7375,6.7566,6.7607,3.4623,0.0,0.0,3.6474,3.8567,4.0575,4.1651,4.3904,0.0,0.0,0.0,0.0,4.9898,5.0653,0.0,0.0,5.481,5.3408,0.0,0.0,4.5642,4.4227,3.8182,0.0,4.0696,3.7182,3.4803,3.3831,3.4217,3.4259,0.0,0.0,0.0,0.0,0.0,5.0396,5.594,0.0,5.5412,5.5121,5.7307,5.7835,5.8502,6.9649,7.4552,7.5354,7.4109,7.3422,7.273,7.0622,6.6256,0.0,6.6098,0.0,0.0,0.0,0.0,0.0,5.1106,0.0,0.0,0.0,0.0,0.0,0.0,0.0,0.0,0.0,0.0,0.0,0.0,0.0,0.0,0.0,0.0,0.0,0.0,4.9727,0.0,0.0,0.0,0.0,0.0,6.369,6.5954,6.9588,6.8218,6.8828,7.2427,7.2602,7.2602,7.2602,7.0512,6.9143,6.8613,6.6558,6.5157,6.4521,6.5032,6.5007,6.4521,6.4923,6.4974,6.4722,6.4722,6.4932,6.5376,6.5459,6.5898,6.6443,6.6566,6.6581,6.6622,6.6974,6.7096,6.7081,3.4225,3.3834,0.0,3.4393,3.5701,3.7957,4.179,4.296,0.0,0.0,0.0,0.0,0.0,0.0,0.0,0.0,0.0,6.67,6.2808,0.0,5.6077,6.1074,4.6471,4.2462,0.0,4.2252,3.644,3.4663,3.4363,3.4515,3.5031,3.4338,0.0,0.0,4.5718,4.9711,5.1164,5.7777,6.3405,6.7849,6.7306,6.9835,7.3496,0.0,7.0569,7.4639,7.3884,0.0,0.0,6.8305,6.6883,0.0,0.0,0.0,0.0,0.0,0.0,0.0,0.0,0.0,0.0,4.7956,0.0,0.0,0.0,0.0,4.522,0.0,0.0,0.0,0.0,0.0,0.0,0.0,0.0,0.0,0.0,0.0,0.0,0.0,0.0,0.0,0.0,5.6868,5.8406,0.0,6.4009,6.6012,7.2282,7.2602,7.2602,7.2602,7.0512,6.9143,6.8613,6.6903,6.5534,6.4521,6.5032,6.5007,6.4496,6.4521,6.4823,6.5258,6.5258,6.5554,6.5976,6.6396,6.6547,6.6551,6.6933,6.7096,6.7096,6.7096,6.7096,6.7096,0.0,0.0,3.4683,3.4387,3.5493,3.7475,4.0591,4.3459,4.654,0.0,5.2031,0.0,0.0,6.108,6.3409,0.0,0.0,6.652,6.3857,5.8949,0.0,0.0,0.0,4.3948,0.0,4.2813,3.7866,3.5707,3.5575,3.5573,3.5617,3.501,3.6552,4.0081,4.6577,5.2209,0.0,0.0,0.0,0.0,0.0,6.787,7.152,0.0,7.2279,7.3278,7.3022,7.2805,0.0,7.1121,6.8973,6.7148,6.8363,6.606,6.3183,6.4558,6.4002,6.2373,0.0,0.0,6.167,5.3596,0.0,0.0,0.0,0.0,0.0,0.0,0.0,0.0,0.0,0.0,0.0,0.0,0.0,0.0,0.0,0.0,0.0,0.0,0.0,0.0,0.0,0.0,0.0,0.0,6.6564,0.0,7.2427,7.2602,7.2602,7.2602,7.0161,6.8953,6.9143,6.6403,6.5032,6.5007,6.4873,6.4521,6.3952,6.3952,6.4053,6.4228,6.4228,6.4847,6.5885,6.601,6.6377,6.6892,6.7055,6.7096,6.7096,6.7096,6.7096,6.7096,3.6392,3.5968,3.565,3.5155,3.6403,3.8425,4.1351,4.4745,4.8596,0.0,5.4371,0.0,6.1943,0.0,6.4755,0.0,6.8675,6.8046,6.5562,6.2181,0.0,6.1942,5.3468,0.0,0.0,0.0,4.2514,4.0479,3.8296,3.719,3.7116,3.6275,3.7561,4.0764,4.5036,5.1496,5.9386,6.2774,6.607,0.0,0.0,6.8852,0.0,0.0,7.2823,7.176,0.0,7.3298,7.3298,7.3298,7.1644,7.0018,7.2515,6.9902,6.6418,6.8886,6.7841,6.5635,6.427,6.5672,0.0,5.8697,5.7771,0.0,4.9354,0.0,0.0,0.0,0.0,0.0,0.0,0.0,0.0,0.0,0.0,0.0,0.0,0.0,0.0,0.0,0.0,0.0,0.0,0.0,0.0,0.0,0.0,0.0,0.0,7.2602,7.2602,7.2602,7.0189,6.8953,6.9116,6.6223,6.4873,6.4982,6.4454,6.4028,6.3676,6.3475,6.35,6.3701,6.3841,6.464,6.5811,6.6181,6.6624,6.7096,6.7331,6.741,6.7383,6.7174,6.6965,6.6782,3.7601,3.7019,3.6683,3.6804,3.8332,4.0618,4.3848,4.6711,5.0414,0.0,5.7633,6.0238,6.4874,6.7089,6.8704,6.9929,7.1816,7.1577,6.8466,6.6879,0.0,0.0,6.3408,6.2032,6.5981,0.0,0.0,0.0,4.2169,3.9276,3.9419,3.8026,3.8273,3.9917,4.1438,4.7857,5.7678,6.0192,6.6103,7.3691,7.2944,7.3008,7.3531,7.3676,7.2137,7.0372,7.3479,7.4547,7.4518,7.4518,7.4518,7.4518,7.4518,7.4518,7.4518,7.4518,7.4518,7.3734,7.0071,6.9554,6.8687,6.3022,6.1977,0.0,0.0,0.0,5.62,0.0,0.0,0.0,0.0,0.0,0.0,0.0,0.0,0.0,0.0,0.0,0.0,0.0,0.0,0.0,0.0,0.0,0.0,0.0,0.0,0.0,0.0,7.2327,7.2327,7.2566,7.056,6.9194,6.8613,6.6434,6.5083,6.4496,6.3902,6.3676,6.3701,6.3124,6.3199,6.3818,6.4206,6.4964,6.5955,6.6935,6.7286,6.7227,6.7802,6.8037,6.7958,6.7383,6.6834,6.6286,3.8472,3.9193,4.0419,4.1403,4.1594,4.2391,4.4676,4.8536,5.3264,0.0,6.2271,6.5712,7.038,7.1338,7.1787,7.2116,7.2624,0.0,0.0,0.0,0.0,7.2475,6.5533,6.3199,6.667,5.6903,0.0,4.9252,0.0,4.0081,3.9886,3.8938,3.9305,4.0821,4.2158,4.819,5.7494,5.9699,6.5955,7.4362,7.3644,7.2892,7.2369,0.0,7.3734,7.2108,7.3973,7.4547,7.4518,7.4518,7.4518,7.4518,7.4518,7.4518,7.4518,7.4518,7.4518,7.4285,7.3327,7.3182,7.2434,6.8571,6.6625,6.459,0.0,0.0,0.0,0.0,0.0,0.0,0.0,0.0,0.0,0.0,0.0,0.0,0.0,0.0,0.0,0.0,0.0,0.0,0.0,0.0,0.0,0.0,0.0,0.0,7.2269,6.8723,6.8395,7.2479,7.1332,6.9992,6.8586,6.6858,6.5452,6.4496,6.35,6.3475,6.4295,6.3726,6.3977,6.4923,6.5386,6.6152,6.7109,6.7751,6.8117,6.8361,6.8518,6.857,6.857,6.8414,6.8037,6.754,4.0752,4.2402,4.4107,4.4536,4.6501,4.8259,4.9075,5.09,5.4551,6.1104,6.4066,0.0,7.0799,7.2744,7.3762,7.3762,7.3762,0.0,7.1308,0.0,0.0,7.1727,6.9074,6.8721,7.1055,6.2972,0.0,5.454,0.0,4.3748,4.1337,4.0338,4.0309,4.1163,4.2731,4.7521,5.4805,6.1028,6.695,7.2239,7.3471,7.3734,0.0,7.4953,7.4837,7.3966,7.4721,7.5156,7.5359,7.5359,7.5359,7.5359,7.5359,7.5359,7.5359,7.5359,7.5359,7.5359,7.5359,7.5425,7.499,7.3189,7.1911,7.011,6.6335,6.5751,6.5725,0.0,6.398,6.3603,0.0,0.0,0.0,0.0,0.0,0.0,0.0,0.0,0.0,0.0,0.0,0.0,0.0,0.0,0.0,0.0,0.0,0.0,0.0,6.6514,6.7432,7.0693,7.0982,7.0272,6.8624,6.7204,6.581,6.4496,6.3827,6.3877,6.4496,6.422,6.4479,6.5294,6.573,6.6368,6.7093,6.7836,6.8076,6.8089,6.8377,6.8481,6.8466,6.8701,6.844,6.7985,4.3698,4.5852,4.7497,4.6899,5.1618,5.5418,5.5388,5.467,5.6466,6.3018,6.5203,6.7028,6.9393,7.2714,7.4783,7.4783,0.0,7.3432,6.9991,7.3017,7.3376,6.9931,7.3006,7.519,7.6116,7.0238,6.5026,0.0,0.0,4.7934,4.2752,4.1512,4.1018,4.1163,4.3021,4.6934,5.2772,6.3401,6.8625,7.0105,7.3327,7.504,7.5621,7.5534,7.5504,7.5504,7.5417,7.5737,7.6239,7.6239,7.6239,7.6239,7.6239,7.6239,7.6268,7.6355,7.6384,7.6384,7.6471,7.65,7.65,7.65,7.65,7.5483,7.1563,7.0691,7.0691,7.0691,6.7551,6.7028,0.0,0.0,0.0,0.0,0.0,0.0,0.0,0.0,0.0,0.0,0.0,0.0,0.0,0.0,0.0,0.0,0.0,0.0,0.0,0.0,6.7228,6.8981,7.0378,7.0393,6.8825,6.7614,6.6279,6.4831,6.458,6.4614,6.4806,6.4731,6.5007,6.5527,6.5959,6.6372,6.6769,6.7741,6.7802,6.7357,6.7906,6.8089,6.8168,6.8623,6.8492,6.8089,4.5672,4.7886,4.965,4.9538,5.3563,5.7842,6.1044,6.3169,6.5263,6.7657,7.053,7.2505,7.2984,7.3642,7.4061,7.4061,7.4604,0.0,0.0,0.0,0.0,7.3915,7.477,7.5083,7.4669,6.9951,6.4807,0.0,0.0,4.6998,4.1424,4.0641,4.0554,4.1163,4.2557,4.9204,5.9742,6.546,7.072,7.5164,7.5272,7.5708,7.6268,7.5708,7.5504,7.5446,7.4895,7.475,7.4866,7.4866,7.4866,7.4866,7.4866,7.4866,7.4953,7.5504,7.5679,7.5795,7.6355,7.65,7.65,7.65,7.65,7.6297,7.5513,7.5338,7.5338,7.5338,7.4699,7.3334,7.0657,0.0,0.0,0.0,0.0,0.0,0.0,0.0,0.0,0.0,0.0,0.0,0.0,0.0,0.0,0.0,0.0,0.0,0.0,0.0,6.2771,0.0,7.1846,7.1184,0.0,6.8478,6.7298,6.6447,6.5138,6.5167,6.6365,6.5951,6.6229,6.711,6.7599,6.7809,6.796,6.8456,6.8596,6.8492,6.8623,6.8649,6.8675,6.8779,6.8753,6.8649,5.0189,0.0,0.0,0.0,5.8354,6.2331,6.5652,6.8975,7.059,6.9183,7.038,7.1368,7.1368,7.3193,7.4338,7.4147,7.4451,7.4699,7.4902,7.4534,7.433,7.4364,7.411,7.3897,7.3749,7.1402,6.6731,5.97,0.0,4.9892,4.2063,4.1424,4.1105,4.1308,4.6243,5.2078,5.8668,6.5838,7.0488,7.3189,7.4837,7.6085,7.6927,7.6608,7.6491,7.6433,7.6114,7.5795,7.5417,7.475,7.4518,7.4547,7.4518,7.4518,7.4576,7.4895,7.4982,7.5069,7.5359,7.5446,7.5534,7.5882,7.5969,7.6056,7.6413,7.65,7.65,7.65,7.65,7.4932,6.9722,6.4648,0.0,0.0,0.0,0.0,0.0,0.0,0.0,0.0,0.0,0.0,0.0,0.0,0.0,0.0,0.0,0.0,0.0,0.0,6.2211,0.0,0.0,0.0,6.9795,0.0,6.7255,6.6045,6.5791,6.5968,6.6408,6.6687,6.7178,6.7883,6.8119,6.8329,6.8513,6.8722,6.8805,6.8805,6.8805,6.8805,6.8805,6.8805,6.8805,6.8805,0.0,5.5807,0.0,0.0,6.3676,6.6911,6.919,7.2667,7.3863,7.0649,7.0175,7.0117,7.0051,7.2937,7.4722,7.4211,7.4372,7.4563,7.4667,7.4129,7.3823,7.3891,7.3292,7.3041,7.3241,7.2976,6.9119,0.0,0.0,5.3176,4.4407,4.2818,4.2528,4.3631,5.0481,5.5271,5.8755,6.636,7.0279,7.1673,7.4692,7.6521,7.7391,7.7391,7.7333,7.7217,7.7217,7.6907,7.6326,7.5272,7.4953,7.499,7.4924,7.4924,7.4924,7.4924,7.4924,7.4924,7.4924,7.4924,7.5011,7.5417,7.5504,7.565,7.6181,7.6297,7.6326,7.6471,7.65,7.4932,6.9722,6.6418,0.0,0.0,0.0,0.0,0.0,0.0,0.0,0.0,0.0,0.0,0.0,0.0,0.0,0.0,0.0,0.0,6.0769,0.0,0.0,0.0,6.8622,6.8779,6.819,0.0,6.6958,6.5976,6.6518,6.6696,6.65,6.7297,6.7883,6.8329,6.8329,6.8513,6.8805,6.8805,6.8805,6.8805,6.8805,6.8805,6.8805,6.8805,6.8805,6.8805,0.0,0.0,6.2899,6.4994,6.7905,7.029,7.1132,7.3569,7.5124,7.4428,7.4095,7.3771,7.3466,7.4366,7.4577,7.3512,7.4283,7.4573,7.3951,7.3847,7.3812,7.3812,7.401,7.3836,7.3217,7.3457,7.0911,0.0,0.0,5.4512,4.8967,4.4269,4.514,5.0689,5.2633,5.8726,6.7604,6.8504,7.1934,7.6724,7.7072,7.7304,7.7391,7.7391,7.7043,7.6587,7.6587,7.6558,7.6471,7.6355,7.6326,7.6326,7.6326,7.6326,7.6326,7.6326,7.6326,7.6326,7.6326,7.6326,7.6181,7.565,7.5504,7.5534,7.5592,7.5592,7.5766,7.6384,7.65,7.4932,6.9722,7.2224,7.316,0.0,0.0,0.0,0.0,0.0,0.0,0.0,0.0,0.0,0.0,0.0,0.0,0.0,0.0,0.0,0.0,0.0,0.0,6.5357,6.3776,6.3255,6.4137,6.556,6.6881,6.8085,6.7211,6.7222,6.7999,6.8093,6.8371,6.8722,6.8722,6.8764,6.8805,6.8805,6.8805,6.8805,6.8805,6.8805,6.8805,6.8805,6.8805,6.8805,6.3697,6.414,6.5374,6.8719,6.9812,7.106,7.3754,7.5056,7.5715,7.558,7.524,7.5056,7.5123,7.5022,7.4669,7.4013,7.3951,7.3895,7.3826,7.3414,7.3171,7.3206,7.3245,7.2959,7.2326,7.2782,7.0671,0.0,0.0,0.0,5.0801,4.917,5.1381,5.6955,6.1338,6.5141,6.8509,7.234,7.5069,7.6907,7.7246,7.7856,7.8553,7.8553,7.864,7.8756,7.8756,7.8756,7.8756,7.8756,7.7778,7.65,7.65,7.65,7.65,7.65,7.65,7.65,7.65,7.65,7.6529,7.6608,7.6375,7.6122,7.6122,7.6122,7.6056,7.5911,7.6239,7.5861,7.3792,7.2573,7.205,7.2579,0.0,0.0,0.0,0.0,0.0,0.0,0.0,0.0,0.0,0.0,0.0,0.0,0.0,0.0,0.0,0.0,0.0,6.3531,6.5791,6.6646,6.5928,6.6037,6.6542,6.7428,6.7306,6.7587,6.8203,6.8455,6.8638,6.8805,6.8805,6.8805,6.8805,6.8805,6.8805,6.8805,6.8805,6.8805,6.8805,6.8805,6.8805,6.8805,6.8182,6.7879,6.8698,7.2688,7.2734,7.3173,7.5936,7.6578,7.6605,7.6321,7.6104,7.5934,7.5711,7.521,7.4655,7.4074,7.3669,7.3433,7.3438,7.2955,7.2706,7.2741,7.2653,0.0,7.1963,7.2398,7.1237,6.8417,6.3806,5.9771,5.6374,5.53,5.7652,6.2935,6.7289,6.9704,7.072,7.5214,7.7139,7.711,7.7711,7.8611,7.9598,7.9598,7.9888,8.0294,8.0294,8.0294,8.0265,8.0062,7.893,7.7633,7.7633,7.7633,7.7575,7.74,7.7342,7.7284,7.711,7.7081,7.7139,7.7333,7.7072,7.6761,7.6761,7.6761,7.6703,7.6404,7.6442,7.6558,7.6732,7.3618,7.2137,7.5425,0.0,0.0,0.0,0.0,0.0,0.0,0.0,0.0,0.0,0.0,0.0,0.0,0.0,0.0,0.0,0.0,0.0,0.0,0.0,0.0,6.6171,6.6124,6.6412,6.701,6.7349,6.784,6.8413,6.868,6.8805,6.8805,6.8805,6.8805,6.8805,6.8805,6.8805,6.8805,6.8805,6.8805,6.8805,6.8805,6.8805,6.8805,7.2405,7.2922,7.3952,7.7255,7.7592,7.7405,7.7463,7.8047,7.8064,7.702,7.7158,7.6753,7.5087,7.4839,7.4392,7.3304,7.3521,7.3387,7.2673,7.2602,7.2602,7.2602,7.2602,7.2602,7.2602,7.2602,7.3211,7.4401,0.0,6.7119,6.7613,6.247,6.3196,6.8649,6.816,7.1098,7.6384,7.6471,7.7255,7.8436,7.9017,7.9685,8.0294,8.0294,8.0294,8.0294,8.0294,8.0294,8.0207,7.954,7.9743,8.0265,8.0265,8.0265,8.012,7.9452,7.9278,7.9133,7.8553,7.8378,7.8233,7.7566,7.7391,7.7391,7.7391,7.7391,7.7566,7.8233,7.7362,7.6674,7.7275,7.684,7.6006,7.4815,0.0,0.0,0.0,0.0,0.0,0.0,0.0,6.5602,6.9442,0.0,0.0,0.0,0.0,0.0,0.0,0.0,0.0,6.7939,6.4748,0.0,6.297,6.504,6.6583,6.7477,6.7519,6.7941,6.8805,6.8805,6.8805,6.8805,6.8805,6.8805,6.8805,6.8805,6.8805,6.8805,6.8805,6.8805,6.8805,6.8805,6.8805,6.8805,7.5134,7.5575,7.6283,7.8003,7.7653,7.7247,7.7703,7.75,7.7148,7.6799,7.6418,7.5964,7.5442,7.5348,7.5206,7.488,7.4486,7.4161,7.3908,7.3908,7.3908,7.3908,7.3908,7.3908,7.3908,7.3908,7.4111,7.4518,7.0279,6.8538,6.9181,6.7928,6.9989,7.4692,7.4953,7.6085,7.7798,7.8233,7.864,7.9075,7.9714,8.012,8.0294,8.0294,8.0004,7.9685,8.0149,8.0004,7.9656,7.9888,8.012,8.0207,7.9772,7.9917,8.0178,7.9511,7.9627,7.983,7.9191,7.9365,7.9627,7.9423,7.9017,7.8582,7.8175,7.774,7.7449,7.7682,7.7769,7.7566,7.6936,7.6956,7.6956,7.655,7.684,0.0,7.655,0.0,0.0,0.0,0.0,7.3153,0.0,7.2108,0.0,0.0,0.0,0.0,0.0,0.0,0.0,0.0,6.6931,0.0,6.4913,6.6013,6.6882,6.7519,6.784,6.8261,6.8805,6.8805,6.8805,6.8805,6.8805,6.8805,6.8805,6.8805,6.8805,6.8805,6.8805,6.8805,6.8805,6.8805,6.8805,6.8805,7.6995,7.7188,7.7463,7.7775,7.75,7.7266,7.7417,7.745,7.73,7.6712,7.649,7.624,7.5948,7.5912,7.5743,7.5238,7.4773,7.4634,7.4866,7.4895,7.4982,7.5243,7.5243,7.5243,7.5243,7.5243,7.5359,7.5592,7.3211,7.2253,7.266,7.3037,7.4866,7.7798,7.8204,7.8524,7.8756,7.9133,7.9307,7.9365,8.0033,8.0149,7.9946,8.0207,8.0033,7.9743,8.0149,8.0033,7.9685,7.9859,8.0091,8.0178,7.9511,7.9598,7.9801,7.9162,7.9249,7.9511,7.9075,7.9423,7.9917,7.9917,7.9801,7.9569,7.9191,7.8582,7.8175,7.8436,7.8436,7.8233,7.7662,7.7653,7.7769,7.7769,7.7769,7.7769,7.7769,0.0,7.6927,0.0,0.0,0.0,0.0,7.3443,7.2427,0.0,0.0,0.0,0.0,0.0,6.9693,6.8073,7.0164,7.026,6.8159,6.7264,6.7137,6.7756,6.8219,6.8555,6.8805,6.8805,6.8805,6.8805,6.8805,6.8805,6.8805,6.8805,6.8805,6.8805,6.8805,6.8805,6.8805,6.8805,6.8805,6.8805,7.8022,7.7919,7.7677,7.6974,7.7341,7.7485,7.6852,7.7868,7.8206,7.6849,7.7247,7.74,7.672,7.6616,7.6151,7.4895,7.4692,7.4924,7.5534,7.5621,7.5911,7.6529,7.6616,7.6616,7.6616,7.6616,7.6907,7.7391,7.7391,7.7391,7.7333,7.742,7.7798,7.8407,7.8494,7.8814,7.9307,7.9307,7.9278,7.9307,7.9975,7.9859,7.9365,8.0033,8.0265,8.0236,8.0265,8.0265,8.0149,7.9569,7.9772,8.0178,7.9511,7.9307,7.9191,7.8582,7.8407,7.8407,7.8349,7.8785,7.9249,7.9249,7.9743,8.0236,8.0294,7.983,7.954,8.012,7.9336,7.8669,7.9075,7.8756,7.8407,7.8407,7.8407,7.8407,7.8465,7.8465,7.6666,7.1783,0.0,0.0,7.1144,7.1144,7.324,0.0,0.0,0.0,0.0,0.0,6.9216,7.7617,7.3634,7.1404,7.1632,6.8451,6.7333,6.8245,6.8597,6.8805,6.8805,6.8805,6.8805,6.8805,6.8805,6.8805,6.8805,6.8805,6.8805,6.8805,6.8805,6.8805,6.8805,6.8805,6.8805,6.8805,7.7845,7.781,7.7924,7.8256,7.7538,7.6986,7.7348,7.757,7.7591,7.7258,7.7773,7.8134,7.7981,7.7943,7.7827,7.7507,7.6579,7.6093,7.6268,7.6695,7.7014,7.7159,7.7682,7.7943,7.7943,7.7943,7.7769,7.7391,7.7391,7.7159,7.6732,7.7711,7.8262,7.8436,7.9423,7.9656,7.9307,7.9307,7.9017,7.8669,7.9278,7.9452,7.9365,8.0033,7.9975,7.9598,8.012,7.9975,7.9598,7.9946,8.0178,8.0178,7.9511,7.9307,7.9191,7.8582,7.8407,7.8291,7.7769,7.8117,7.8611,7.8611,7.9075,7.9656,8.0178,8.0178,7.9975,7.9598,7.9685,7.9452,7.8088,7.8146,7.8407,7.8407,7.8407,7.8553,7.9017,7.9075,7.8465,7.6782,7.6143,7.5824,7.5824,7.5824,7.4576,0.0,0.0,7.2048,7.1841,6.9406,6.9509,7.2865,7.1889,7.0257,6.8058,6.7578,6.7772,6.8638,6.8764,6.8805,6.8805,6.8805,6.8805,6.8805,6.8805,6.8805,6.8805,6.8805,6.8805,6.8805,6.8805,6.8805,6.8805,6.8805,6.8805,6.8805,7.7783,7.771,7.772,7.7748,7.7071,7.6688,7.701,7.7054,7.6985,7.6985,7.7537,7.7943,7.7943,7.8233,7.8407,7.8407,7.7769,7.7371,7.7371,7.7914,7.8146,7.7885,7.8465,7.8669,7.8407,7.8407,7.8059,7.7391,7.7391,7.7391,7.74,7.7769,7.8262,7.8843,7.9249,7.922,7.8901,7.8901,7.8698,7.8465,7.9046,7.9307,7.9365,8.0033,8.0062,7.9801,8.0178,8.0062,7.9801,8.0178,8.0294,8.0236,7.9859,7.954,7.9249,7.8901,7.8611,7.832,7.7972,7.8117,7.8407,7.8407,7.864,7.8988,7.9365,7.9423,7.9336,7.8959,7.9394,7.9511,7.8465,7.8814,7.9162,7.8872,7.8582,7.8611,7.922,7.9075,7.8872,7.8814,7.8494,7.803,7.7449,7.7391,7.6114,7.2979,7.3094,7.3309,7.3262,7.2225,7.1996,7.288,7.2089,7.0542,6.8351,6.8193,6.8345,6.8805,6.8805,6.8805,6.8805,6.8805,6.8805,6.8805,6.8805,6.8805,6.8805,6.8805,6.8805,6.8805,6.8805,6.8805,6.8805,6.8805,6.8805,6.8805,7.7586,7.7439,7.7217,7.6612,7.65,7.65,7.65,7.6674,7.679,7.679,7.7391,7.7827,7.7827,7.8349,7.8698,7.8698,7.8698,7.8611,7.8407,7.8959,7.9075,7.8553,7.9133,7.922,7.8698,7.8698,7.8349,7.7682,7.7682,7.7943,7.8407,7.7827,7.8117,7.9133,7.864,7.8349,7.8262,7.8349,7.8349,7.832,7.9017,7.9307,7.9365,8.0033,8.0294,8.0294,8.0294,8.0294,8.0294,8.0294,8.0294,8.0294,8.0294,7.9917,7.9452,7.9452,7.9075,7.864,7.8465,7.8407,7.8436,7.8524,7.8465,7.8436,7.8524,7.8465,7.8407,7.8407,7.8814,7.9133,7.9017,7.9481,7.9511,7.8465,7.8349,7.8407,7.8436,7.8494,7.8698,7.9104,7.9075,7.864,7.7653,7.7449,7.7391,7.7391,7.7391,7.7248,7.6904,7.547,7.4395,7.392,7.2427,7.1015,6.9845,6.9154,6.8805,6.8805,6.8805,6.8805,6.8805,6.8805,6.8805,6.8805,6.8805,6.8805,6.8805,6.8805,6.8805,6.8805,6.8805,6.8805,6.8805,6.8805,6.8805,6.8805,7.6725,7.6687,7.665,7.6538,7.65,7.65,7.65,7.7391,7.8117,7.8117,7.9133,7.9859,7.9859,7.9946,8.0004,8.0004,8.0004,7.954,7.8465,7.8959,7.9249,7.9162,7.9801,8.0091,8.0004,8.0004,7.9685,7.9017,7.9017,7.8785,7.8407,7.8291,7.8349,7.8553,7.8436,7.8088,7.7595,7.8175,7.8088,7.7653,7.8843,7.9307,7.9365,8.0033,8.0294,8.0294,8.0294,8.0294,8.0294,8.0294,8.0294,8.0294,8.0294,8.0236,8.0149,8.0149,8.0091,7.9772,7.8698,7.8407,7.8524,7.9017,7.8785,7.8524,7.9046,7.8785,7.8407,7.8407,7.8465,7.8378,7.7798,7.7769,7.6927,7.4111,7.6317,7.7478,7.4866,7.7188,7.9017,7.8582,7.803,7.7827,7.8204,7.774,7.7391,7.7391,7.7391,7.6521,7.4575,7.4169,7.2687,6.9733,6.9736,6.9365,6.8513,6.868,6.8805,6.8805,6.8805,6.8805,6.8805,6.8805,6.8805,6.8805,6.8805,6.8805,6.8805,6.8805,6.8805,6.8805,6.8805,6.8805,6.8805,6.8805,6.8805,6.8805,7.65,7.65,7.65,7.65,7.679,7.6956,7.6956,7.7798,7.8407,7.8407,7.9191,7.9772,7.9772,8.0091,8.0294,8.0294,8.0294,8.0062,7.9452,7.9685,7.954,7.8843,7.9423,7.9598,7.9278,7.9278,7.9133,7.8814,7.8814,7.8843,7.8872,7.8553,7.8582,7.8872,7.8553,7.8233,7.7972,7.8262,7.8407,7.8465,7.9075,7.9511,7.9859,8.0178,8.0294,8.0294,8.0294,8.0294,8.0294,8.0294,8.0294,8.0294,8.0294,8.0294,8.0294,8.0294,8.0294,8.0091,7.9133,7.8872,7.8872,7.8843,7.8611,7.8465,7.8756,7.8611,7.8291,7.7943,7.8146,7.8204,7.7537,7.7711,7.7449,7.5969,7.6637,7.7188,7.6753,7.7595,7.8436,7.8843,7.8611,7.8291,7.7914,7.7595,7.7275,7.6927,7.6042,7.5064,7.395,7.2125,7.0352,6.8732,6.8492,6.8335,6.8203,6.8597,6.8805,6.8805,6.8805,6.8805,6.8805,6.8805,6.8805,6.8805,6.8805,6.8805,6.8805,6.8805,6.8805,6.8805,6.8805,6.8805,6.8805,6.8805,6.8805,6.8805,7.6674,7.6703,7.6761,7.6907,7.7304,7.7624,7.7624,7.8204,7.8611,7.8611,7.9162,7.954,7.954,7.9975,8.0294,8.0294,8.0294,8.0294,8.0294,8.0294,7.9859,7.8872,7.9278,7.9307,7.8843,7.8843,7.8843,7.8843,7.8843,7.9075,7.9511,7.8901,7.8872,7.9278,7.8669,7.8407,7.8407,7.8553,7.8872,7.9307,7.9481,7.983,8.0294,8.0294,8.0294,8.0294,8.0294,8.0294,8.0294,8.0294,8.0294,8.0294,8.0294,8.0294,8.0294,8.0294,8.0294,8.0178,7.9685,7.954,7.9423,7.8959,7.8727,7.8611,7.8611,7.8494,7.8262,7.774,7.7914,7.8001,7.7507,7.7711,7.7769,7.7159,7.6985,7.7197,7.7885,7.7914,7.8146,7.8988,7.9075,7.8698,7.774,7.7624,7.7362,7.6761,7.5095,7.3857,7.3298,7.0352,6.8644,6.8465,6.784,6.7756,6.8203,6.8597,6.8805,6.8805,6.8805,6.8805,6.8805,6.8805,6.8805,6.8805,6.8805,6.8805,6.8805,6.8805,6.8805,6.8805,6.8805,6.8805,6.8805,6.8805,6.8805,6.8805,7.7217,7.7333,7.7537,7.8146,7.8291,7.832,7.832,7.8843,7.922,7.922,7.9801,8.0236,8.0236,8.0265,8.0294,8.0294,8.0294,8.0294,8.0294,8.0294,8.0265,8.0149,8.0207,8.0207,8.0149,8.0149,8.0149,8.0149,8.0149,8.0178,8.0207,7.954,7.9249,7.9278,7.8669,7.8407,7.8436,7.8988,7.9249,7.9365,7.9975,8.0265,8.0294,8.0294,8.0294,8.0294,8.0294,8.0294,8.0294,8.0294,8.0294,8.0294,8.0294,8.0294,8.0294,8.0294,8.0294,8.0294,8.0236,8.0236,8.0207,8.0178,7.9685,7.922,7.922,7.8814,7.8407,7.8349,7.7885,7.7449,7.742,7.6956,7.5861,7.3443,7.5969,7.7275,7.443,7.6985,7.8988,7.8524,7.8465,7.8436,7.8349,7.832,7.8059,7.7391,7.5749,7.3765,7.1592,6.9698,6.8391,6.7799,6.7588,6.7756,6.8203,6.8597,6.8805,6.8805,6.8805,6.8805,6.8805,6.8805,6.8805,6.8805,6.8805,6.8805,6.8805,6.8805,6.8805,6.8805,6.8805,6.8805,6.8805,6.8805,6.8805,6.8805,7.7972,7.803,7.8117,7.8349,7.8727,7.8959,7.8959,7.9511,7.9917,7.9917,8.0149,8.0294,8.0294,8.0294,8.0294,8.0294,8.0294,8.0294,8.0294,8.0294,8.0294,8.0294,8.0294,8.0294,8.0294,8.0294,8.0294,8.0294,8.0294,8.0294,8.0294,8.0033,7.9917,7.9917,7.9685,7.9569,7.9598,7.983,7.9917,7.9946,8.0207,8.0294,8.0294,8.0294,8.0294,8.0294,8.0294,8.0294,8.0294,8.0294,8.0294,8.0294,8.0294,8.0294,8.0294,8.0294,8.0294,8.0294,8.0294,8.0294,8.0294,8.0294,8.012,7.9917,7.9917,7.9743,7.9452,7.9046,7.8756,7.8349,7.7566,7.7537,7.7217,7.5824,7.6811,7.7507,7.6695,7.7827,7.8785,7.893,7.9336,7.9423,7.8988,7.762,7.6518,7.5863,7.2794,7.0634,6.9724,6.8663,6.8117,6.821,6.8698,6.8887,6.8695,6.8779,6.8805,6.8805,6.8805,6.8805,6.8805,6.8805,6.8805,6.8805,6.8805,6.8805,6.8805,6.8805,6.8805,6.8805,6.8805,6.8805,6.8805,6.8805,6.8805,6.8805,7.864,7.8669,7.8756,7.8959,7.9336,7.9598,7.9598,8.0004,8.0294,8.0294,8.0294,8.0294,8.0294,8.0294,8.0294,8.0294,8.0294,8.0294,8.0294,8.0294,8.0294,8.0294,8.0294,8.0294,8.0294,8.0294,8.0294,8.0294,8.0294,8.0294,8.0294,8.0294,8.0294,8.0294,8.0294,8.0294,8.0294,8.0294,8.0294,8.0294,8.0294,8.0294,8.0294,8.0294,8.0294,8.0294,8.0294,8.0294,8.0294,8.0294,8.0294,8.0294,8.0294,8.0294,8.0294,8.0294,8.0294,8.0294,8.0294,8.0294,8.0294,8.0294,8.0294,8.0294,8.0294,8.0294,8.0178,7.9714,7.9452,7.9017,7.8175,7.8233,7.832,7.803,7.8001,7.8175,7.8611,7.8669,7.8785,7.8988,7.9423,7.9228,7.8027,7.6413,7.4967,7.3809,7.0754,6.8847,6.8634,6.8484,6.8649,6.9232,6.9971,7.0179,6.9763,6.9515,6.9249,6.9067,6.9067,6.8962,6.8805,6.8805,6.8805,6.8805,6.8805,6.8805,6.8805,6.8805,6.8805,6.8805,6.8805,6.8805,6.8805,6.8805,6.8805,6.8805,7.9191,7.9307,7.9511,8.0178,8.0294,8.0294,8.0294,8.0294,8.0294,8.0294,8.0294,8.0294,8.0294,8.0294,8.0294,8.0294,8.0294,8.0294,8.0294,8.0294,8.0294,8.0294,8.0294,8.0294,8.0294,8.0294,8.0294,8.0294,8.0294,8.0294,8.0294,8.0294,8.0294,8.0294,8.0294,8.0294,8.0294,8.0294,8.0294,8.0294,8.0294,8.0294,8.0294,8.0294,8.0294,8.0294,8.0294,8.0294,8.0294,8.0294,8.0294,8.0294,8.0294,8.0294,8.0294,8.0294,8.0294,8.0294,8.0294,8.0294,8.0294,8.0294,8.0294,8.0294,8.0294,8.0294,8.0294,8.0294,7.9772,7.9307,7.9307,7.8814,7.8611,7.9191,7.9307,7.9307,7.9278,7.9307,7.9075,7.8494,7.8407,7.7462,7.5042,7.48,7.3809,7.1459,7.0172,6.9203,6.8558,6.9487,7.0277,7.0783,7.1192,7.1409,7.1409,7.086,7.0285,6.971,6.971,6.9396,6.8805,6.8805,6.8805,6.8805,6.8805,6.8805,6.8805,6.8805,6.8805,6.8805,6.8805,6.8805,6.8805,6.8805,6.8805,6.8805,7.9975,8.0004,8.0062,8.0265,8.0294,8.0294,8.0294,8.0294,8.0294,8.0294,8.0294,8.0294,8.0294,8.0294,8.0294,8.0294,8.0294,8.0294,8.0294,8.0294,8.0294,8.0294,8.0294,8.0294,8.0294,8.0294,8.0294,8.0294,8.0294,8.0294,8.0294,8.0294,8.0294,8.0294,8.0294,8.0294,8.0294,8.0294,8.0294,8.0294,8.0294,8.0294,8.0294,8.0294,8.0294,8.0294,8.0294,8.0294,8.0294,8.0294,8.0294,8.0294,8.0294,8.0294,8.0294,8.0294,8.0294,8.0294,8.0294,8.0294,8.0294,8.0294,8.0294,8.0294,8.0294,8.0294,8.0294,8.0294,8.0149,7.9859,7.9394,7.954,7.9511,7.8785,7.9017,7.9162,7.8727,7.9017,7.922,7.9046,7.8304,7.7557,7.6848,7.3732,7.1465,7.0804,6.9185,6.8646,6.9531,7.0174,7.0833,7.1353,7.1817,7.2036,7.2036,7.1069,7.0494,7.0337,7.0337,7.0023,6.9448,6.9893,6.9589,6.8832,6.9265,6.9171,6.8805,6.8805,6.8805,6.8805,6.8805,6.8805,6.8805,6.8805,6.8805,6.8805,8.0294,8.0294,8.0294,8.0294,8.0294,8.0294,8.0294,8.0294,8.0294,8.0294,8.0294,8.0294,8.0294,8.0294,8.0294,8.0294,8.0294,8.0294,8.0294,8.0294,8.0294,8.0294,8.0294,8.0294,8.0294,8.0294,8.0294,8.0294,8.0294,8.0294,8.0294,8.0294,8.0294,8.0294,8.0294,8.0294,8.0294,8.0294,8.0294,8.0294,8.0294,8.0294,8.0294,8.0294,8.0294,8.0294,8.0294,8.0294,8.0294,8.0294,8.0294,8.0294,8.0294,8.0294,8.0294,8.0294,8.0294,8.0294,8.0294,8.0294,8.0294,8.0294,8.0294,8.0294,8.0294,8.0294,8.0294,8.0294,8.0294,8.0178,7.9772,8.0033,8.0033,7.9278,7.9452,7.9218,7.7889,7.8011,7.7878,7.6918,7.6194,7.5406,7.4499,7.1781,6.9993,6.9739,6.886,6.8994,7.0534,7.0919,7.1363,7.1832,7.2166,7.2297,7.2297,7.1618,7.1147,7.0912,7.0912,7.0598,7.0076,7.0442,7.0206,6.9511,6.9893,6.971,6.9145,6.9145,6.9014,6.8805,6.8805,6.8805,6.8805,6.8805,6.8805,6.8805,8.0294,8.0294,8.0294,8.0294,8.0294,8.0294,8.0294,8.0294,8.0294,8.0294,8.0294,8.0294,8.0294,8.0294,8.0294,8.0294,8.0294,8.0294,8.0294,8.0294,8.0294,8.0294,8.0294,8.0294,8.0294,8.0294,8.0294,8.0294,8.0294,8.0294,8.0294,8.0294,8.0323,8.0381,8.0381,8.041,8.0468,8.041,8.0381,8.0381,8.0323,8.0294,8.0294,8.0294,8.0294,8.0294,8.0294,8.0294,8.0294,8.0294,8.0294,8.0294,8.0294,8.0294,8.0294,8.0294,8.0294,8.0294,8.0294,8.0294,8.0294,8.0294,8.0294,8.0294,8.0294,8.0294,8.0294,8.0294,8.0294,8.0294,8.0294,8.0294,8.0255,8.0097,8.0057,7.9202,7.6795,7.644,7.5635,7.3443,7.3016,7.2093,6.9967,6.9524,6.9205,6.8653,6.9053,6.995,7.156,7.1682,7.1858,7.2297,7.2297,7.2297,7.2297,7.2297,7.201,7.1487,7.1487,7.12,7.0677,7.0729,7.0703,7.0598,7.0651,7.0337,6.9762,6.971,6.9396,6.8884,6.8832,6.8805,6.8805,6.8805,6.8805,6.8805,8.0294,8.0294,8.0294,8.0294,8.0294,8.0294,8.0294,8.0294,8.0294,8.0294,8.0294,8.0294,8.0294,8.0294,8.0294,8.0294,8.0294,8.0294,8.0294,8.0294,8.0294,8.0294,8.0294,8.0294,8.0294,8.0294,8.0294,8.0294,8.0294,8.0294,8.0294,8.0294,8.0556,8.0991,8.0991,8.1281,8.1746,8.1223,8.0991,8.0962,8.0497,8.0294,8.0294,8.0294,8.0294,8.0294,8.0294,8.0294,8.0294,8.0294,8.0294,8.0294,8.0294,8.0294,8.0294,8.0294,8.0294,8.0294,8.0294,8.0294,8.0294,8.0294,8.0294,8.0294,8.0294,8.0294,8.0294,8.0294,8.0294,8.0294,8.0294,8.0294,7.983,7.8423,7.818,7.7485,7.5515,7.5264,7.5084,7.4555,7.3214,7.2156,7.1635,6.9878,6.9022,6.9633,6.9765,7.0511,7.2096,7.2166,7.221,7.2297,7.2297,7.2297,7.2297,7.2297,7.2245,7.2114,7.2114,7.1801,7.1252,7.1722,7.1435,7.0624,7.1043,7.0912,7.0363,6.9893,6.9631,6.9474,6.8962,6.8805,6.8805,6.8805,6.8805,6.8858,8.0294,8.0294,8.0294,8.0294,8.0294,8.0294,8.0294,8.0294,8.0294,8.0294,8.0294,8.0294,8.0294,8.0294,8.0294,8.0294,8.0294,8.0294,8.0294,8.0294,8.0294,8.0294,8.0294,8.0294,8.0294,8.0294,8.0294,8.0294,8.0294,8.0294,8.0294,8.0294,8.0468,8.0759,8.0759,8.0962,8.1281,8.0904,8.0759,8.073,8.0439,8.0294,8.0294,8.0294,8.0294,8.0294,8.0294,8.0294,8.0294,8.0294,8.0294,8.0294,8.0294,8.0294,8.0294,8.0294,8.0294,8.0294,8.0294,8.0294,8.0294,8.0294,8.0294,8.0294,8.0294,8.0294,8.0294,8.0294,8.0294,8.0028,7.9164,7.9015,7.8423,7.6608,7.6318,7.5665,7.3844,7.3587,7.3269,7.2359,7.1446,7.0769,7.0512,6.9497,6.9205,6.9918,7.0426,7.1147,7.2227,7.2297,7.2297,7.2297,7.2297,7.2297,7.2297,7.2297,7.2297,7.2297,7.2297,7.214,7.1853,7.2167,7.1984,7.1435,7.1696,7.1513,7.0964,7.0651,7.0363,7.0102,6.9788,6.9458,6.9249,6.9537,6.9641,6.971,8.0294,8.0294,8.0294,8.0294,8.0294,8.0294,8.0294,8.0294,8.0294,8.0294,8.0294,8.0294,8.0294,8.0294,8.0294,8.0294,8.0294,8.0294,8.0294,8.0294,8.0294,8.0294,8.0294,8.0294,8.0294,8.0294,8.0294,8.0294,8.0294,8.0294,8.0294,8.0294,8.0352,8.0439,8.0439,8.0527,8.0614,8.0497,8.0439,8.0439,8.0352,8.0294,8.0294,8.0294,8.0294,8.0294,8.0294,8.0294,8.0294,8.0294,8.0294,8.0323,8.041,8.0439,8.0468,8.0585,8.0527,8.0439,8.0439,8.0381,8.0294,8.0294,8.0097,7.983,7.983,8.0097,8.0215,7.991,7.983,7.9284,7.7459,7.7144,7.6567,7.4739,7.4442,7.3802,7.1992,7.1728,7.1137,6.9561,6.9406,6.9275,6.8888,6.9187,6.9611,7.0248,7.0974,7.1688,7.2271,7.2297,7.2297,7.2297,7.2297,7.2297,7.2297,7.2297,7.2297,7.2297,7.2297,7.2297,7.2297,7.2297,7.2297,7.2297,7.2297,7.201,7.1539,7.1435,7.1147,7.0729,7.0624,7.0285,6.9919,7.0415,7.0651,7.0729,8.0294,8.0294,8.0294,8.0294,8.0294,8.0294,8.0294,8.0294,8.0294,8.0294,8.0294,8.0294,8.0294,8.0294,8.0294,8.0294,8.0294,8.0294,8.0294,8.0294,8.0294,8.0294,8.0294,8.0294,8.0294,8.0294,8.0294,8.0294,8.0294,8.0294,8.0294,8.0294,8.0585,8.1078,8.1078,8.1397,8.1891,8.131,8.1078,8.102,8.0497,8.0294,8.0294,8.0294,8.0294,8.0294,8.0294,8.0294,8.0294,8.0294,8.0294,8.0381,8.0904,8.1078,8.1194,8.1775,8.1514,8.1078,8.1078,8.0701,8.0294,8.0294,7.9095,7.7977,7.7977,7.9204,7.987,7.8301,7.7977,7.7418,7.5581,7.5245,7.4654,7.288,7.2576,7.1904,7.003,6.9786,6.9696,6.9451,6.9406,6.9536,6.9954,7.0012,7.0458,7.1332,7.1508,7.178,7.2254,7.2297,7.2297,7.2297,7.2297,7.2297,7.2297,7.2297,7.2297,7.2297,7.2297,7.2297,7.2297,7.2297,7.2297,7.2297,7.2297,7.2245,7.214,7.1618,7.1356,7.1252,7.0781,7.0546,7.0494,7.0572,7.0886,7.1304,8.0294,8.0294,8.0294,8.0294,8.0294,8.0294,8.0294,8.0294,8.0294,8.0294,8.0294,8.0294,8.0294,8.0294,8.0294,8.0294,8.0294,8.0294,8.0294,8.0294,8.0294,8.0294,8.0294,8.0294,8.0294,8.0294,8.0468,8.0788,8.0788,8.0991,8.1368,8.1368,8.131,8.1194,8.1194,8.1165,8.1107,8.0817,8.0701,8.0672,8.041,8.0294,8.0294,8.0294,8.0294,8.0294,8.0294,8.0294,8.0294,8.0294,8.0294,8.0352,8.0614,8.0933,8.1052,8.0273,7.9914,7.9454,7.844,7.8469,7.8572,7.7541,7.7459,7.7336,7.6318,7.6691,7.7062,7.6276,7.6082,7.5539,7.3716,7.3372,7.2794,7.0941,7.063,7.0344,6.9541,6.9406,6.9406,6.9406,6.9676,6.9921,7.019,7.0681,7.1126,7.1594,7.1858,7.2078,7.2297,7.2297,7.2297,7.2297,7.2297,7.2297,7.2297,7.2297,7.2297,7.2297,7.2297,7.2297,7.2297,7.2297,7.2297,7.2297,7.2297,7.2297,7.2271,7.201,7.1905,7.1879,7.1644,7.1539,7.1513,7.1173,7.1409,7.1905]},{"header":{"parameterUnit":"m.s-1","parameterCategory":1,"la1":30.6,"la2":28.766,"lo1":-90.7593,"lo2":-88.6598,"dx":0.0162,"dy":0.0183,"nx":116,"ny":114,"refTime":"2022-11-19T18:00:00:Z","depth":0,"parameterNumber":3,"parameterNumberName":"V-component_of_WINDS"},"data":[0.0,0.0,0.0,0.0,0.0,0.0,0.0,0.0,0.0,0.0,0.0,0.0,0.0,0.0,0.0,0.0,0.0,0.0,0.0,0.0,0.0,0.0,0.0,0.0,0.0,0.0,0.0,0.0,0.0,0.0,0.0,0.0,0.0,0.0,0.0,0.0,0.0,0.0,0.0,0.0,0.0,0.0,0.0,0.0,0.0,0.0,0.0,0.0,0.0,0.0,0.0,0.0,0.0,0.0,0.0,0.0,0.0,0.0,0.0,0.0,0.0,0.0,0.0,0.0,0.0,0.0,0.0,0.0,0.0,0.0,0.0,0.0,0.0,0.0,0.0,0.0,0.0,0.0,0.0,0.0,0.0,0.0,0.0,0.0,0.0,0.0,0.0,0.0,0.0,0.0,0.0,0.0,0.0,0.0,0.0,0.0,0.0,0.0,0.0,0.0,0.0,0.0,0.0,0.0,0.0,0.0,0.0,0.0,0.0,0.0,0.0,0.0,0.0,0.0,0.0,0.0,0.0,0.0,0.0,0.0,0.0,0.0,0.0,0.0,0.0,0.0,0.0,0.0,0.0,0.0,0.0,0.0,0.0,0.0,0.0,0.0,0.0,0.0,0.0,0.0,0.0,0.0,0.0,0.0,0.0,0.0,0.0,0.0,0.0,0.0,0.0,0.0,0.0,0.0,0.0,0.0,0.0,0.0,0.0,0.0,0.0,0.0,0.0,0.0,0.0,0.0,0.0,0.0,0.0,0.0,0.0,0.0,0.0,0.0,0.0,0.0,0.0,0.0,0.0,0.0,0.0,0.0,0.0,0.0,0.0,0.0,0.0,0.0,0.0,0.0,0.0,0.0,0.0,0.0,0.0,0.0,0.0,0.0,0.0,0.0,0.0,0.0,0.0,0.0,0.0,0.0,0.0,0.0,0.0,0.0,0.0,0.0,0.0,0.0,0.0,0.0,0.0,0.0,0.0,0.0,0.0,0.0,0.0,0.0,0.0,0.0,0.0,0.0,0.0,0.0,0.0,0.0,0.0,0.0,0.0,0.0,0.0,0.0,0.0,0.0,0.0,0.0,0.0,0.0,0.0,0.0,0.0,0.0,0.0,0.0,0.0,0.0,0.0,0.0,0.0,0.0,0.0,0.0,0.0,0.0,0.0,0.0,0.0,0.0,0.0,0.0,0.0,0.0,0.0,0.0,0.0,0.0,0.0,0.0,0.0,0.0,0.0,0.0,0.0,0.0,0.0,0.0,0.0,0.0,0.0,0.0,0.0,0.0,0.0,0.0,0.0,0.0,0.0,0.0,0.0,0.0,0.0,0.0,0.0,0.0,0.0,0.0,0.0,0.0,0.0,0.0,0.0,0.0,0.0,0.0,0.0,0.0,0.0,0.0,0.0,0.0,0.0,0.0,0.0,0.0,0.0,0.0,0.0,0.0,0.0,0.0,0.0,0.0,0.0,0.0,0.0,0.0,0.0,0.0,0.0,0.0,0.0,0.0,0.0,0.0,0.0,0.0,0.0,0.0,0.0,0.0,0.0,0.0,0.0,0.0,0.0,0.0,0.0,0.0,0.0,0.0,0.0,0.0,0.0,0.0,0.0,0.0,0.0,0.0,0.0,0.0,0.0,0.0,0.0,0.0,0.0,0.0,0.0,0.0,0.0,0.0,0.0,0.0,0.0,0.0,0.0,0.0,0.0,0.0,0.0,0.0,0.0,0.0,0.0,0.0,0.0,0.0,0.0,0.0,0.0,0.0,0.0,0.0,0.0,0.0,0.0,0.0,0.0,0.0,0.0,0.0,0.0,0.0,0.0,0.0,0.0,0.0,0.0,0.0,0.0,0.0,0.0,0.0,0.0,0.0,0.0,0.0,0.0,0.0,0.0,0.0,0.0,0.0,0.0,0.0,0.0,0.0,0.0,0.0,0.0,0.0,0.0,0.0,0.0,0.0,0.0,0.0,0.0,0.0,0.0,0.0,0.0,0.0,0.0,0.0,0.0,0.0,0.0,0.0,0.0,0.0,0.0,0.0,0.0,0.0,0.0,0.0,0.0,0.0,0.0,0.0,0.0,0.0,0.0,0.0,0.0,0.0,0.0,0.0,0.0,0.0,0.0,0.0,0.0,0.0,0.0,0.0,0.0,0.0,0.0,0.0,0.0,0.0,0.0,0.0,0.0,0.0,0.0,0.0,0.0,0.0,0.0,0.0,0.0,0.0,0.0,0.0,0.0,0.0,0.0,0.0,0.0,0.0,0.0,0.0,0.0,0.0,0.0,0.0,0.0,0.0,0.0,0.0,0.0,0.0,0.0,0.0,0.0,0.0,0.0,0.0,0.0,0.0,0.0,0.0,0.0,0.0,0.0,0.0,0.0,0.0,0.0,0.0,0.0,0.0,0.0,0.0,0.0,0.0,0.0,0.0,0.0,0.0,0.0,0.0,0.0,0.0,0.0,0.0,0.0,0.0,0.0,0.0,0.0,0.0,0.0,0.0,0.0,0.0,0.0,0.0,0.0,0.0,0.0,0.0,0.0,0.0,0.0,0.0,0.0,0.0,0.0,0.0,0.0,0.0,0.0,0.0,0.0,0.0,0.0,0.0,0.0,0.0,0.0,0.0,0.0,0.0,0.0,0.0,0.0,0.0,0.0,0.0,0.0,0.0,0.0,0.0,0.0,0.0,0.0,0.0,0.0,0.0,0.0,0.0,0.0,0.0,0.0,0.0,0.0,0.0,0.0,0.0,0.0,0.0,0.0,0.0,0.0,0.0,0.0,0.0,0.0,0.0,0.0,0.0,0.0,0.0,0.0,0.0,0.0,0.0,0.0,0.0,0.0,0.0,0.0,0.0,0.0,0.0,0.0,0.0,0.0,0.0,0.0,0.0,0.0,0.0,0.0,0.0,0.0,0.0,0.0,0.0,0.0,0.0,0.0,0.0,0.0,0.0,0.0,0.0,0.0,0.0,0.0,0.0,0.0,0.0,0.0,0.0,0.0,0.0,0.0,0.0,0.0,0.0,0.0,0.0,0.0,0.0,0.0,0.0,0.0,0.0,0.0,0.0,0.0,0.0,0.0,0.0,0.0,0.0,0.0,0.0,0.0,0.0,0.0,0.0,0.0,0.0,0.0,0.0,0.0,0.0,0.0,0.0,0.0,0.0,0.0,0.0,0.0,0.0,0.0,0.0,0.0,0.0,0.0,0.0,0.0,0.0,0.0,0.0,0.0,0.0,0.0,0.0,0.0,0.0,0.0,0.0,0.0,0.0,0.0,0.0,0.0,0.0,0.0,0.0,0.0,0.0,0.0,0.0,0.0,0.0,0.0,0.0,0.0,0.0,0.0,0.0,0.0,0.0,0.0,0.0,0.0,0.0,0.0,0.0,0.0,0.0,0.0,0.0,0.0,0.0,0.0,0.0,0.0,0.0,0.0,0.0,0.0,0.0,0.0,0.0,0.0,0.0,0.0,0.0,0.0,0.0,0.0,0.0,0.0,0.0,0.0,0.0,0.0,0.0,0.0,0.0,0.0,0.0,0.0,0.0,0.0,0.0,0.0,0.0,0.0,0.0,0.0,0.0,0.0,0.0,0.0,0.0,0.0,0.0,0.0,0.0,0.0,0.0,0.0,0.0,0.0,0.0,0.0,0.0,0.0,0.0,0.0,0.0,0.0,0.0,0.0,0.0,0.0,0.0,0.0,0.0,0.0,0.0,0.0,0.0,0.0,0.0,0.0,0.0,0.0,0.0,0.0,0.0,0.0,0.0,0.0,0.0,0.0,0.0,0.0,0.0,0.0,0.0,0.0,0.0,0.0,0.0,0.0,0.0,0.0,0.0,0.0,0.0,0.0,0.0,0.0,0.0,0.0,0.0,0.0,0.0,0.0,0.0,0.0,0.0,0.0,0.0,0.0,0.0,0.0,0.0,0.0,0.0,0.0,0.0,0.0,0.0,0.0,0.0,0.0,0.0,0.0,0.0,0.0,0.0,0.0,0.0,0.0,0.0,0.0,0.0,0.0,0.0,0.0,0.0,0.0,0.0,0.0,0.0,0.0,0.0,0.0,0.0,0.0,0.0,0.0,0.0,0.0,0.0,0.0,0.0,0.0,0.0,0.0,0.0,0.0,0.0,0.0,0.0,0.0,0.0,0.0,0.0,0.0,0.0,0.0,0.0,0.0,0.0,0.0,0.0,0.0,0.0,0.0,0.0,0.0,0.0,0.0,0.0,0.0,0.0,0.0,0.0,0.0,0.0,0.0,0.0,0.0,0.0,0.0,0.0,0.0,0.0,0.0,0.0,0.0,0.0,0.0,0.0,0.0,0.0,0.0,0.0,0.0,0.0,0.0,0.0,0.0,0.0,0.0,0.0,0.0,0.0,0.0,0.0,0.0,0.0,0.0,0.0,0.0,0.0,0.0,0.0,0.0,0.0,0.0,0.0,0.0,0.0,0.0,0.0,0.0,0.0,0.0,0.0,0.0,0.0,0.0,0.0,0.0,0.0,0.0,0.0,0.0,0.0,0.0,0.0,0.0,0.0,0.0,0.0,0.0,0.0,0.0,0.0,0.0,0.0,0.0,0.0,0.0,0.0,0.0,0.0,0.0,0.0,0.0,0.0,0.0,0.0,0.0,0.0,0.0,0.0,0.0,0.0,0.0,0.0,0.0,0.0,0.0,0.0,0.0,0.0,0.0,0.0,0.0,0.0,0.0,0.0,0.0,0.0,0.0,0.0,0.0,0.0,0.0,0.0,0.0,0.0,0.0,0.0,0.0,0.0,0.0,0.0,0.0,0.0,0.0,0.0,0.0,0.0,0.0,0.0,0.0,0.0,0.0,0.0,0.0,0.0,0.0,0.0,0.0,0.0,0.0,0.0,0.0,0.0,0.0,0.0,0.0,0.0,0.0,0.0,0.0,0.0,0.0,0.0,0.0,0.0,0.0,0.0,0.0,0.0,0.0,0.0,0.0,0.0,0.0,0.0,0.0,0.0,0.0,0.0,0.0,0.0,0.0,0.0,0.0,0.0,0.0,0.0,0.0,0.0,0.0,0.0,0.0,0.0,0.0,0.0,0.0,0.0,0.0,0.0,0.0,0.0,0.0,0.0,0.0,0.0,0.0,0.0,0.0,0.0,0.0,0.0,0.0,0.0,0.0,0.0,0.0,0.0,0.0,0.0,0.0,0.0,0.0,0.0,0.0,0.0,0.0,0.0,0.0,0.0,0.0,0.0,0.0,0.0,0.0,0.0,0.0,0.0,0.0,0.0,0.0,0.0,0.0,0.0,0.0,0.0,0.0,0.0,0.0,0.0,0.0,0.0,0.0,0.0,0.0,0.0,0.0,0.0,0.0,0.0,0.0,0.0,0.0,0.0,0.0,0.0,0.0,0.0,0.0,0.0,0.0,0.0,0.0,0.0,0.0,0.0,0.0,0.0,0.0,0.0,0.0,0.0,0.0,0.0,0.0,0.0,0.0,0.0,0.0,0.0,0.0,0.0,0.0,0.0,0.0,0.0,0.0,0.0,0.0,0.0,0.0,0.0,0.0,0.0,0.0,0.0,0.0,0.0,0.0,0.0,0.0,0.0,0.0,0.0,0.0,0.0,0.0,0.0,0.0,0.0,0.0,0.0,0.0,0.0,0.0,0.0,0.0,0.0,0.0,0.0,0.0,0.0,0.0,0.0,0.0,0.0,0.0,0.0,0.0,0.0,0.0,0.0,0.0,0.0,0.0,0.0,0.0,0.0,0.0,0.0,0.0,0.0,0.0,0.0,0.0,0.0,0.0,0.0,0.0,0.0,0.0,0.0,0.0,0.0,0.0,0.0,0.0,0.0,0.0,0.0,0.0,0.0,0.0,0.0,0.0,0.0,0.0,0.0,0.0,0.0,0.0,0.0,0.0,0.0,0.0,0.0,0.0,0.0,0.0,0.0,0.0,0.0,0.0,0.0,0.0,0.0,0.0,0.0,0.0,0.0,0.0,0.0,0.0,0.0,0.0,0.0,0.0,0.0,0.0,0.0,0.0,0.0,0.0,0.0,0.0,0.0,0.0,0.0,0.0,0.0,0.0,0.0,0.0,0.0,0.0,0.0,0.0,0.0,0.0,0.0,0.0,0.0,0.0,0.0,1.7296,1.5966,0.0,0.0,0.0,0.0,0.0,0.0,0.0,0.0,0.0,0.0,0.0,0.0,0.0,0.0,0.0,0.0,0.0,0.0,0.0,0.0,0.0,0.0,0.0,1.202,1.1978,1.217,1.1613,0.0,0.0,0.0,0.0,0.0,0.0,0.0,0.0,0.0,1.0813,1.224,1.1738,1.2647,1.4811,1.3399,1.2307,1.1507,0.0,0.0,0.0,0.0,0.0,0.0,0.0,0.0,0.0,0.0,0.0,0.0,0.0,0.0,0.0,0.0,0.0,0.0,0.0,0.0,0.0,0.0,0.0,0.0,0.0,0.0,0.0,0.0,0.0,0.0,0.0,0.0,0.0,0.0,0.0,0.0,0.0,0.0,0.0,0.0,0.0,0.0,0.0,0.0,0.0,0.0,0.0,0.0,0.0,0.0,0.0,0.0,0.0,0.0,0.0,0.0,0.0,0.0,0.0,0.0,0.0,0.0,0.0,0.0,0.0,0.0,0.0,0.0,0.0,0.0,1.9295,1.7792,0.0,0.0,0.0,0.0,0.0,0.0,0.0,0.0,0.0,0.0,0.0,0.0,0.0,0.0,0.0,0.0,0.0,0.0,0.0,0.0,0.0,1.2902,1.2883,1.2679,1.2591,1.2656,1.222,1.2129,1.257,1.2392,0.0,0.0,0.0,0.0,1.2272,1.2383,1.3337,1.518,1.5206,1.597,1.7438,1.7719,1.7147,1.576,1.347,0.0,0.0,0.0,0.0,0.0,0.0,0.0,0.0,0.0,0.0,0.0,0.0,0.0,0.0,0.0,0.0,0.0,0.0,0.0,0.0,0.0,0.0,0.0,0.0,0.0,0.0,0.0,0.0,0.0,0.0,0.0,0.0,0.0,0.0,0.0,0.0,0.0,0.0,0.0,0.0,0.0,0.0,0.0,0.0,0.0,0.0,0.0,0.0,0.0,0.0,0.0,0.0,0.0,0.0,0.0,0.0,0.0,0.0,0.0,0.0,0.0,0.0,0.0,2.4122,2.4473,2.5957,2.5076,2.5304,2.6143,2.1601,2.0456,2.1634,1.9235,0.0,0.0,0.0,0.0,0.0,0.0,0.0,0.0,0.0,0.0,0.0,0.0,0.0,0.0,0.0,0.0,0.0,0.0,0.0,1.2871,1.2819,1.323,1.3803,1.4485,1.4009,1.3817,1.4156,1.3227,0.0,0.0,0.0,0.0,1.1799,1.2571,1.368,1.5114,1.8729,2.0716,2.1125,2.1502,2.1683,2.1518,1.761,1.5335,1.4354,0.0,0.0,0.0,0.0,0.0,0.0,0.0,0.0,0.0,0.0,0.0,0.0,0.0,0.0,0.0,0.0,0.0,0.0,0.0,0.0,0.0,0.0,0.0,0.0,0.0,0.0,0.0,0.0,0.0,0.0,0.0,0.0,0.0,0.0,0.0,0.0,0.0,0.0,0.0,0.0,0.0,2.1681,2.0695,0.0,0.0,0.0,0.0,0.0,0.0,0.0,0.0,0.0,0.0,0.0,0.0,0.0,2.6601,2.7277,2.7439,2.7493,2.7447,2.6889,2.6798,2.7074,2.6644,2.6717,2.7092,2.6374,0.0,2.5428,2.4707,0.0,0.0,0.0,0.0,0.0,0.0,0.0,0.0,0.0,0.0,0.0,0.0,0.0,0.0,0.0,0.0,0.0,0.0,0.0,0.0,0.0,1.5094,1.5407,1.6187,1.57,1.5172,1.4747,1.4334,0.0,0.0,0.0,1.3237,1.3271,1.4596,1.6439,1.8755,2.1735,2.3077,2.2884,2.3039,2.32,2.3233,2.1373,1.9326,1.7151,1.5763,0.0,0.0,0.0,0.0,0.0,0.0,0.0,0.0,0.0,0.0,0.0,0.0,0.0,0.0,0.0,0.0,0.0,0.0,0.0,0.0,0.0,0.0,0.0,0.0,0.0,0.0,0.0,0.0,0.0,0.0,0.0,0.0,0.0,0.0,0.0,0.0,0.0,0.0,0.0,2.1251,2.262,2.2809,2.2915,2.2079,0.0,0.0,0.0,0.0,0.0,0.0,0.0,0.0,0.0,2.9212,2.8966,2.9447,3.0906,3.0555,3.0823,3.1706,3.1133,3.1271,3.2067,3.1552,3.1391,3.1488,3.1085,3.0943,3.0779,2.7393,2.5093,2.369,0.0,0.0,0.0,0.0,2.2745,2.3094,0.0,0.0,0.0,0.0,0.0,0.0,0.0,0.0,0.0,0.0,0.0,0.0,1.6728,1.6686,1.6845,1.7509,1.7206,1.6847,1.6587,1.6026,1.5586,0.0,1.5001,1.5015,1.5451,1.7564,1.9812,2.2102,2.428,2.5001,2.4428,2.4411,2.442,2.4393,2.4013,2.2361,1.9833,1.8494,1.683,1.4962,0.0,0.0,0.0,0.0,0.0,0.0,0.0,0.0,0.0,0.0,0.0,0.0,0.0,0.0,0.0,0.0,0.0,0.0,0.0,0.0,0.0,0.0,0.0,0.0,0.0,0.0,0.0,0.0,0.0,0.0,0.0,0.0,0.0,0.0,0.0,0.0,0.0,2.3082,2.4272,2.4703,2.5286,2.4649,0.0,0.0,0.0,0.0,0.0,0.0,2.8632,2.9187,3.0491,3.2706,3.2058,3.2474,3.418,3.3336,3.3606,3.4959,3.4401,3.4701,3.5703,3.5212,3.4982,3.4949,3.4272,3.4357,3.4602,2.9848,2.7771,2.7479,2.6546,2.5756,2.5249,2.6251,2.6637,2.6986,0.0,0.0,0.0,0.0,0.0,0.0,0.0,0.0,0.0,0.0,0.0,1.5644,1.6608,1.725,1.7825,1.829,1.8428,1.9222,2.0954,1.8519,1.7609,1.8969,1.7024,1.6581,1.7974,2.1476,2.3328,2.3487,2.6212,2.713,2.6354,2.6354,2.6354,2.6309,2.4812,2.3537,2.2326,2.0789,1.9445,1.804,1.4511,0.0,0.0,0.0,0.0,0.0,0.0,0.0,0.0,0.0,0.0,0.0,0.0,0.0,0.0,0.0,0.0,0.0,0.0,0.0,0.0,0.0,0.0,0.0,0.0,0.0,0.0,0.0,0.0,0.0,0.0,0.0,0.0,0.0,0.0,0.0,0.0,0.0,0.0,2.5687,2.8351,0.0,0.0,0.0,0.0,2.7631,2.8607,3.0118,3.2305,3.3285,3.464,3.6473,3.6472,3.6513,3.6637,3.5961,3.5658,3.5731,3.5514,3.5446,3.5518,3.5485,3.5465,3.5446,3.4935,3.4974,3.5207,3.3136,3.1787,3.0971,3.0242,2.8975,2.7812,2.936,2.9965,3.0204,0.0,0.0,0.0,1.1481,1.1757,1.2132,1.2362,1.3238,1.39,1.3933,1.5077,1.6196,1.699,1.7955,1.8932,1.9864,2.073,2.0929,2.0217,1.9786,1.9654,1.9934,1.8896,1.965,2.2514,2.4721,2.58,2.5727,2.7935,2.8523,2.7642,2.717,2.7343,2.7954,2.5616,2.4775,2.4995,2.3227,2.1741,2.0391,1.8775,1.6698,0.0,0.0,0.0,0.0,0.0,0.0,0.0,0.0,0.0,0.0,0.0,0.0,0.0,0.0,0.0,0.0,0.0,0.0,0.0,0.0,0.0,0.0,0.0,0.0,0.0,0.0,0.0,0.0,0.0,0.0,0.0,0.0,0.0,0.0,0.0,0.0,0.0,2.7645,2.9896,0.0,2.835,3.0005,3.1284,3.1422,3.3099,3.4486,3.5314,3.5935,3.6577,3.7218,3.7529,3.7839,3.8075,3.7608,3.7475,3.7709,3.7386,3.7245,3.7245,3.7245,3.7245,3.7191,3.6543,3.663,3.7071,3.5451,3.4342,3.3577,3.3312,3.2561,3.1791,3.2842,3.2914,3.2673,0.0,0.0,0.0,1.1475,1.1665,1.1952,1.2331,1.3227,1.3949,1.4212,1.5542,1.6866,1.7992,1.92,2.0144,2.0609,2.2063,2.2675,2.1964,2.1594,2.1764,2.2594,2.2089,2.3085,2.5873,2.7714,2.8373,2.7832,2.9846,3.0316,2.9336,2.8859,2.9008,2.961,2.6848,2.6022,2.6628,2.4814,2.3445,2.2372,2.1334,1.9527,1.7326,0.0,0.0,0.0,0.0,0.0,0.0,0.0,0.0,0.0,0.0,0.0,0.0,0.0,0.0,0.0,0.0,0.0,0.0,0.0,0.0,0.0,0.0,0.0,0.0,0.0,0.0,0.0,0.0,0.0,0.0,0.0,0.0,0.0,0.0,2.8209,3.0099,2.9394,3.1581,3.2491,3.0843,3.3016,3.4527,3.4527,3.6225,3.726,3.726,3.7695,3.7943,3.7943,3.8109,3.8316,3.8592,3.8336,3.8336,3.8592,3.8448,3.8398,3.8398,3.8398,3.8398,3.8365,3.7731,3.7737,3.8104,3.7146,3.6302,3.5621,3.5382,3.4971,3.4593,3.5074,3.4971,3.4646,0.0,0.0,1.1497,1.2285,1.2472,1.2786,1.3553,1.41,1.5007,1.6605,1.6878,1.7621,1.9484,2.0899,2.1424,2.0593,2.2401,2.4458,2.657,2.4098,2.394,2.7076,2.6616,2.6821,2.7917,3.0374,3.1037,2.9774,3.2021,3.2556,3.1428,3.1428,3.1435,3.1332,2.8539,2.7271,2.717,2.5579,2.4679,2.4049,2.1884,2.0992,2.0656,0.0,0.0,0.0,0.0,0.0,0.0,0.0,0.0,0.0,0.0,0.0,0.0,0.0,0.0,0.0,0.0,0.0,0.0,0.0,0.0,0.0,0.0,0.0,0.0,0.0,0.0,0.0,0.0,0.0,0.0,0.0,0.0,0.0,2.8176,2.9875,3.1144,3.0876,3.3555,3.4921,3.3625,3.55,3.6825,3.6846,3.7715,3.8233,3.8233,3.8613,3.8841,3.8841,3.846,3.8233,3.8233,3.8212,3.8212,3.8212,3.8592,3.8799,3.8799,3.8799,3.8799,3.8758,3.8378,3.8191,3.8191,3.8191,3.777,3.7045,3.6316,3.601,3.601,3.601,3.6044,3.6103,1.2679,1.2301,1.2193,1.2795,1.2893,1.2939,1.3154,1.4165,1.4893,1.4875,1.6262,1.7716,1.8924,1.995,2.1361,2.3354,2.4812,2.5875,2.6493,2.598,2.6191,2.737,2.9524,3.0809,3.1118,3.2502,3.2538,3.1242,3.3182,3.36,3.2609,3.2135,3.2348,3.3007,3.0234,2.8956,2.8825,2.8092,2.6737,2.4984,2.4093,2.2976,2.1742,0.0,0.0,0.0,0.0,0.0,0.0,0.0,0.0,0.0,0.0,0.0,0.0,0.0,0.0,0.0,0.0,0.0,0.0,0.0,0.0,0.0,0.0,0.0,0.0,0.0,0.0,0.0,0.0,0.0,0.0,0.0,2.9295,3.1046,3.0523,3.2618,3.4078,3.3708,3.4983,3.5769,3.5397,3.6535,3.7446,3.7777,3.8647,3.913,3.913,3.9254,3.9316,3.9316,3.9192,3.913,3.913,3.8799,3.8634,3.8634,3.8708,3.8737,3.8737,3.8737,3.8737,3.8704,3.8366,3.8191,3.8191,3.8191,3.8091,3.7837,3.7079,3.6451,3.6078,3.6586,3.6809,3.6761,1.3061,1.2846,1.2828,1.3301,1.3368,1.3394,1.3563,1.4438,1.5271,1.5784,1.7099,1.874,2.0724,2.1386,2.2622,2.4994,2.6129,2.684,2.7193,2.7874,2.8654,2.952,3.1374,3.2678,3.3258,3.38,3.3815,3.3241,3.4288,3.4515,3.3983,3.3593,3.3639,3.3993,3.1719,3.0653,3.0501,2.9039,2.7949,2.708,2.5785,2.4462,2.324,2.2839,2.2005,2.1004,2.0379,1.9834,1.9374,1.9335,0.0,0.0,0.0,0.0,0.0,0.0,0.0,0.0,0.0,0.0,0.0,0.0,0.0,0.0,0.0,0.0,0.0,0.0,0.0,0.0,0.0,0.0,0.0,0.0,3.194,3.355,3.3655,3.4793,3.5634,3.5635,3.6411,3.697,3.697,3.7819,3.8378,3.846,3.9275,3.9626,3.9233,3.9399,3.942,3.9213,3.9197,3.9161,3.9161,3.9078,3.9036,3.9036,3.9041,3.9033,3.9033,3.9033,3.9033,3.9033,3.8852,3.875,3.875,3.875,3.875,3.8675,0.0,0.0,0.0,0.0,3.7671,3.7766,1.374,1.3551,1.345,1.3795,1.3872,1.3982,1.4342,1.4832,1.5936,1.8033,1.8732,2.0279,2.3654,2.4013,2.4626,2.6073,2.6975,2.7793,2.8581,2.9831,3.1083,3.2354,3.2547,3.3246,3.455,3.4637,3.4856,3.5299,3.5408,3.543,3.5364,3.5364,3.5124,3.4609,3.3113,3.2329,3.1995,2.954,2.8973,2.957,2.7376,2.5953,2.4975,2.4137,2.3773,2.3573,2.2332,2.1686,2.132,2.0413,0.0,0.0,0.0,0.0,0.0,0.0,0.0,0.0,0.0,0.0,0.0,0.0,0.0,0.0,0.0,0.0,0.0,0.0,0.0,0.0,0.0,0.0,0.0,0.0,3.4572,3.6227,3.6857,3.6519,3.6332,3.6816,3.7653,3.8212,3.8253,3.904,3.9337,3.8923,3.9744,3.9882,3.9012,3.9336,0.0,0.0,0.0,3.8786,3.8795,3.9214,3.9424,3.939,3.9501,3.9571,3.9571,3.9571,3.9571,3.9571,3.9502,3.9502,3.9502,3.9502,3.9502,3.942,3.8647,3.8336,3.8336,3.8336,3.8585,3.8882,1.385,1.4004,1.4201,1.4266,1.4276,1.432,1.4396,1.5103,1.6315,1.8138,1.9467,2.1392,2.4368,2.4849,2.5762,2.7723,2.8967,3.0066,3.1193,3.2066,3.2507,3.2394,3.3486,3.4403,3.5059,3.5474,3.5765,3.5852,3.6617,3.6762,3.6413,3.6413,3.6151,3.567,3.4918,3.3863,3.2576,3.2622,3.167,3.0113,3.0262,2.8895,2.6598,2.5471,2.5402,2.5755,2.458,2.527,2.6457,2.4583,2.364,2.2999,2.1577,2.0782,0.0,0.0,0.0,0.0,0.0,0.0,0.0,0.0,0.0,0.0,0.0,0.0,0.0,0.0,0.0,0.0,0.0,0.0,0.0,3.3128,3.5168,3.6931,3.7831,3.7823,3.7636,3.7384,3.7839,3.8316,3.8654,3.9171,3.9461,3.9378,4.0132,4.0389,3.988,3.9837,3.9816,3.9838,3.9466,3.9302,3.9336,3.9419,3.9481,3.9481,3.984,0.0,3.9984,3.9984,3.9984,3.9984,3.964,3.9502,3.9502,3.9502,3.9502,3.9482,3.9316,3.9233,3.9233,3.9233,3.9296,3.9378,1.4135,1.4266,1.4396,1.4396,1.4396,1.4396,1.4396,1.5006,1.629,1.8608,1.9718,2.1549,2.4833,2.4619,2.5169,2.7496,2.8804,3.0149,3.1691,3.2385,3.2967,3.3442,3.436,3.5102,3.5583,3.6093,3.6595,3.7046,3.7505,3.7636,3.7396,3.7396,3.7134,3.6661,3.594,3.5136,3.4281,3.3551,3.2896,3.2264,3.1426,3.053,2.95,2.808,2.7243,2.6756,2.6056,2.6372,2.6955,2.5577,2.5261,2.5273,2.4251,2.3705,2.2975,0.0,0.0,0.0,0.0,0.0,0.0,0.0,0.0,0.0,0.0,0.0,0.0,0.0,0.0,2.9548,3.0766,0.0,3.4196,3.5594,3.6742,3.7819,3.873,3.8854,3.8771,3.851,3.8937,3.9254,3.9482,3.9951,4.0034,3.9544,4.009,4.0153,3.95,3.9595,3.9754,3.9813,3.9788,3.9767,3.9813,4.0007,4.0111,4.0111,4.0375,4.048,4.0515,4.0765,4.0709,4.05,4.0767,4.0758,4.0572,4.08,4.0903,4.0903,4.0903,4.0344,3.9502,3.9502,3.9502,3.9502,1.4361,1.4338,1.4326,1.4361,1.4338,1.4315,1.4315,1.474,1.6041,1.8722,1.9616,2.1243,2.4523,2.4062,2.4488,2.6801,2.8007,2.951,3.1553,3.2389,3.3311,3.4441,3.4971,3.5408,3.583,3.6588,3.7243,3.7833,3.8204,3.8335,3.8248,3.8248,3.7986,3.7514,3.6661,3.6115,3.5729,3.3947,3.3678,3.4317,3.233,3.1934,3.2399,3.1136,2.9545,2.7947,2.7466,2.7299,2.7203,2.615,2.6619,2.7446,2.6749,2.6558,2.6098,2.3527,2.3675,0.0,0.0,0.0,0.0,0.0,0.0,0.0,0.0,2.6116,2.7264,2.9081,3.0879,3.251,3.3841,3.4827,3.607,3.7881,3.8336,3.873,3.9523,3.9647,3.9668,3.9751,4.0019,4.0226,4.0344,4.0593,4.0448,3.9688,3.9965,3.9834,3.9087,3.9467,3.9716,3.973,4.0041,4.0221,4.027,4.0661,4.0891,4.0891,4.1067,4.1187,4.1187,4.156,4.154,4.1229,4.1975,4.2078,4.1767,4.214,4.2285,4.2285,4.2285,4.1395,4.004,4.004,4.004,4.004,1.4233,1.4128,1.4091,1.421,1.4116,1.4044,1.4044,1.4536,1.5639,1.764,1.9169,2.0754,2.2471,2.3688,2.5073,2.6844,2.7672,2.9195,3.1776,3.3394,3.4332,3.4485,3.4971,3.5233,3.5299,3.7025,3.7593,3.685,3.8585,3.9197,3.8719,3.8719,3.8457,3.8008,3.7492,3.653,3.5277,3.5026,3.4743,3.4457,3.4205,3.4134,3.4202,3.4026,3.2704,3.0758,2.9406,3.0196,3.1458,2.8827,2.8715,2.9439,2.8127,2.782,2.7767,2.6649,2.5755,2.488,2.3764,2.3619,2.4281,2.621,2.6436,2.7461,0.0,3.2218,3.1982,3.4491,3.5613,3.6215,3.639,3.7177,3.7881,3.8183,3.8854,3.9523,4.0034,4.0137,4.0303,4.0675,4.0406,4.0344,4.0794,4.051,4.0226,4.0123,4.0139,4.0074,3.9969,4.0306,4.0517,4.0571,4.0605,4.071,4.0823,4.1244,4.1493,4.1493,4.1949,4.214,4.214,4.2203,4.2182,4.214,4.2244,4.2265,4.2223,4.2285,4.2285,4.2285,4.2285,4.2161,4.1995,4.1995,4.1995,4.1995,1.4326,1.414,1.402,1.4058,1.4044,1.3997,1.3997,1.4205,1.4981,1.6602,1.7956,1.9106,1.9999,2.0951,2.2103,2.3503,2.6064,2.8499,3.0651,3.3111,3.4507,3.4507,3.4971,3.5343,3.5677,3.6719,3.7221,3.712,3.7929,3.8335,3.837,3.837,3.8413,3.8457,3.744,3.6653,3.602,3.5168,3.4681,3.4507,3.4507,3.4507,3.4457,3.4339,3.34,3.193,3.0179,3.0052,0.0,2.8804,2.875,2.9331,2.8862,2.8486,2.7923,2.6627,2.6894,2.7759,2.8442,2.8235,2.8218,2.9684,3.0284,3.1125,3.3356,3.3725,3.4143,3.6061,3.6839,3.7281,3.755,3.8129,3.8716,3.9288,3.9668,4.0061,4.053,4.0593,4.0675,4.0897,4.098,4.1104,4.1291,4.111,4.0903,4.0634,4.0568,4.0445,4.0174,4.0543,4.0919,4.1236,4.1507,4.1664,4.1705,4.1912,4.2016,4.2016,4.2203,4.2285,4.2306,4.2518,4.2787,4.3035,4.2766,4.2787,4.3056,4.3056,4.3056,4.3056,4.3056,4.2905,4.2693,4.2418,4.2138,4.1916,1.428,1.4058,1.389,1.389,1.389,1.389,1.389,1.3926,1.4364,1.5568,1.6583,1.7377,1.7889,1.8333,1.9151,2.0547,2.42,2.7302,2.9423,3.2341,3.4167,3.4485,3.4971,3.5321,3.559,3.6304,3.6719,3.6784,3.7076,3.7374,3.7724,3.7855,3.8095,3.837,3.7352,3.6741,3.6413,3.5212,3.4616,3.4507,3.4507,3.4507,3.4435,3.3896,3.3149,3.2184,3.0666,2.9743,2.9152,2.8375,2.8375,2.8691,2.8874,2.8473,2.7782,2.6849,2.767,2.9249,3.0671,3.1043,3.1278,3.216,3.3368,3.435,3.435,3.4972,3.5821,3.6784,3.7467,3.7964,3.8295,3.8799,3.942,4.0081,4.0288,4.051,4.0856,4.0918,4.0959,4.1084,4.1395,4.1705,4.1954,4.1747,4.1457,4.1125,4.1104,4.0959,4.0593,4.1042,4.1436,4.1788,4.212,4.2285,4.2285,4.241,4.2472,4.2472,4.2617,4.2679,4.2679,4.2973,4.3284,4.3594,4.3263,4.3229,4.3424,4.3424,4.3386,4.3272,4.3272,4.3081,4.2808,4.257,4.2211,4.1875,1.4008,1.3798,1.3621,1.3621,1.3621,1.3621,1.3621,1.3716,1.3987,1.449,1.5194,1.5907,1.6509,1.6588,1.7337,1.921,2.2308,2.5482,2.8544,3.1265,3.328,3.4463,3.4971,3.4987,3.455,3.5954,3.6238,3.5277,3.6238,3.6719,3.6741,3.7229,3.7448,3.7448,3.7404,3.688,3.5983,3.5408,3.4928,3.4507,3.4507,3.4507,3.437,3.3188,3.2235,3.1493,3.1112,3.0084,2.8804,2.814,2.7863,2.7868,2.801,2.7725,2.7466,2.8268,2.8227,2.8045,2.8562,3.0299,3.2181,3.312,3.5024,3.6701,3.6701,3.7074,3.7425,3.7467,3.8158,3.8778,3.8799,3.9544,4.0164,4.0185,4.0593,4.0897,4.0918,4.0918,4.1084,4.1519,4.1602,4.1954,4.2787,4.2083,4.1602,4.1581,4.1581,4.1581,4.156,4.1995,4.2265,4.2285,4.2285,4.2285,4.2285,4.2683,4.2873,4.2911,4.3346,4.3573,4.3573,4.3594,4.3594,4.3615,4.3594,4.3386,4.3024,4.3024,4.2774,4.2447,4.2447,4.2447,4.2447,4.283,4.2734,4.2368,1.3997,1.3867,1.3727,1.3727,1.3656,1.3609,1.3609,1.3644,1.3766,1.3996,1.4683,0.0,0.0,0.0,0.0,0.0,2.1203,2.3976,2.6541,2.9858,3.2192,3.3267,3.4218,3.4659,3.4507,3.4987,3.5052,3.4725,3.5052,3.5408,3.5714,3.6246,3.6639,3.6937,3.6937,3.6595,3.5961,3.543,3.4949,3.4507,3.4507,3.4307,3.4029,3.395,3.2178,2.97,0.0,2.8427,2.7701,2.6802,2.6736,2.6911,2.6366,2.6448,2.6743,2.6945,2.7783,2.8916,3.0224,3.2192,3.4134,3.5335,3.6473,3.726,3.726,3.7806,3.8365,3.8365,3.8365,3.8468,3.8758,3.9068,3.9378,3.9688,4.0386,4.1022,4.1332,4.1374,4.154,4.2016,4.229,4.2704,4.3325,4.2828,4.26,4.289,4.2642,4.2456,4.2456,4.2621,4.2704,4.2704,4.2994,4.3159,4.3159,4.3304,4.3387,4.3387,4.3842,4.407,4.4091,4.4381,4.4526,4.4526,4.4526,4.4292,4.3863,4.3863,4.3628,4.3275,4.3275,4.3803,4.4541,4.4696,4.5177,4.5596,1.3938,1.381,1.3727,1.3727,1.3656,0.0,0.0,0.0,0.0,0.0,0.0,0.0,0.0,0.0,0.0,0.0,0.0,2.2419,2.4825,2.7722,2.9995,3.1445,3.2318,3.2809,3.2933,3.2809,3.2964,3.346,3.3534,3.4098,3.5113,3.5706,3.6246,3.6697,3.6697,3.6522,3.618,3.5323,3.4818,3.4586,3.3871,3.3293,3.2718,3.2288,3.0118,0.0,2.6435,2.5788,2.5195,2.4553,2.4895,2.548,2.4869,2.5572,2.6683,2.7271,2.8452,3.0083,3.2177,3.385,3.5376,3.6908,3.7632,3.8026,3.8191,3.8634,3.9068,3.9068,3.8605,3.8316,3.8737,3.882,3.9027,3.9647,4.053,4.1312,4.1788,4.185,4.2016,4.2435,4.289,4.3346,4.3801,4.3739,4.3656,4.3615,4.3325,4.3097,4.2932,4.3077,4.3159,4.3159,4.3449,4.3698,4.3863,4.3863,4.4029,4.436,4.4329,4.4477,4.4807,4.5443,4.5765,4.5932,4.5932,4.603,4.6166,4.5329,4.5109,4.5325,4.5119,4.5583,4.6279,4.6433,4.712,4.7707,1.3787,1.3692,1.3609,0.0,0.0,0.0,0.0,0.0,0.0,0.0,0.0,0.0,0.0,0.0,0.0,0.0,0.0,0.0,2.3333,2.4955,2.6862,2.9125,2.9419,2.9688,3.0085,2.9755,3.0203,3.1491,3.1683,3.28,3.4659,3.5426,3.5991,3.6399,3.6421,3.6421,3.6297,3.4886,3.4435,3.4493,3.2583,3.1379,3.0491,2.8544,2.6395,2.4348,2.3531,2.2556,2.1722,2.1776,2.277,2.394,2.3906,2.5338,2.7361,2.9249,3.0326,3.1475,3.4137,3.5211,3.6018,3.7819,3.853,3.8965,3.9399,3.9523,3.9523,3.9385,3.8696,3.8179,3.8476,3.8621,3.8972,3.9916,4.0924,4.1767,4.2265,4.2327,4.2493,4.2932,4.3387,0.0,0.0,0.0,4.4668,4.3895,4.3715,4.3508,4.3148,4.3501,4.375,4.3791,4.3791,4.396,4.4339,4.4437,4.4933,4.5825,4.5054,4.5142,4.6003,4.687,4.7447,4.7834,4.7834,4.8529,4.9573,4.7361,4.7247,4.8376,4.7838,4.7679,4.7794,4.8176,4.8656,4.899,0.0,0.0,0.0,0.0,0.0,0.0,0.0,0.0,0.0,0.0,0.0,0.0,0.0,0.0,0.0,0.0,0.0,0.0,2.0494,2.2577,2.4748,2.6994,2.7848,2.8723,2.9711,2.9553,2.9618,2.9951,3.0346,3.0811,3.1345,3.2272,3.2557,3.231,3.2734,3.269,3.2269,3.155,3.1263,3.1214,2.9974,2.8903,2.8013,2.7685,2.5988,2.3728,2.3624,2.2848,2.1989,2.2905,2.4426,2.6224,2.7735,2.8389,2.8927,3.0626,3.2218,3.3756,3.5088,3.6685,3.8137,3.8944,3.9254,3.9358,3.9482,3.9771,3.9592,3.8007,3.7254,3.6398,3.491,3.5933,3.7201,3.7788,3.997,4.1871,4.2642,4.2745,4.3056,4.3863,0.0,4.4443,4.525,4.5126,4.5511,4.6859,4.5181,4.4733,4.6187,4.5664,4.5664,4.6414,4.638,4.5851,4.4815,4.6106,4.7062,4.766,4.9083,4.972,4.9667,5.0565,5.0823,5.0636,5.0636,5.0676,5.0614,5.0019,4.9814,4.9832,4.9723,5.0414,5.1558,5.1637,5.2279,5.307,0.0,0.0,0.0,0.0,0.0,0.0,0.0,0.0,0.0,0.0,0.0,0.0,0.0,0.0,0.0,0.0,0.0,0.0,0.0,2.0619,2.2423,2.4402,2.4903,2.5756,2.7085,2.6674,2.6955,2.7901,2.7819,2.8274,2.9284,2.9574,2.9662,2.9572,2.9886,2.9952,2.984,2.9083,2.897,0.0,0.0,2.6257,2.5432,2.5005,2.3624,2.1965,2.2255,2.3144,2.4315,2.5599,2.6778,2.8045,3.002,3.063,3.0942,3.2629,3.4122,3.5469,3.6726,3.7934,3.8965,3.9647,3.9813,3.9612,3.889,3.8918,3.8493,3.6316,3.5624,3.5043,3.3708,3.5457,3.725,3.7677,4.0256,4.2414,4.3118,4.3387,4.3985,4.5231,4.5732,4.645,4.7727,4.7783,4.815,4.9122,4.7038,4.6505,4.8401,4.8201,4.8268,4.8828,4.9074,4.8896,4.8183,4.9175,4.9897,5.0383,5.1027,5.1415,5.1599,5.249,5.289,5.2812,5.2812,5.3135,5.3538,5.2523,5.2432,5.2913,5.2685,5.3049,5.367,5.3881,5.4253,5.464,0.0,0.0,0.0,0.0,0.0,0.0,0.0,0.0,0.0,1.5415,1.5574,1.5829,0.0,0.0,0.0,0.0,0.0,0.0,0.0,0.0,2.0151,2.177,2.1564,2.2128,2.3547,2.2869,2.3444,2.5363,2.4733,2.5441,2.7344,2.6899,2.6859,2.7196,2.7196,2.7422,2.7736,2.6803,2.6823,2.7271,2.4982,2.3624,2.2874,0.0,2.0671,2.0035,2.0687,2.3351,2.6777,2.8526,2.9377,2.9989,3.1646,3.2558,3.3291,3.4849,3.589,3.6813,3.8445,3.8903,3.913,4.0061,4.0288,3.9826,3.809,3.7788,3.7082,3.4381,3.4002,3.3976,3.3371,3.5728,3.7938,3.8434,4.099,4.3077,4.3594,4.4242,4.5205,4.6816,4.7866,4.9029,5.0551,5.1079,5.1248,5.1146,4.9479,4.8996,5.0359,5.0865,5.1129,5.1192,5.1539,5.1892,5.2412,5.2502,5.2753,5.3146,5.2209,5.2088,5.2768,5.3669,5.4239,5.4465,5.4534,5.5406,5.6637,5.4604,5.4679,5.6044,5.5674,5.5217,5.488,5.5409,5.5265,5.4904,0.0,0.0,0.0,0.0,0.0,0.0,0.0,0.0,0.0,0.0,1.6631,1.6047,0.0,0.0,0.0,0.0,0.0,0.0,0.0,0.0,0.0,1.9915,2.002,2.0626,2.1891,2.1623,2.1643,2.2032,2.2278,2.2617,2.3017,2.3337,2.3296,2.2959,2.2959,2.2987,2.3073,2.2891,2.3138,2.3532,2.2276,2.1424,2.0848,2.0348,0.0,0.0,2.17,2.2933,2.4538,2.8352,3.1233,3.3395,3.4423,3.5354,3.6101,3.6412,3.715,3.8096,3.9102,3.9378,3.9606,4.053,4.0758,4.0232,3.8172,3.8214,3.7308,3.2396,3.2725,3.3175,3.0839,3.3808,3.6927,3.7928,4.0774,4.3133,4.4058,4.5443,4.6735,4.775,4.924,5.043,5.111,5.1247,5.2009,5.3776,5.3576,5.3338,5.3186,5.3296,5.3523,5.3917,5.2786,5.2394,5.2853,5.3595,5.3961,5.4031,5.521,5.5499,5.487,5.5854,5.5908,5.5245,5.5683,5.5808,5.5635,5.5243,5.5258,5.5578,5.5899,5.5996,5.5972,5.65,5.6356,5.5996,0.0,0.0,0.0,0.0,0.0,0.0,0.0,1.6649,1.7613,1.9356,1.926,1.8598,1.7318,1.6842,1.6566,0.0,0.0,0.0,0.0,0.0,0.0,0.0,0.0,0.0,2.0549,2.0377,2.0478,2.0935,0.0,2.0573,2.0741,2.055,2.0341,2.0072,1.9854,1.9877,2.008,2.0342,2.0565,2.0703,2.0496,2.0105,1.96,0.0,0.0,0.0,2.1459,2.3043,2.4787,2.6395,3.0125,3.4294,3.5396,3.6246,3.6804,3.6804,3.7446,3.8336,3.8965,3.9316,3.9668,4.0365,4.0717,4.018,3.7495,3.6959,3.5935,3.1935,3.2037,3.2563,3.149,3.448,3.7364,3.8213,4.0803,4.3347,4.5252,4.6433,4.8015,5.0406,5.16,5.2656,5.3846,5.3956,5.4399,5.5564,5.611,5.6189,5.5626,5.5681,5.5963,5.6492,5.581,5.5533,5.5765,5.5668,5.5604,5.5541,5.5929,5.5844,5.5409,5.5844,5.582,5.5433,5.5947,5.6044,5.5842,5.5842,5.5987,5.6227,5.6188,5.6188,5.626,5.6789,5.6644,5.6284,0.0,0.0,0.0,0.0,0.0,0.0,1.7331,1.8126,1.9296,2.1524,2.2039,2.1407,1.9265,1.7944,1.7021,0.0,0.0,0.0,0.0,0.0,0.0,0.0,0.0,0.0,0.0,0.0,0.0,0.0,1.9425,0.0,0.0,0.0,0.0,0.0,1.8017,1.805,1.8375,1.8886,1.901,0.0,0.0,1.9318,0.0,0.0,0.0,0.0,0.0,2.2561,2.4346,2.4797,2.8157,3.254,3.459,3.5894,3.6692,3.6819,3.7399,3.8171,3.8799,3.9296,3.9771,4.0226,4.0634,4.0063,3.6909,3.5997,3.4939,3.187,3.19,3.2503,3.2623,3.5378,3.7881,3.8824,4.1026,4.3622,4.655,4.7648,4.9456,5.2843,5.3821,5.4853,5.6377,5.6452,5.6537,5.6901,5.7583,5.7899,5.7581,5.7594,5.7765,5.8129,5.807,5.7957,5.7839,5.6965,5.6445,5.6348,5.5564,5.5169,5.5073,5.5169,5.5241,5.5265,5.5818,5.602,5.602,5.602,5.6299,5.6636,5.6308,5.6188,5.6284,5.6909,5.6885,5.6596,0.0,0.0,0.0,0.0,0.0,0.0,1.7531,1.8924,2.0874,2.4025,2.39,2.3063,2.1869,2.0241,1.8569,0.0,0.0,0.0,0.0,0.0,0.0,0.0,0.0,0.0,0.0,0.0,0.0,0.0,1.8483,0.0,0.0,0.0,0.0,0.0,0.0,1.8093,1.8185,1.8821,0.0,0.0,0.0,0.0,0.0,0.0,0.0,0.0,0.0,2.056,2.0461,2.5359,2.6579,2.6762,3.1043,3.4125,3.6278,3.6823,3.7274,3.7839,3.9089,3.9771,4.0226,4.0717,4.0877,4.0132,3.7153,3.6829,3.5921,3.1634,3.243,3.3557,3.239,3.4819,3.7617,3.9477,4.1362,4.388,4.7551,4.9629,5.1477,5.3413,5.5016,5.6236,5.6861,5.6613,5.6837,5.7866,5.7775,5.7967,5.8674,5.8422,5.804,5.7695,5.7184,5.6784,5.6378,5.5824,5.5256,5.4798,5.4712,5.4423,5.3966,5.4447,5.4688,5.4712,5.5241,5.5482,5.5482,5.5482,5.5506,5.5578,5.602,5.6188,5.6308,5.7357,5.7718,5.7742,0.0,0.0,0.0,0.0,0.0,0.0,1.8611,1.9714,2.1478,2.4996,2.5313,2.4732,2.3428,2.1998,1.9936,1.6933,0.0,0.0,0.0,0.0,0.0,0.0,0.0,0.0,0.0,0.0,0.0,1.9012,1.9034,0.0,0.0,0.0,0.0,0.0,0.0,1.7746,1.7702,1.818,0.0,0.0,0.0,0.0,0.0,0.0,0.0,0.0,0.0,0.0,2.0992,2.2695,2.4687,2.677,2.8551,3.0662,3.2867,3.5037,3.6518,3.7736,3.8799,3.9626,4.0288,4.0758,4.0941,4.0305,3.7796,3.7081,3.6093,3.3116,3.3122,3.367,3.3592,3.5181,3.7187,3.9423,4.0725,4.2831,4.6754,4.8743,5.0663,5.3053,5.4959,5.6432,5.7279,5.6762,5.6524,5.6895,5.6498,5.6542,5.7162,5.7116,5.6934,5.6776,5.6221,5.5878,5.5722,5.5193,5.4808,5.4616,5.4279,5.4183,5.4303,5.452,5.4784,5.5121,5.565,5.589,5.5914,5.6251,5.6564,5.6876,5.7093,5.7381,5.7718,5.8127,5.8271,5.8319,0.0,0.0,0.0,0.0,0.0,1.5988,1.8935,2.0147,2.1895,2.519,2.5786,2.5509,2.4325,2.2641,2.0453,1.763,1.6786,0.0,0.0,0.0,0.0,0.0,0.0,0.0,0.0,0.0,1.9102,1.9406,1.9516,1.9269,0.0,0.0,1.8538,1.8027,0.0,0.0,0.0,0.0,0.0,0.0,0.0,0.0,0.0,0.0,0.0,0.0,0.0,0.0,0.0,0.0,0.0,2.5922,2.6298,2.7687,2.9886,3.3427,3.5716,3.7313,3.8358,3.9703,4.0862,4.1063,4.1228,4.0746,3.8402,3.7309,3.6207,3.4147,3.3513,3.3552,3.4274,3.5215,3.6708,3.9077,4.0108,4.2217,4.6721,4.8259,5.0057,5.3128,5.456,5.5781,5.715,5.6886,5.6548,5.627,5.5718,5.5641,5.6218,5.5897,5.5779,5.5947,5.5458,5.5169,5.5169,5.464,5.4375,5.4375,5.4159,5.4255,5.4616,5.476,5.5145,5.5674,5.602,5.638,5.6668,5.6885,5.743,5.8031,5.7862,5.8127,5.8608,5.8776,5.8824,5.88,0.0,0.0,0.0,0.0,0.0,0.0,1.8045,2.0142,2.2305,2.4598,2.5126,2.5104,2.4573,2.189,1.9889,1.9322,1.75,0.0,0.0,0.0,0.0,0.0,0.0,0.0,0.0,0.0,1.9101,2.0107,1.9552,1.9297,1.9275,1.8825,1.8346,1.7883,0.0,0.0,0.0,0.0,0.0,0.0,0.0,0.0,0.0,0.0,0.0,0.0,0.0,0.0,0.0,0.0,0.0,0.0,0.0,2.5813,2.8171,3.2463,3.4853,3.6455,3.7898,4.0257,4.2161,4.1705,4.1837,4.1415,3.8869,3.7604,3.6381,3.4154,3.3431,3.3338,3.3827,3.4615,3.6003,3.853,3.9748,4.2392,4.8186,4.8928,5.0267,5.3963,5.3886,5.4311,5.6319,5.6934,5.7019,5.6601,5.5872,5.5757,5.6524,5.5325,5.4856,5.5385,5.488,5.4616,5.4616,5.4087,5.3822,5.3785,5.4351,5.4592,5.4616,5.5145,5.5698,5.6188,5.6188,5.6789,5.7742,5.7237,5.7646,5.8536,5.8007,5.8127,5.8656,5.9185,5.9378,5.9305,0.0,0.0,0.0,0.0,0.0,0.0,0.0,1.8296,1.9931,2.2225,2.2576,2.2747,2.3093,2.0904,1.9348,1.9185,1.7475,0.0,0.0,0.0,0.0,0.0,0.0,0.0,0.0,0.0,2.0073,2.0732,2.1108,2.0965,2.0386,1.9857,1.9188,1.8331,1.7549,0.0,0.0,0.0,0.0,0.0,0.0,0.0,0.0,0.0,0.0,0.0,0.0,0.0,0.0,0.0,0.0,0.0,0.0,0.0,0.0,3.0374,3.3184,3.5776,3.7488,3.9056,4.0094,3.9512,3.9443,3.9066,3.716,3.6137,3.5245,3.3797,3.3222,3.3171,3.3784,3.4401,3.624,4.0572,4.1207,4.2734,4.7267,4.9698,5.1373,5.2392,5.5132,5.6936,5.7056,5.7222,5.7077,5.6376,5.5583,5.5246,5.5471,5.4913,5.4688,5.4856,5.4351,5.4423,5.5145,5.4616,5.4904,5.6011,5.5433,5.553,5.6251,5.6059,5.6212,5.6741,5.6741,5.7165,5.7838,5.8031,5.8512,5.9161,5.9353,5.9522,5.9642,5.945,5.9378,5.9353,0.0,0.0,0.0,0.0,0.0,0.0,0.0,1.711,1.8458,2.0062,2.0418,2.0907,2.1878,1.9768,1.8522,1.9056,1.7424,0.0,0.0,0.0,0.0,0.0,0.0,0.0,0.0,1.927,2.0154,2.1297,2.1983,2.2134,2.1765,2.1433,2.0369,1.8748,1.7995,1.7369,0.0,0.0,0.0,0.0,0.0,0.0,1.8439,0.0,0.0,0.0,0.0,0.0,0.0,0.0,0.0,0.0,0.0,0.0,0.0,0.0,3.1529,3.3899,3.5895,3.765,3.8791,3.8231,3.8333,3.8059,3.6243,3.5294,3.4479,3.3327,3.2823,3.2885,3.3866,3.4486,3.6126,4.0037,4.0788,4.2502,4.7097,4.9561,5.133,5.2644,5.5793,5.7553,5.6749,5.7123,5.7276,5.6971,5.6212,5.598,5.6537,5.5813,5.5401,5.5401,5.4744,5.4736,5.5385,5.5073,5.553,5.6668,5.6227,5.6468,5.7309,5.7189,5.7309,5.7598,5.7405,5.7622,0.0,5.8031,5.844,5.9113,5.9233,5.9402,5.957,5.9426,5.9378,5.9378,0.0,0.0,0.0,0.0,0.0,0.0,0.0,1.6401,1.7683,1.819,1.8642,1.9392,2.0661,1.8494,1.7476,1.8791,0.0,0.0,0.0,0.0,0.0,0.0,0.0,0.0,0.0,1.8476,1.9578,2.1797,2.2377,2.2873,2.3329,2.3329,2.1878,1.9222,1.8708,1.7714,0.0,0.0,0.0,0.0,1.7089,1.7642,0.0,0.0,0.0,0.0,0.0,0.0,0.0,0.0,0.0,0.0,0.0,0.0,0.0,0.0,0.0,0.0,0.0,3.5879,3.7863,3.7428,3.7868,3.7836,3.5818,3.481,0.0,3.2888,3.2374,3.2621,3.4199,3.4857,3.5818,3.7952,3.9306,4.2058,4.7685,4.9083,5.0856,5.4524,5.6104,5.6652,5.5895,5.6861,5.777,5.8258,5.7576,5.7719,5.902,5.765,5.684,5.684,5.6099,5.5622,5.5506,5.5554,5.5866,5.6428,5.6885,5.7405,5.7935,5.8392,5.8608,5.856,5.8079,5.8151,5.8512,5.755,5.7718,5.856,5.8103,5.8223,5.8704,5.9209,5.9378,5.9378,0.0,0.0,0.0,0.0,0.0,0.0,0.0,0.0,0.0,0.0,1.6983,1.7279,1.7895,1.7104,1.6678,0.0,0.0,0.0,0.0,0.0,0.0,0.0,0.0,0.0,0.0,1.9098,2.0241,2.1797,2.3308,2.428,2.4735,2.4735,2.3246,2.0596,1.9824,1.8331,0.0,0.0,0.0,0.0,1.7926,1.8418,0.0,0.0,0.0,0.0,1.9975,2.062,0.0,0.0,0.0,0.0,0.0,0.0,0.0,0.0,2.8847,2.9564,3.0548,0.0,3.4642,3.4031,3.4027,3.4065,0.0,3.3141,3.2627,3.3047,3.2837,3.3329,3.5887,3.5391,3.6485,4.2236,4.2538,4.394,4.944,5.2549,5.5132,5.7346,5.7904,5.8034,5.7822,5.8508,5.8977,5.9081,5.8804,5.8769,5.9082,5.8555,5.8212,5.8212,5.842,5.7907,5.6636,5.7045,5.7718,5.8632,5.8367,5.8512,5.9017,5.8728,5.8608,5.8584,5.8464,5.8488,5.8584,5.8319,5.8367,5.8632,5.8897,5.9089,5.9209,5.9329,5.9378,5.9378,0.0,0.0,0.0,0.0,0.0,0.0,0.0,0.0,0.0,0.0,0.0,1.6229,1.667,1.6519,0.0,0.0,0.0,0.0,0.0,0.0,0.0,0.0,0.0,0.0,1.8071,1.8791,2.0117,2.2128,2.3515,2.4674,2.5523,2.5523,2.4053,2.1342,1.9396,1.7947,0.0,0.0,0.0,0.0,1.8055,0.0,0.0,0.0,0.0,0.0,2.0334,2.1393,0.0,2.5772,2.7349,2.8332,0.0,0.0,0.0,0.0,2.8147,2.8298,2.8875,3.1165,3.3458,3.3607,3.3731,3.3898,3.4086,3.3118,3.2284,3.2718,3.2896,3.3542,3.5494,3.6818,3.8739,4.2197,4.4545,4.7592,5.2306,5.5031,5.7082,5.834,5.8523,5.8523,5.8523,5.9045,5.95,5.9751,5.9897,6.0116,6.0412,5.9933,5.963,5.963,5.9777,5.9331,5.8143,5.8286,5.8621,5.9203,5.9054,5.9113,5.9378,5.9329,5.9329,5.9305,5.88,5.8608,5.856,5.8079,5.8007,5.8264,5.8693,5.8985,5.9285,5.965,5.9812,5.9861,0.0,0.0,0.0,0.0,0.0,0.0,0.0,0.0,0.0,0.0,0.0,0.0,0.0,0.0,0.0,0.0,0.0,0.0,0.0,0.0,0.0,0.0,0.0,1.6933,1.7895,1.8361,1.9889,2.2501,2.3722,2.4882,2.6022,2.6436,2.5027,2.1983,1.8841,1.7523,0.0,0.0,0.0,0.0,1.8035,0.0,0.0,0.0,0.0,0.0,0.0,0.0,0.0,2.6496,2.8354,2.9766,3.0005,0.0,0.0,0.0,0.0,0.0,2.8348,3.111,3.3773,3.405,3.4555,3.4956,3.4856,3.3693,3.2562,3.2415,3.3054,3.4105,3.5566,3.8823,4.1384,4.1695,4.6643,5.1663,5.5208,5.6875,5.7964,5.8558,5.8575,5.8549,5.8627,5.915,5.9725,6.0326,6.0901,6.145,6.1984,6.1306,6.0889,6.0889,6.0697,6.0349,5.9894,5.9439,5.9235,5.9207,5.9437,5.9557,5.9609,6.0014,6.0165,6.0045,5.9113,5.8632,5.8416,5.7598,5.751,5.7887,5.8265,5.8743,5.9326,6.0137,6.0398,6.0487,0.0,0.0,0.0,0.0,0.0,0.0,0.0,0.0,0.0,0.0,0.0,0.0,0.0,0.0,0.0,0.0,0.0,0.0,0.0,0.0,0.0,0.0,0.0,1.7538,1.8853,1.9347,2.0532,2.2501,2.4986,2.6291,2.654,2.8881,2.7679,2.3453,2.0614,1.8733,1.7709,0.0,0.0,1.8418,1.875,0.0,0.0,0.0,0.0,0.0,0.0,0.0,0.0,2.4342,2.6245,2.7965,2.784,0.0,0.0,0.0,0.0,0.0,3.0125,3.3668,3.5762,3.2394,3.2769,3.3866,3.3642,3.3361,3.316,3.3146,3.431,3.6668,4.1048,4.1239,4.2398,4.7577,5.1111,5.3997,5.6272,5.8053,5.9153,5.9238,5.881,5.8706,5.9212,5.9751,6.0326,6.0917,6.1529,6.1906,6.201,6.186,6.1823,6.1823,6.175,6.1712,6.1634,6.0766,6.028,6.0101,6.0089,6.0185,6.0408,6.0265,5.9931,5.9498,5.9329,5.8752,5.7959,5.8247,5.8265,5.8236,5.9174,5.9791,6.0165,6.076,6.0975,6.1043,0.0,0.0,0.0,0.0,0.0,0.0,0.0,0.0,0.0,0.0,0.0,0.0,0.0,0.0,0.0,0.0,0.0,0.0,0.0,0.0,0.0,0.0,1.8485,1.8833,1.9471,2.0635,2.2148,2.395,2.6001,2.751,2.8545,2.8331,2.6686,2.3774,2.0761,1.9276,1.8972,1.8579,1.8768,1.9307,0.0,0.0,0.0,0.0,0.0,0.0,0.0,0.0,0.0,0.0,2.7396,2.91,2.8394,0.0,0.0,0.0,0.0,0.0,2.8693,3.1582,3.4076,3.4195,3.736,4.0516,4.099,4.0408,3.9528,3.8531,3.9157,4.0703,4.3447,4.4704,4.7485,5.3983,5.4741,5.5468,5.8235,5.8558,5.8715,5.9343,5.9186,5.9107,5.9369,6.0493,6.1163,6.1073,6.1947,6.2287,6.2037,6.201,6.201,6.201,6.201,6.201,6.201,6.1385,6.0899,6.0505,6.0601,6.0367,5.9729,5.9927,5.9844,5.9576,5.8861,5.8491,5.8449,5.8401,5.8494,5.8758,5.9847,6.056,6.1014,6.1454,6.1583,6.1595,0.0,0.0,0.0,0.0,0.0,0.0,0.0,0.0,0.0,0.0,0.0,0.0,0.0,0.0,0.0,0.0,0.0,0.0,0.0,0.0,0.0,1.9222,2.0131,2.0715,2.0902,2.2252,2.3992,2.6091,2.7584,2.9202,3.0808,2.8099,2.5928,2.4169,2.1161,1.9909,2.0025,1.9001,1.9157,2.0047,0.0,0.0,0.0,0.0,0.0,0.0,0.0,0.0,0.0,0.0,0.0,0.0,0.0,0.0,0.0,2.7512,2.6876,2.6977,2.8291,3.0457,3.3255,3.691,4.0798,4.4442,4.7033,4.599,4.4464,4.4228,4.4514,4.5097,4.6087,4.8719,5.2439,5.7756,5.719,5.7111,5.9976,5.9176,5.8663,5.9683,5.9578,5.9552,5.997,6.1095,6.1764,6.1711,6.2287,6.2496,6.2182,6.2089,6.201,6.201,6.201,6.201,6.201,6.1746,6.1402,6.1029,6.1084,6.0561,5.9603,5.9934,6.0051,5.9863,5.8804,5.8656,5.9079,5.8807,5.8974,5.9473,6.0506,6.1198,6.1633,6.1904,6.201,6.201,0.0,0.0,0.0,0.0,0.0,0.0,0.0,0.0,0.0,0.0,0.0,0.0,0.0,0.0,0.0,0.0,0.0,0.0,0.0,0.0,1.8303,1.9679,0.0,0.0,2.4157,2.428,2.5802,2.8733,3.0524,3.1899,3.2849,3.0205,2.7716,2.5371,2.295,0.0,0.0,0.0,0.0,2.0096,2.0047,0.0,0.0,0.0,0.0,0.0,0.0,0.0,0.0,0.0,0.0,0.0,0.0,0.0,2.8298,2.8631,2.8021,2.804,3.1683,3.3922,3.6033,3.9396,3.8523,3.8671,4.574,4.4704,4.3517,4.7992,4.8928,4.9435,5.091,5.3113,5.5027,5.5987,5.7791,5.9552,6.0875,6.0457,6.0274,6.0927,6.0039,6.0049,6.167,6.1424,6.1816,6.3384,6.2638,6.2234,6.2693,6.226,6.201,6.201,6.201,6.201,6.201,6.1961,6.1924,6.1898,6.1358,6.118,6.1311,6.1087,6.0745,6.0269,6.018,5.9879,5.9506,5.9943,6.0335,6.0648,6.121,6.1645,6.195,6.1999,6.201,6.201,0.0,0.0,0.0,0.0,0.0,0.0,0.0,0.0,0.0,0.0,0.0,0.0,0.0,0.0,0.0,0.0,0.0,0.0,0.0,0.0,1.8746,2.0827,2.2453,2.4272,2.6319,2.7833,2.9429,3.1127,3.2339,3.3143,3.3449,3.0165,2.771,2.5919,0.0,0.0,0.0,0.0,0.0,2.1681,2.0549,1.9852,0.0,0.0,0.0,0.0,0.0,0.0,0.0,0.0,2.5461,2.6934,2.664,2.7476,2.8505,2.8047,2.762,2.7763,2.9905,3.331,3.6834,3.9371,4.0501,4.2674,4.9036,5.0571,5.1085,5.2346,5.3724,5.4395,5.3429,5.5992,5.8131,5.7608,5.9176,6.0744,6.1529,6.1136,6.1006,6.1581,6.0953,6.0849,6.1906,6.2104,6.2313,6.2638,6.2548,6.2443,6.2313,6.2115,6.201,6.201,6.201,6.201,6.201,6.201,6.201,6.201,6.1784,6.1403,6.0993,6.0889,6.0748,6.0506,6.0003,5.9955,6.024,6.0468,6.061,6.0762,6.1501,6.1892,6.2123,6.3011,6.3379,6.3379,0.0,0.0,0.0,0.0,0.0,0.0,0.0,0.0,0.0,0.0,0.0,0.0,0.0,0.0,0.0,0.0,0.0,0.0,0.0,1.76,1.9146,2.1313,2.2725,2.4913,2.7995,3.0465,3.2113,3.2898,3.4012,3.4075,3.3055,3.0136,2.8268,0.0,0.0,0.0,0.0,0.0,0.0,0.0,2.1152,2.0215,0.0,0.0,0.0,0.0,0.0,0.0,0.0,0.0,2.5259,2.649,2.6414,2.7426,2.858,2.8197,2.88,2.9829,3.0738,3.384,3.7519,4.0618,4.2707,4.5581,5.1722,5.3921,5.512,5.6631,5.7575,5.772,5.6157,5.8053,5.9634,5.8924,6.0248,6.1581,6.2156,6.1581,6.1398,6.2156,6.1581,6.1424,6.2182,6.2443,6.2548,6.256,6.2548,6.2469,6.226,6.2115,6.201,6.201,6.201,6.201,6.201,6.201,6.201,6.201,6.201,6.171,6.1117,6.1117,6.1117,6.1079,6.0546,6.0622,6.1117,6.1117,6.1117,6.123,6.2257,6.2704,6.289,6.4346,6.4895,6.4895,0.0,0.0,0.0,0.0,0.0,0.0,0.0,0.0,0.0,0.0,0.0,0.0,0.0,0.0,0.0,0.0,0.0,0.0,1.7205,1.8225,1.9466,2.0951,2.2802,2.5515,2.9164,3.1744,3.3382,3.4029,3.5594,3.4763,3.1664,3.039,0.0,0.0,0.0,0.0,0.0,0.0,0.0,0.0,2.1872,2.1363,2.124,0.0,0.0,0.0,0.0,0.0,0.0,0.0,2.4816,2.5193,2.7394,2.8097,2.8348,2.9453,3.2114,3.4778,3.5307,3.6257,3.8338,4.3659,4.4544,4.6009,5.311,5.3231,5.3795,6.0623,6.0309,5.8916,5.9329,5.9244,5.9202,5.9388,6.0886,6.2182,6.2719,6.1805,6.1517,6.2667,6.1779,6.1543,6.2667,6.2313,6.2481,6.3606,6.2638,6.2208,6.2745,6.2287,6.201,6.201,6.201,6.201,6.201,6.201,6.201,6.201,6.201,6.201,6.201,6.201,6.201,6.201,6.201,6.201,6.201,6.201,6.2048,6.2172,6.3646,6.4201,6.4383,6.5892,6.6391,6.6391,0.0,0.0,0.0,0.0,0.0,0.0,0.0,0.0,0.0,0.0,0.0,0.0,0.0,0.0,0.0,0.0,0.0,0.0,1.7806,1.8435,1.9553,2.1283,2.2911,2.4595,2.6319,2.9023,3.2182,3.5683,3.4556,3.3352,3.2008,0.0,0.0,0.0,0.0,0.0,0.0,0.0,0.0,0.0,2.3213,2.2788,2.2889,0.0,0.0,0.0,0.0,0.0,0.0,0.0,0.0,0.0,2.6633,2.8298,2.976,2.9308,3.0412,3.1925,3.2412,3.7272,4.2287,4.2602,4.8131,5.3753,5.4789,5.5988,5.798,6.1961,6.0234,5.8315,5.9222,6.0017,6.0263,5.95,6.1163,6.2626,6.2771,6.2484,6.26,6.3332,6.2417,6.1999,6.2719,6.2313,6.2141,6.2481,6.2193,6.2089,6.2208,6.2115,6.201,6.201,6.201,6.201,6.201,6.201,6.201,6.201,6.201,6.201,6.201,6.201,6.201,6.201,6.201,6.201,6.2085,6.3122,6.4165,6.5146,6.5573,6.5751,6.5927,6.7461,6.8009,6.8009,0.0,0.0,0.0,0.0,0.0,0.0,0.0,0.0,1.587,1.634,1.6388,1.6388,0.0,0.0,0.0,1.7163,1.7642,0.0,1.8441,1.9345,2.0394,2.1566,2.3279,2.4956,2.6578,2.892,3.1215,3.3423,3.2489,3.1564,0.0,0.0,0.0,0.0,0.0,0.0,0.0,0.0,0.0,0.0,0.0,2.3564,2.3925,0.0,0.0,0.0,0.0,0.0,0.0,0.0,0.0,0.0,2.6323,2.7788,2.9611,3.1218,3.2675,3.4476,3.787,4.2421,4.6624,4.8505,5.2789,5.6836,5.7783,5.8708,6.0007,6.2405,6.0961,5.9522,6.0295,6.1311,6.1741,6.0886,6.2104,6.3254,6.3424,6.3085,6.3045,6.362,6.2717,6.2141,6.2443,6.2182,6.201,6.201,6.201,6.201,6.201,6.201,6.201,6.201,6.201,6.201,6.201,6.201,6.201,6.201,6.201,6.201,6.201,6.201,6.201,6.201,6.201,6.201,6.2085,6.2964,6.4201,6.5573,6.6174,6.6775,6.7496,6.9019,6.9582,6.9582,0.0,0.0,0.0,0.0,0.0,0.0,0.0,1.5421,1.5911,1.6299,1.6424,1.6474,0.0,0.0,0.0,1.7191,1.8242,1.8909,1.8909,2.0477,2.1505,2.1837,2.387,2.6186,2.8762,3.0227,3.0253,2.8737,2.9873,2.9672,0.0,0.0,0.0,0.0,0.0,0.0,0.0,0.0,0.0,0.0,0.0,2.3854,2.4564,2.288,0.0,0.0,0.0,0.0,0.0,0.0,0.0,0.0,2.6373,2.6959,2.847,3.3714,3.6796,4.0057,4.726,4.9225,5.0886,5.7778,5.7516,5.6724,6.1156,6.1037,6.0493,6.2254,6.2086,6.1737,6.1996,6.2772,6.3227,6.2926,6.3384,6.3907,6.4339,6.3529,6.3071,6.3541,6.2664,6.201,6.201,6.201,6.201,6.201,6.201,6.201,6.201,6.201,6.201,6.201,6.201,6.201,6.201,6.201,6.201,6.201,6.201,6.201,6.201,6.201,6.201,6.201,6.2134,6.2284,6.2433,6.2556,6.3463,6.4931,6.6314,6.7667,6.9052,7.0433,7.0889,7.0889,0.0,0.0,0.0,0.0,0.0,0.0,1.4987,1.5704,1.6139,1.5891,1.6643,1.6983,1.6459,1.6969,0.0,1.7213,1.7875,1.8282,1.8282,1.9628,2.0954,2.2147,2.4878,2.6974,2.8254,2.7937,2.7741,2.7645,2.8568,2.8733,0.0,0.0,0.0,0.0,0.0,0.0,0.0,0.0,0.0,0.0,0.0,0.0,2.5619,2.4036,2.3943,0.0,0.0,0.0,0.0,0.0,0.0,0.0,2.6809,2.7795,2.8793,3.0029,3.4292,3.9034,4.1075,4.6996,5.3069,5.5175,5.7414,5.9486,6.0991,6.1112,6.1164,6.2338,6.1863,6.1498,6.2443,6.2769,6.3042,6.341,6.3985,6.4221,6.3907,6.3646,6.3384,6.3045,6.2391,6.201,6.201,6.201,6.201,6.201,6.201,6.201,6.201,6.201,6.201,6.201,6.201,6.201,6.201,6.201,6.201,6.201,6.201,6.201,6.201,6.201,6.201,6.2085,6.3232,6.4383,6.5538,6.6769,6.8112,6.9516,6.9814,7.014,7.0498,7.0791,7.0889,7.0889,0.0,0.0,0.0,0.0,0.0,0.0,0.0,0.0,1.5974,1.5725,1.6398,1.6793,1.6431,1.6941,0.0,0.0,1.7765,1.8215,1.8521,1.9939,2.1829,2.4197,2.6166,2.7345,2.7702,2.7526,2.7112,2.6482,2.6852,0.0,0.0,0.0,0.0,0.0,0.0,0.0,0.0,0.0,0.0,0.0,0.0,0.0,0.0,0.0,2.4231,2.4583,2.4074,0.0,0.0,0.0,0.0,0.0,0.0,0.0,2.8673,3.1451,3.4264,3.7802,4.3913,4.9117,5.3532,5.6471,5.8724,6.0263,6.0614,6.0864,6.1409,6.2471,6.2269,6.2092,6.2667,6.3241,6.3712,6.4038,6.4325,6.4391,6.4116,6.362,6.3149,6.2823,6.2313,6.201,6.201,6.201,6.201,6.201,6.201,6.201,6.201,6.201,6.201,6.201,6.201,6.201,6.201,6.201,6.201,6.201,6.201,6.201,6.201,6.2741,6.3453,6.4129,6.4895,6.5715,6.6461,6.726,6.8485,6.9847,6.9847,7.0272,7.0889,7.0889,7.0889,7.0889,0.0,0.0,0.0,0.0,0.0,0.0,0.0,0.0,0.0,1.5601,1.6168,1.6531,1.6402,1.6899,1.724,0.0,0.0,0.0,1.8802,2.0605,2.2927,2.5864,2.7005,2.7365,2.6966,2.7541,2.7122,2.5668,2.555,0.0,0.0,0.0,0.0,0.0,0.0,0.0,0.0,0.0,0.0,0.0,0.0,0.0,0.0,0.0,0.0,0.0,2.4073,2.46,2.5661,2.6884,0.0,0.0,0.0,0.0,2.8286,3.3323,3.4743,3.6895,4.7214,5.1118,5.3579,5.9133,6.0457,6.0368,6.0509,6.098,6.1648,6.2588,6.2797,6.285,6.3059,6.3764,6.4391,6.4469,6.4417,6.4312,6.4208,6.3372,6.2745,6.2679,6.226,6.201,6.201,6.201,6.201,6.201,6.201,6.201,6.201,6.201,6.201,6.201,6.201,6.201,6.201,6.201,6.201,6.201,6.2246,6.263,6.3195,6.4419,6.536,6.6005,6.6314,6.6531,6.6838,6.7053,6.7941,6.9086,6.9086,6.9814,7.0889,7.0889,7.0889,7.0889,0.0,0.0,0.0,0.0,0.0,0.0,0.0,0.0,0.0,0.0,1.6363,1.7053,1.6459,1.6983,1.7324,1.7205,1.7765,1.8133,1.8215,0.0,0.0,2.3857,2.6119,2.682,2.5685,2.6338,2.6459,2.5955,2.6205,0.0,0.0,0.0,0.0,0.0,0.0,0.0,0.0,0.0,0.0,0.0,0.0,0.0,0.0,0.0,0.0,0.0,0.0,0.0,2.5143,2.6758,2.7311,0.0,0.0,0.0,2.7702,2.9748,3.325,3.7062,3.9804,4.6741,5.4583,6.0337,6.1372,6.1136,6.1633,6.2182,6.2614,6.2745,6.2797,6.3085,6.4077,6.4012,6.3959,6.4417,6.4116,6.362,6.3085,6.2876,6.2652,6.213,6.2063,6.201,6.201,6.201,6.201,6.201,6.201,6.201,6.201,6.201,6.201,6.201,6.201,6.201,6.201,6.201,6.201,6.201,6.3306,6.5289,6.7804,6.8009,6.6804,6.4563,6.5857,6.7185,6.8485,6.9781,7.0403,7.0596,7.0596,7.0726,7.0889,7.0889,7.0889,7.0889,0.0,0.0,0.0,0.0,0.0,0.0,0.0,0.0,0.0,0.0,0.0,1.6722,1.6431,1.6652,1.6941,1.7185,1.7179,1.7553,1.8492,2.0225,2.2004,2.3724,2.5372,2.5994,2.5521,2.6169,2.607,2.5175,0.0,0.0,0.0,3.0017,3.0546,0.0,0.0,0.0,0.0,0.0,0.0,0.0,0.0,0.0,0.0,0.0,0.0,0.0,0.0,0.0,0.0,2.7293,2.7745,2.7846,2.838,0.0,0.0,0.0,3.1507,3.5314,4.268,4.9268,5.5318,6.065,6.179,6.1581,6.1502,6.2182,6.2876,6.3227,6.3306,6.3463,6.3959,6.3855,6.375,6.4012,6.3567,6.3123,6.2823,6.2548,6.226,6.2037,6.201,6.201,6.201,6.201,6.201,6.201,6.201,6.201,6.201,6.201,6.201,6.201,6.201,6.201,6.201,6.201,6.2433,6.3269,6.4743,6.6139,6.7398,6.7398,6.7633,6.8009,6.862,6.9316,6.9979,7.0629,7.0889,7.0889,7.0889,7.0889,7.0889,7.0889,7.0889,7.0889,0.0,0.0,0.0,0.0,0.0,0.0,0.0,0.0,0.0,0.0,0.0,1.6388,1.6388,0.0,0.0,0.0,1.7053,1.7495,1.9039,1.9957,2.1317,2.3246,2.4565,2.5146,2.4938,2.5518,2.5379,2.4438,0.0,0.0,2.892,3.0686,3.1524,0.0,3.2041,0.0,0.0,0.0,0.0,0.0,0.0,2.651,0.0,0.0,0.0,0.0,0.0,0.0,0.0,0.0,2.8097,2.8241,2.9038,2.8983,0.0,0.0,0.0,3.3615,4.4125,4.891,5.2439,5.8855,6.0431,6.0666,6.1555,6.2443,6.3201,6.3776,6.3776,6.371,6.371,6.3541,6.3463,6.3463,6.2992,6.26,6.26,6.2234,6.201,6.201,6.201,6.201,6.201,6.201,6.201,6.201,6.201,6.201,6.201,6.201,6.201,6.201,6.201,6.201,6.201,6.201,6.2927,6.4752,6.5892,6.6775,6.7564,6.7564,6.8784,7.0856,7.0501,7.0563,7.0889,7.0889,7.0889,7.0889,7.0889,7.0889,7.0889,7.0889,7.0889,7.0889,0.0,0.0,0.0,0.0,0.0,0.0,0.0,0.0,0.0,0.0,0.0,1.6388,1.6388,1.6388,1.685,1.7957,1.8025,1.8514,1.9675,2.0288,2.0837,2.1415,2.3627,0.0,2.3168,2.3675,2.4059,0.0,0.0,0.0,2.91,3.0919,3.2984,3.5103,3.4721,3.1713,2.6985,0.0,0.0,0.0,0.0,2.7371,0.0,0.0,0.0,0.0,0.0,0.0,0.0,0.0,2.8097,2.8371,2.9852,0.0,0.0,0.0,0.0,0.0,3.8747,4.0739,4.3572,5.3687,5.6223,5.7503,6.2417,6.3593,6.3803,6.4339,6.4064,6.371,6.371,6.3227,6.2823,6.2823,6.2391,6.2063,6.2063,6.2037,6.201,6.201,6.201,6.201,6.201,6.201,6.201,6.201,6.201,6.201,6.201,6.201,6.201,6.201,6.201,6.201,6.201,6.201,6.3426,6.6314,6.6356,6.7907,7.0661,7.0661,7.0759,7.0824,6.9416,6.9615,7.0889,7.0889,7.0889,7.0889,7.0889,7.0889,7.0889,7.0889,7.0889,7.0889,0.0,0.0,0.0,0.0,0.0,0.0,0.0,0.0,0.0,0.0,0.0,0.0,0.0,0.0,0.0,0.0,1.8682,1.9013,1.9744,1.9506,2.0254,2.2363,2.2358,2.2722,2.3619,2.3425,0.0,0.0,0.0,2.532,2.8816,3.0541,3.1772,3.2611,3.3715,3.2536,2.9665,2.8527,0.0,0.0,0.0,0.0,0.0,0.0,0.0,0.0,0.0,0.0,0.0,0.0,0.0,0.0,0.0,0.0,0.0,0.0,3.1312,3.3628,3.8425,4.0711,4.3415,5.032,5.4001,5.6588,5.9264,6.1853,6.3829,6.4365,6.4064,6.371,6.371,6.2914,6.2287,6.2287,6.2141,6.201,6.201,6.201,6.201,6.201,6.201,6.201,6.201,6.201,6.201,6.201,6.201,6.201,6.201,6.201,6.201,6.201,6.201,6.2666,6.4026,6.499,6.6708,6.9176,7.0137,7.1386,7.2834,7.2834,7.3043,7.3432,7.245,7.183,7.1577,7.2026,7.2206,7.2206,7.2206,7.2206,7.2206,7.2206,7.2206,7.2206,0.0,0.0,0.0,0.0,0.0,0.0,0.0,0.0,0.0,0.0,0.0,0.0,0.0,0.0,0.0,0.0,1.9408,1.9593,1.9728,1.9805,2.0641,2.2408,2.2302,2.2771,2.3973,2.3094,0.0,0.0,0.0,0.0,0.0,0.0,3.1189,3.1973,3.2894,0.0,0.0,0.0,0.0,2.8046,0.0,0.0,3.5504,0.0,0.0,0.0,0.0,0.0,0.0,0.0,0.0,0.0,0.0,0.0,0.0,0.0,0.0,0.0,3.6162,3.8332,4.1077,4.6529,4.974,5.2798,5.7451,6.018,6.2298,6.4378,6.4221,6.371,6.371,6.2769,6.201,6.201,6.201,6.201,6.201,6.201,6.201,6.201,6.201,6.201,6.201,6.201,6.201,6.201,6.201,6.201,6.201,6.201,6.2089,6.226,6.226,6.3324,6.5469,6.6467,6.8209,7.0732,7.1688,7.2785,7.3881,7.3881,7.424,7.4903,7.4659,7.3791,7.2595,7.2804,7.2924,7.2924,7.2924,7.2924,7.2924,7.2924,7.2924,7.2924,0.0,0.0,0.0,0.0,0.0,0.0,0.0,0.0,0.0,0.0,0.0,0.0,0.0,0.0,0.0,0.0,2.0336,2.0413,1.9757,2.1298,2.2002,2.1384,2.3513,2.4467,2.4004,0.0,0.0,0.0,0.0,0.0,0.0,0.0,3.1338,0.0,3.267,3.2072,3.1877,0.0,3.3627,3.2675,0.0,3.8288,3.5793,0.0,0.0,0.0,4.314,4.3872,0.0,4.3793,0.0,0.0,0.0,0.0,0.0,0.0,0.0,0.0,0.0,0.0,0.0,4.2081,4.3258,4.587,5.7155,5.8601,5.9003,6.4142,6.4364,6.3632,6.371,6.2795,6.2037,6.201,6.201,6.201,6.201,6.201,6.201,6.201,6.201,6.201,6.201,6.201,6.201,6.201,6.201,6.201,6.201,6.2037,6.226,6.2797,6.2823,6.3869,6.5992,6.6067,6.7686,7.0755,7.0824,7.19,7.3941,7.3971,7.433,7.4993,7.5647,7.5198,7.3941,7.3283,7.298,7.298,7.3013,7.3043,7.3043,7.3043,7.3043,7.3043,0.0,0.0,0.0,0.0,0.0,1.7735,1.7393,1.7616,0.0,0.0,0.0,0.0,0.0,0.0,0.0,0.0,2.3164,2.2798,2.2153,2.1777,2.1868,2.257,2.2288,2.2718,0.0,0.0,0.0,0.0,0.0,0.0,0.0,0.0,0.0,0.0,3.2494,3.2501,3.0944,3.1099,0.0,0.0,3.5584,3.8374,0.0,0.0,0.0,0.0,0.0,4.9676,4.8578,0.0,4.433,3.7882,0.0,0.0,0.0,0.0,0.0,0.0,3.1895,0.0,0.0,0.0,0.0,0.0,4.7832,5.157,5.5282,6.0075,6.111,6.1685,6.3397,6.3097,6.2443,6.2063,6.201,6.201,6.201,6.201,6.201,6.201,6.201,6.201,6.201,6.201,6.201,6.201,6.201,6.201,6.201,6.2365,6.2862,6.341,6.3437,6.4478,6.6617,6.781,6.9608,7.2027,7.3206,7.4282,7.5377,7.5826,7.6125,7.6335,7.6993,7.6814,7.5971,7.5792,7.5433,7.5108,7.5552,7.5702,7.5702,7.5702,7.5702,7.5702,0.0,0.0,1.8283,1.8283,1.8816,1.9147,1.8883,1.933,0.0,0.0,0.0,0.0,0.0,0.0,0.0,0.0,2.4821,2.432,2.3448,2.2797,2.2625,2.3038,2.2789,2.3175,2.4299,0.0,0.0,0.0,0.0,0.0,0.0,0.0,0.0,0.0,0.0,0.0,3.0884,0.0,0.0,0.0,3.8203,0.0,0.0,4.711,5.0411,0.0,0.0,0.0,5.1466,5.4175,4.8888,0.0,0.0,0.0,0.0,0.0,0.0,0.0,0.0,0.0,0.0,0.0,0.0,0.0,4.6499,4.9949,5.3635,6.0169,6.179,6.2406,6.3776,6.3567,6.2992,6.2417,6.2339,6.2234,6.2037,6.201,6.201,6.201,6.201,6.201,6.201,6.201,6.201,6.201,6.201,6.2115,6.2313,6.2862,6.3437,6.4012,6.468,6.6211,6.8654,7.0253,7.2043,7.3939,7.4873,7.5527,7.5916,7.6509,7.6928,7.7227,7.7921,7.7861,7.7227,7.7532,7.7113,7.6335,7.6659,7.6779,7.6779,7.6779,7.6779,7.6808,0.0,0.0,1.9288,1.9433,2.0162,2.078,2.1011,2.1582,2.2288,0.0,0.0,0.0,0.0,0.0,0.0,0.0,0.0,2.5452,2.4186,2.4038,2.3753,2.3207,2.4227,2.4842,2.4892,2.4827,0.0,0.0,0.0,0.0,0.0,0.0,0.0,0.0,2.9107,2.9735,3.1035,2.9785,0.0,3.4525,4.2563,4.4365,0.0,0.0,5.209,5.0627,5.4024,5.4511,5.413,5.8052,5.4546,0.0,0.0,0.0,0.0,0.0,3.3414,0.0,0.0,0.0,0.0,0.0,0.0,0.0,4.8303,5.0159,5.2145,6.0551,6.251,6.2771,6.3006,6.2783,6.2339,6.1685,6.1961,6.226,6.2037,6.201,6.201,6.201,6.201,6.201,6.201,6.201,6.201,6.201,6.2063,6.2339,6.2954,6.3489,6.4038,6.4574,6.6213,6.8325,7.0838,7.2608,7.4219,7.5642,7.5757,7.5796,7.5826,7.639,7.7053,7.7652,7.837,7.834,7.7861,7.8519,7.8041,7.6898,7.6988,7.7018,7.7018,7.6983,7.6947,7.6912,1.933,1.9789,2.0496,2.1631,2.2294,2.3172,2.4759,2.4701,0.0,0.0,0.0,0.0,0.0,0.0,0.0,0.0,0.0,0.0,2.606,2.4718,2.4117,2.4439,2.4677,2.4992,2.5435,2.5886,2.6136,0.0,0.0,0.0,0.0,0.0,0.0,0.0,0.0,2.9082,2.9484,3.0939,0.0,3.8392,3.7946,0.0,4.8227,5.0728,5.4635,5.8817,5.9195,5.8617,5.7237,5.4625,5.3476,5.1788,0.0,0.0,0.0,0.0,0.0,0.0,0.0,0.0,0.0,0.0,0.0,0.0,0.0,4.0984,4.4199,4.7885,5.008,5.1936,5.3792,5.4811,5.5046,5.3949,5.6928,5.996,6.1775,6.201,6.201,6.201,6.201,6.201,6.201,6.201,6.201,6.201,6.2391,6.3085,6.4103,6.426,6.4639,6.5188,6.7336,6.8705,6.9231,7.2066,7.3653,7.3975,7.4733,7.5113,7.5108,7.5766,7.6155,7.6335,7.7502,7.7921,7.7861,7.8519,7.834,7.7682,7.819,7.84,7.8364,7.804,7.7931,7.7859,2.0141,2.101,2.2087,2.3018,2.4136,2.5481,2.7239,2.7744,0.0,0.0,0.0,0.0,0.0,0.0,0.0,0.0,0.0,0.0,0.0,2.5577,2.4933,2.5184,2.5193,2.5586,2.6432,2.701,2.716,2.6901,0.0,0.0,0.0,0.0,0.0,0.0,0.0,0.0,0.0,0.0,3.3093,3.6737,4.0586,0.0,5.2751,5.4979,5.7915,6.0881,6.0986,6.1026,6.0622,5.7744,5.5297,0.0,0.0,4.7729,4.5928,0.0,4.1403,4.3145,0.0,0.0,0.0,3.7586,0.0,0.0,0.0,0.0,4.331,4.7336,4.8672,4.9636,5.1675,5.2302,5.2406,5.2093,5.5674,5.8209,5.7373,6.0222,6.2496,6.2821,6.235,6.2115,6.2365,6.213,6.2115,6.2365,6.294,6.362,6.4443,6.4796,6.5083,6.5371,6.8353,6.9958,6.9958,7.3399,7.497,7.471,7.5478,7.5677,7.5437,7.6395,7.6844,7.6904,7.7891,7.831,7.831,7.8639,7.8471,7.8022,7.838,7.8499,7.8463,7.8063,7.7917,7.7843,2.1063,2.2211,2.3509,2.4137,2.5862,2.7693,2.9225,3.0441,0.0,0.0,0.0,0.0,0.0,0.0,0.0,0.0,0.0,0.0,0.0,0.0,2.7193,2.7193,2.6364,2.6758,2.8542,2.8473,2.8047,2.7311,0.0,0.0,0.0,0.0,0.0,0.0,0.0,0.0,0.0,0.0,0.0,3.674,0.0,5.0554,5.3598,5.7359,5.9373,6.0303,6.1662,6.2652,6.3042,6.1351,5.7638,5.3766,5.3842,5.1575,0.0,0.0,0.0,0.0,0.0,0.0,0.0,0.0,0.0,3.9756,0.0,0.0,0.0,4.7911,4.8224,4.8172,4.9584,4.961,4.9531,4.9793,5.3504,5.5151,5.1675,5.6745,6.1006,6.1513,6.201,6.2182,6.1868,6.1319,6.1529,6.2888,6.2809,6.328,6.4574,6.5136,6.5371,6.5371,6.9242,7.1213,7.11,7.5017,7.6659,7.6096,7.6569,7.6539,7.6125,7.7143,7.7682,7.7831,7.837,7.8609,7.8609,7.8537,7.8231,7.7852,7.809,7.8136,7.8026,7.766,7.7475,7.7439,2.2806,2.3253,2.4102,2.5287,2.7519,2.9692,3.1248,3.2254,0.0,0.0,0.0,0.0,0.0,0.0,0.0,0.0,0.0,0.0,3.5629,0.0,0.0,3.2968,2.9202,2.902,3.3068,3.0809,2.8869,2.7311,2.7846,0.0,0.0,0.0,0.0,0.0,3.4121,0.0,0.0,0.0,4.1233,0.0,4.8231,4.7359,0.0,5.0755,5.5206,5.9212,6.3196,6.4149,6.297,0.0,5.8492,5.7268,0.0,5.2754,5.6524,0.0,0.0,0.0,0.0,0.0,0.0,0.0,4.1402,0.0,0.0,0.0,0.0,3.8841,0.0,0.0,0.0,0.0,0.0,0.0,4.493,4.8065,4.6576,5.0603,5.3687,5.3766,5.9516,6.2141,5.861,5.7739,5.9124,6.3254,6.0797,6.0901,6.5057,6.5345,6.5371,6.5371,6.9692,7.17,7.11,7.5493,7.7382,7.6689,7.6749,7.6749,7.6689,7.6838,7.7227,7.7801,7.7891,7.7921,7.7885,7.7593,7.7092,7.664,7.7763,7.799,7.7623,7.7283,7.7098,7.6994,2.2426,2.3481,0.0,2.5214,2.7105,2.9353,3.1738,3.4581,0.0,0.0,0.0,0.0,0.0,0.0,0.0,0.0,0.0,4.0675,0.0,0.0,0.0,0.0,2.9428,2.9101,3.1938,3.0206,2.8781,2.777,2.8304,2.8405,0.0,0.0,0.0,0.0,3.6945,0.0,4.0782,0.0,4.258,0.0,0.0,0.0,0.0,5.4489,5.9555,6.1724,6.3765,6.4339,6.3946,0.0,5.9709,0.0,0.0,0.0,0.0,0.0,0.0,0.0,0.0,0.0,0.0,0.0,0.0,0.0,3.9228,0.0,3.8083,0.0,0.0,0.0,0.0,0.0,0.0,0.0,4.3206,0.0,0.0,0.0,5.2223,5.2929,5.5177,5.6963,5.7617,5.8653,6.0666,6.3933,6.1894,6.1947,6.5214,6.5371,6.5371,6.5371,6.9747,7.1756,7.1128,7.5552,7.7472,7.6779,7.7167,7.7167,7.6808,7.7197,7.7317,7.7197,7.7197,7.7091,7.6914,7.6765,7.6266,7.5664,7.6194,7.6292,7.6109,7.5736,7.5618,7.5581,2.2781,0.0,0.0,2.548,2.7257,2.9683,3.2724,3.6031,0.0,0.0,0.0,0.0,4.0859,4.1478,0.0,0.0,4.5585,4.4765,0.0,0.0,3.8341,3.7111,3.2039,0.0,3.4148,3.1165,2.9139,2.8231,2.8743,2.8875,0.0,0.0,0.0,0.0,0.0,4.1728,4.5502,0.0,4.5223,4.5086,4.6978,4.8422,5.0353,5.8832,6.2834,6.4004,6.4493,6.4744,6.47,6.4008,6.0447,0.0,6.0967,0.0,0.0,0.0,0.0,0.0,4.6219,0.0,0.0,0.0,0.0,0.0,0.0,0.0,0.0,0.0,0.0,0.0,0.0,0.0,0.0,0.0,0.0,0.0,0.0,4.4774,0.0,0.0,0.0,0.0,0.0,5.7346,5.9385,6.2588,6.1424,6.1973,6.5214,6.5371,6.5371,6.5371,6.9747,7.1756,7.1128,7.5728,7.7652,7.6808,7.7502,7.7472,7.6808,7.7287,7.7347,7.7048,7.7048,7.6871,7.6545,7.6474,7.589,7.51,7.4991,7.4926,7.489,7.4627,7.4518,7.4583,2.4866,2.5525,0.0,2.666,2.8846,3.1639,3.4911,3.6008,0.0,0.0,0.0,0.0,0.0,0.0,0.0,0.0,0.0,5.5968,5.2644,0.0,4.7054,5.1247,3.8994,3.5629,0.0,3.5454,3.0408,2.8574,2.8994,2.9479,3.0018,2.9685,0.0,0.0,3.8917,4.1574,4.227,4.7206,5.1862,5.5868,5.536,5.8794,6.3889,0.0,6.1955,6.4955,6.5871,0.0,0.0,6.1502,6.0222,0.0,0.0,0.0,0.0,0.0,0.0,0.0,0.0,0.0,0.0,4.318,0.0,0.0,0.0,0.0,4.0672,0.0,0.0,0.0,0.0,0.0,0.0,0.0,0.0,0.0,0.0,0.0,0.0,0.0,0.0,0.0,0.0,5.1204,5.2589,0.0,5.7634,5.9437,6.5083,6.5371,6.5371,6.5371,6.9747,7.1756,7.1128,7.6205,7.81,7.6808,7.7502,7.7472,7.6779,7.6808,7.7167,7.7771,7.7771,7.7522,7.7163,7.6802,7.6049,7.5057,7.4664,7.4518,7.4518,7.4518,7.4518,7.4518,0.0,0.0,2.8179,2.7048,2.8169,3.038,3.3909,3.6507,3.9095,0.0,4.2939,0.0,0.0,5.0016,5.1981,0.0,0.0,5.5817,5.3582,4.9464,0.0,0.0,0.0,3.6836,0.0,3.6485,3.2412,3.0128,3.1061,3.13,3.0893,3.1111,3.2374,3.4689,3.9956,4.4247,0.0,0.0,0.0,0.0,0.0,5.8869,6.2172,0.0,6.3737,6.526,6.5605,6.5554,0.0,6.4038,6.2104,6.0394,6.1555,5.9676,5.7266,5.8192,5.7817,5.6531,0.0,0.0,5.6201,4.8417,0.0,0.0,0.0,0.0,0.0,0.0,0.0,0.0,0.0,0.0,0.0,0.0,0.0,0.0,0.0,0.0,0.0,0.0,0.0,0.0,0.0,0.0,0.0,0.0,5.9934,0.0,6.5214,6.5371,6.5371,6.5371,6.9324,7.1559,7.1756,7.5552,7.7502,7.7472,7.7227,7.6808,7.6215,7.6215,7.6335,7.6544,7.6544,7.6431,7.6211,7.6103,7.5523,7.47,7.4554,7.4518,7.4518,7.4518,7.4518,7.4518,3.0099,2.9815,2.9095,2.8341,2.9282,3.1255,3.4583,3.7587,4.0777,0.0,4.5623,0.0,5.2034,0.0,5.4336,0.0,5.7625,5.7097,5.5013,5.2176,0.0,5.1975,4.4815,0.0,0.0,0.0,3.6713,3.4344,3.3882,3.3303,3.2621,3.2626,3.3709,3.5749,3.9409,4.4421,5.0219,5.2441,5.5685,0.0,0.0,6.1184,0.0,0.0,6.4713,6.4613,0.0,6.5998,6.5998,6.5998,6.4508,6.3045,6.5292,6.294,5.9803,6.2025,6.1084,5.9098,5.7869,5.9522,0.0,5.2967,5.2418,0.0,4.4487,0.0,0.0,0.0,0.0,0.0,0.0,0.0,0.0,0.0,0.0,0.0,0.0,0.0,0.0,0.0,0.0,0.0,0.0,0.0,0.0,0.0,0.0,0.0,0.0,6.5371,6.5371,6.5371,6.9352,7.1559,7.1728,7.5347,7.7227,7.7442,7.6814,7.6305,7.5886,7.5647,7.5677,7.5916,7.5747,7.5684,7.5707,7.5798,7.5305,7.4518,7.4779,7.4866,7.4837,7.4605,7.4372,7.4169,3.1272,3.0011,2.9245,3.0643,3.2164,3.412,3.6833,3.9195,4.2256,0.0,4.836,5.0602,5.4496,5.6294,5.765,5.8743,6.0261,6.006,5.7387,5.6118,0.0,0.0,5.3206,5.2051,5.5365,0.0,0.0,0.0,3.7226,3.5365,3.5029,3.4126,3.4727,3.6577,3.7516,4.2293,4.9753,5.1922,5.721,6.42,6.5105,6.5737,6.6207,6.6338,6.4953,6.3294,6.6089,6.7122,6.7096,6.7096,6.7096,6.7096,6.7096,6.7096,6.7096,6.7096,6.7096,6.639,6.3161,6.2626,6.1779,5.6745,5.5804,0.0,0.0,0.0,5.0603,0.0,0.0,0.0,0.0,0.0,0.0,0.0,0.0,0.0,0.0,0.0,0.0,0.0,0.0,0.0,0.0,0.0,0.0,0.0,0.0,0.0,0.0,6.5267,6.5267,6.541,6.9643,7.1653,7.1128,7.5421,7.7306,7.6779,7.6155,7.5886,7.5916,7.5228,7.5318,7.5971,7.5592,7.5561,7.5789,7.6073,7.5553,7.4663,7.5301,7.5563,7.5475,7.4837,7.4227,7.3618,3.1997,3.2596,3.3504,3.4703,3.4901,3.5531,3.7487,4.0727,4.4694,0.0,5.2251,5.52,5.9056,5.9859,6.0236,6.0512,6.0939,0.0,0.0,0.0,0.0,6.0814,5.4988,5.303,5.5942,4.8977,0.0,4.2298,0.0,3.6687,3.5796,3.533,3.5741,3.6917,3.8001,4.3153,5.109,5.1895,5.7082,6.4856,6.573,6.5632,6.5162,0.0,6.639,6.4926,6.6533,6.7122,6.7096,6.7096,6.7096,6.7096,6.7096,6.7096,6.7096,6.7096,6.7096,6.6887,6.6024,6.5894,6.5148,6.1674,5.9924,5.8157,0.0,0.0,0.0,0.0,0.0,0.0,0.0,0.0,0.0,0.0,0.0,0.0,0.0,0.0,0.0,0.0,0.0,0.0,0.0,0.0,0.0,0.0,0.0,0.0,6.5214,6.3249,6.3086,6.5332,6.8062,6.9992,7.11,7.3363,7.5294,7.6779,7.5677,7.5647,7.6539,7.5946,7.6245,7.7287,7.6896,7.6858,7.7115,7.6916,7.6487,7.6006,7.6181,7.6239,7.6239,7.6064,7.5563,7.5011,3.4081,3.5579,3.701,3.7411,3.9019,4.0449,4.1178,4.271,4.5773,5.1272,5.3758,0.0,5.9408,6.104,6.1893,6.1893,6.1893,0.0,5.9834,0.0,0.0,6.0186,5.8605,5.8176,5.9162,5.444,0.0,4.6633,0.0,3.9738,3.722,3.652,3.6494,3.7063,3.8475,4.2788,4.9292,5.3993,5.8972,6.3841,6.5864,6.639,0.0,6.7488,6.7383,6.6599,6.7279,6.7671,6.7854,6.7854,6.7854,6.7854,6.7854,6.7854,6.7854,6.7854,6.7854,6.7854,6.7854,6.7839,6.7447,6.5827,6.4678,6.3059,5.9663,5.9202,5.9114,0.0,5.7608,5.7268,0.0,0.0,0.0,0.0,0.0,0.0,0.0,0.0,0.0,0.0,0.0,0.0,0.0,0.0,0.0,0.0,0.0,0.0,0.0,6.1552,6.2401,6.5491,6.758,6.9434,7.1063,7.294,7.4877,7.6779,7.6066,7.6125,7.6779,7.645,7.6589,7.7128,7.6705,7.6516,7.6505,7.6423,7.6105,7.5621,7.594,7.6056,7.6122,7.6384,7.6093,7.5504,3.6708,3.8517,3.9899,3.9396,4.3313,4.6502,4.6476,4.5874,4.738,5.282,5.4712,5.6305,5.8227,6.1014,6.2681,6.2681,0.0,6.1617,5.873,6.1201,6.1502,5.8679,6.2422,6.4076,6.3095,6.0789,5.6901,0.0,0.0,4.2971,3.8452,3.7377,3.6933,3.7063,3.8736,4.2213,4.7464,5.7024,6.179,6.3123,6.6024,6.7566,6.8089,6.8011,6.7985,6.7985,6.7906,6.8194,6.857,6.857,6.857,6.857,6.857,6.857,6.8596,6.8675,6.8701,6.8701,6.8779,6.8805,6.8805,6.8805,6.8805,6.7891,6.4365,6.3581,6.3581,6.3581,6.0823,6.0352,0.0,0.0,0.0,0.0,0.0,0.0,0.0,0.0,0.0,0.0,0.0,0.0,0.0,0.0,0.0,0.0,0.0,0.0,0.0,0.0,6.1873,6.5603,6.7815,6.9478,7.0651,7.3305,7.5245,7.6496,7.6708,7.6833,7.6977,7.6887,7.6705,7.6468,7.6044,7.5683,7.5386,7.5565,7.5301,7.4808,7.5417,7.5621,7.5708,7.6297,7.6151,7.5621,3.8366,4.0225,4.1708,4.1659,4.4945,4.8535,5.1222,5.3005,5.4762,5.6771,5.9182,6.0839,6.124,6.1793,6.2144,6.2144,6.2531,0.0,0.0,0.0,0.0,6.1953,6.2393,6.2932,6.3422,5.9744,5.5841,0.0,0.0,4.2317,3.7299,3.6593,3.6515,3.7063,3.8318,4.4304,5.3792,5.8941,6.3607,6.7604,6.7775,6.8168,6.8596,6.8168,6.7985,6.7932,6.7436,6.7305,6.741,6.741,6.741,6.741,6.741,6.741,6.7488,6.7985,6.8141,6.8246,6.8675,6.8805,6.8805,6.8805,6.8805,6.8623,6.7917,6.7761,6.7761,6.7761,6.7186,6.5958,6.362,0.0,0.0,0.0,0.0,0.0,0.0,0.0,0.0,0.0,0.0,0.0,0.0,0.0,0.0,0.0,0.0,0.0,0.0,0.0,5.8407,0.0,6.8031,6.9117,0.0,7.2874,7.5071,7.494,7.6183,7.7235,7.7961,7.739,7.7203,7.7372,7.6997,7.6813,7.6731,7.6446,7.6268,7.6151,7.6297,7.6326,7.6355,7.6471,7.6442,7.6326,4.216,0.0,0.0,0.0,4.9019,5.2302,5.5089,5.7813,5.9232,5.8052,5.9056,5.9885,5.9885,6.1416,6.2239,6.1736,6.1921,6.1989,6.1744,6.2127,6.237,6.233,6.3296,6.3604,6.3057,6.2069,5.8393,5.1953,0.0,4.4531,3.7874,3.7299,3.7011,3.7194,4.1638,4.6891,5.2825,5.9281,6.3398,6.5827,6.7383,6.8507,6.9265,6.8978,6.8873,6.8821,6.8533,6.8246,6.7906,6.7305,6.7096,6.7122,6.7096,6.7096,6.7148,6.7436,6.7514,6.7592,6.7854,6.7932,6.8011,6.8324,6.8403,6.8481,6.8727,6.8805,6.8805,6.8805,6.8805,6.7395,6.2847,5.8209,0.0,0.0,0.0,0.0,0.0,0.0,0.0,0.0,0.0,0.0,0.0,0.0,0.0,0.0,0.0,0.0,0.0,0.0,5.7633,0.0,0.0,0.0,7.0024,0.0,7.5685,7.6228,7.7116,7.7581,7.7668,7.7479,7.7365,7.732,7.7164,7.6978,7.6762,7.6575,7.65,7.65,7.65,7.65,7.65,7.65,7.65,7.65,0.0,4.6828,0.0,0.0,5.3312,5.5959,5.78,6.0705,6.1772,5.9282,5.8753,5.864,5.878,6.0931,6.2145,6.1721,6.1649,6.1602,6.1414,6.2064,6.2427,6.2346,6.4063,6.4408,6.3108,6.4422,6.1354,0.0,0.0,4.7305,3.9941,3.8553,3.8292,3.9285,4.5454,4.9766,5.2903,5.9751,6.328,6.4534,6.7253,6.8899,6.9684,6.9684,6.9631,6.9527,6.9527,6.9171,6.8649,6.7775,6.7488,6.7447,6.7462,6.7462,6.7462,6.7462,6.7462,6.7462,6.7462,6.7462,6.754,6.7906,6.7985,6.8115,6.8518,6.8623,6.8649,6.8779,6.8805,6.7395,6.2847,5.9803,0.0,0.0,0.0,0.0,0.0,0.0,0.0,0.0,0.0,0.0,0.0,0.0,0.0,0.0,0.0,0.0,5.7857,0.0,0.0,0.0,6.7435,6.9382,7.0613,0.0,7.652,7.7163,7.7882,7.7832,7.7177,7.7417,7.732,7.6978,7.6978,7.6762,7.65,7.65,7.65,7.65,7.65,7.65,7.65,7.65,7.65,7.65,0.0,0.0,5.2779,5.4536,5.6413,5.7943,5.8702,6.0781,6.2272,6.2314,6.1555,6.115,6.1577,6.1166,6.134,6.237,6.2608,6.2991,6.372,6.3841,6.3882,6.3882,6.3771,6.3973,6.4563,6.4349,6.2393,0.0,0.0,4.8975,4.4042,3.986,4.0644,4.569,4.7443,5.2935,6.0938,6.1749,6.477,6.9082,6.9396,6.9605,6.9684,6.9684,6.937,6.8884,6.8884,6.8858,6.8779,6.8675,6.8649,6.8649,6.8649,6.8649,6.8649,6.8649,6.8649,6.8649,6.8649,6.8649,6.8518,6.8115,6.7985,6.8011,6.8063,6.8063,6.822,6.8701,6.8805,6.7395,6.2847,6.5031,6.5801,0.0,0.0,0.0,0.0,0.0,0.0,0.0,0.0,0.0,0.0,0.0,0.0,0.0,0.0,0.0,0.0,0.0,0.0,6.2158,6.6404,6.7758,6.5838,7.4265,7.7363,7.5203,7.7232,7.7843,7.7113,7.7135,7.6941,7.6575,7.6575,7.6538,7.65,7.65,7.65,7.65,7.65,7.65,7.65,7.65,7.65,7.65,5.2859,5.2814,5.3651,5.69,5.7294,5.7865,6.0125,6.1187,6.1862,6.2027,6.1886,6.1803,6.1721,6.1844,6.1964,6.1898,6.2396,6.2765,6.2845,6.3327,6.3607,6.3567,6.4235,6.4619,6.4625,6.4818,6.3077,0.0,0.0,0.0,4.5741,4.4225,4.6264,5.1282,5.5229,5.8653,6.1685,6.5136,6.7592,6.9171,6.9553,7.0102,7.0729,7.0729,7.0807,7.0912,7.0912,7.0912,7.0912,7.0912,6.9955,6.8805,6.8805,6.8805,6.8805,6.8805,6.8805,6.8805,6.8805,6.8805,6.8832,6.8978,6.8769,6.8466,6.8466,6.8466,6.8481,6.835,6.857,6.8231,6.6442,6.5345,6.4874,6.5279,0.0,0.0,0.0,0.0,0.0,0.0,0.0,0.0,0.0,0.0,0.0,0.0,0.0,0.0,0.0,0.0,0.0,6.0223,6.7389,7.0307,6.8345,7.5301,7.8169,7.6887,7.7512,7.7579,7.709,7.6866,7.665,7.65,7.65,7.65,7.65,7.65,7.65,7.65,7.65,7.65,7.65,7.65,7.65,7.65,5.5831,5.509,5.5569,5.9455,5.8965,5.8793,6.1218,6.1666,6.1757,6.1735,6.2249,6.2456,6.1928,6.2413,6.2712,6.2432,6.285,6.3065,6.2999,6.3558,6.3902,6.3862,6.4845,0.0,6.4796,6.5188,6.4142,6.167,5.7451,5.3818,5.076,4.9793,5.191,5.6667,6.0588,6.2693,6.3607,6.7723,6.938,6.9354,6.9971,7.0781,7.167,7.167,7.1931,7.2297,7.2297,7.2297,7.2271,7.2088,7.1069,6.9824,6.9824,6.9824,6.9772,6.9615,6.9563,6.9511,6.9354,6.9328,6.938,6.9631,6.9396,6.904,6.904,6.904,6.8988,6.8795,6.8753,6.8858,6.9014,6.6286,6.4953,6.7839,0.0,0.0,0.0,0.0,0.0,0.0,0.0,0.0,0.0,0.0,0.0,0.0,0.0,0.0,0.0,0.0,0.0,0.0,0.0,0.0,7.0111,7.59,7.8536,7.8026,7.7733,7.7357,7.6903,7.6612,7.65,7.65,7.65,7.65,7.65,7.65,7.65,7.65,7.65,7.65,7.65,7.65,7.65,7.65,5.8502,5.8919,5.9819,6.263,6.2274,6.157,6.1686,6.2081,6.2373,6.23,6.3182,6.3552,6.2866,6.2797,6.3326,6.4641,6.4335,6.4429,6.5292,6.5371,6.5371,6.5371,6.5371,6.5371,6.5371,6.5371,6.592,6.6991,0.0,6.0368,6.0812,5.6249,5.6902,6.188,6.1372,6.3947,6.8701,6.8779,6.9485,7.0624,7.1147,7.1748,7.2297,7.2297,7.2297,7.2297,7.2297,7.2297,7.2219,7.1618,7.1801,7.2271,7.2271,7.2271,7.214,7.1539,7.1382,7.1252,7.0729,7.0572,7.0442,6.984,6.9684,6.9684,6.9684,6.9684,6.984,7.0442,6.9657,6.8962,6.9579,6.9187,6.8361,6.729,0.0,0.0,0.0,0.0,0.0,0.0,0.0,5.9133,6.2458,0.0,0.0,0.0,0.0,0.0,0.0,0.0,0.0,6.4261,6.7637,0.0,6.9401,7.565,7.8391,7.7623,7.7586,7.7217,7.65,7.65,7.65,7.65,7.65,7.65,7.65,7.65,7.65,7.65,7.65,7.65,7.65,7.65,7.65,7.65,6.0032,5.998,6.0407,6.2324,6.2323,6.2205,6.2573,6.332,6.3809,6.3802,6.4621,6.5094,6.4862,6.4852,6.5016,6.5451,6.5899,6.6264,6.6547,6.6547,6.6547,6.6547,6.6547,6.6547,6.6547,6.6547,6.673,6.7096,6.328,6.1711,6.2223,6.1163,6.3018,6.7253,6.7488,6.8507,7.0049,7.0442,7.0807,7.12,7.1775,7.214,7.2297,7.2297,7.2036,7.1748,7.2167,7.2036,7.1722,7.1931,7.214,7.2219,7.1827,7.1958,7.2193,7.1592,7.1696,7.1879,7.1304,7.1461,7.1696,7.1513,7.1147,7.0755,7.0389,6.9997,6.9736,6.9945,7.0023,6.984,6.9197,6.9291,6.9291,6.8926,6.9187,0.0,6.8926,0.0,0.0,0.0,0.0,6.5867,0.0,6.4926,0.0,0.0,0.0,0.0,0.0,0.0,0.0,0.0,6.9385,0.0,7.2331,7.6359,7.8136,7.7586,7.7357,7.6986,7.65,7.65,7.65,7.65,7.65,7.65,7.65,7.65,7.65,7.65,7.65,7.65,7.65,7.65,7.65,7.65,6.152,6.1467,6.1686,6.2981,6.332,6.3481,6.3605,6.4486,6.515,6.5301,6.5981,6.6567,6.6899,6.694,6.6718,6.6346,6.6811,6.72,6.741,6.7436,6.7514,6.7749,6.7749,6.7749,6.7749,6.7749,6.7854,6.8063,6.592,6.5057,6.5423,6.5763,6.741,7.0049,7.0415,7.0703,7.0912,7.1252,7.1409,7.1461,7.2062,7.2167,7.1984,7.2219,7.2062,7.1801,7.2167,7.2062,7.1748,7.1905,7.2114,7.2193,7.1592,7.167,7.1853,7.1278,7.1356,7.1592,7.12,7.1513,7.1958,7.1958,7.1853,7.1644,7.1304,7.0755,7.0389,7.0624,7.0624,7.0442,6.985,6.9919,7.0023,7.0023,7.0023,7.0023,7.0023,0.0,6.9265,0.0,0.0,0.0,0.0,6.6129,6.5214,0.0,0.0,0.0,0.0,0.0,6.5132,6.6097,7.1088,7.3716,7.3493,7.6616,7.7917,7.7431,7.7023,7.6725,7.65,7.65,7.65,7.65,7.65,7.65,7.65,7.65,7.65,7.65,7.65,7.65,7.65,7.65,7.65,7.65,6.3111,6.3238,6.3535,6.4446,6.5041,6.5234,6.4773,6.5629,6.6499,6.6878,6.7372,6.8028,6.8852,6.891,6.8492,6.7436,6.7253,6.7462,6.8011,6.8089,6.835,6.8832,6.891,6.891,6.891,6.891,6.9171,6.9684,6.9684,6.9684,6.9631,6.971,7.0049,7.0598,7.0677,7.0964,7.1409,7.1409,7.1382,7.1409,7.201,7.1905,7.1461,7.2062,7.2271,7.2245,7.2271,7.2271,7.2167,7.1644,7.1827,7.2193,7.1592,7.1409,7.1304,7.0755,7.0598,7.0598,7.0546,7.0938,7.1356,7.1356,7.1801,7.2245,7.2297,7.1879,7.1618,7.214,7.1435,7.0834,7.12,7.0912,7.0598,7.0598,7.0598,7.0598,7.0651,7.0651,6.903,6.4704,0.0,0.0,6.4129,6.4129,6.5946,0.0,0.0,0.0,0.0,0.0,6.4899,7.0657,7.2756,7.37,7.3533,7.6608,7.7799,7.7052,7.6687,7.65,7.65,7.65,7.65,7.65,7.65,7.65,7.65,7.65,7.65,7.65,7.65,7.65,7.65,7.65,7.65,7.65,6.4743,6.4785,6.4953,6.5592,6.6078,6.6482,6.672,6.7953,6.8874,6.8955,6.9492,6.9967,7.0138,7.018,7.0076,6.9788,6.8952,6.844,6.8596,6.9056,6.9344,6.9474,6.9945,7.018,7.018,7.018,7.0023,6.9684,6.9684,6.9474,6.9014,6.9971,7.0468,7.0624,7.1513,7.1722,7.1409,7.1409,7.1147,7.0834,7.1382,7.1539,7.1461,7.2062,7.201,7.167,7.214,7.201,7.167,7.1984,7.2193,7.2193,7.1592,7.1409,7.1304,7.0755,7.0598,7.0494,7.0023,7.0337,7.0781,7.0781,7.12,7.1722,7.2193,7.2193,7.201,7.167,7.1748,7.1539,7.0311,7.0363,7.0598,7.0598,7.0598,7.0729,7.1147,7.12,7.0651,6.9135,6.856,6.8272,6.8272,6.8272,6.7148,0.0,0.0,6.6673,6.4757,6.4581,6.7197,7.2865,7.3555,7.4848,7.701,7.7483,7.7365,7.665,7.6538,7.65,7.65,7.65,7.65,7.65,7.65,7.65,7.65,7.65,7.65,7.65,7.65,7.65,7.65,7.65,7.65,7.65,6.6213,6.6298,6.6526,6.7214,6.7515,6.7773,6.8058,6.8773,6.9318,6.9318,6.9814,7.018,7.018,7.0442,7.0598,7.0598,7.0023,6.9589,6.9589,7.0154,7.0363,7.0128,7.0651,7.0834,7.0598,7.0598,7.0285,6.9684,6.9684,6.9684,6.9615,7.0023,7.0468,7.099,7.1356,7.133,7.1043,7.1043,7.086,7.0651,7.1173,7.1409,7.1461,7.2062,7.2088,7.1853,7.2193,7.2088,7.1853,7.2193,7.2297,7.2245,7.1905,7.1618,7.1356,7.1043,7.0781,7.052,7.0206,7.0337,7.0598,7.0598,7.0807,7.1121,7.1461,7.1513,7.1435,7.1095,7.1487,7.1592,7.0651,7.0964,7.1278,7.1017,7.0755,7.0781,7.133,7.12,7.1017,7.0964,7.0677,7.0259,6.9736,6.9684,6.8533,6.5711,6.6978,6.7322,6.6038,6.7572,6.9906,7.296,7.3359,7.458,7.6749,7.6994,7.6911,7.65,7.65,7.65,7.65,7.65,7.65,7.65,7.65,7.65,7.65,7.65,7.65,7.65,7.65,7.65,7.65,7.65,7.65,7.65,6.7519,6.7688,6.7941,6.868,6.8805,6.8805,6.8805,6.8962,6.9067,6.9067,6.9684,7.0076,7.0076,7.0546,7.086,7.086,7.086,7.0781,7.0598,7.1095,7.12,7.0729,7.1252,7.133,7.086,7.086,7.0546,6.9945,6.9945,7.018,7.0598,7.0076,7.0337,7.1252,7.0807,7.0546,7.0468,7.0546,7.0546,7.052,7.1147,7.1409,7.1461,7.2062,7.2297,7.2297,7.2297,7.2297,7.2297,7.2297,7.2297,7.2297,7.2297,7.1958,7.1539,7.1539,7.12,7.0807,7.0651,7.0598,7.0624,7.0703,7.0651,7.0624,7.0703,7.0651,7.0598,7.0598,7.0964,7.1252,7.1147,7.1565,7.1592,7.0651,7.0546,7.0598,7.0624,7.0677,7.086,7.1226,7.12,7.0807,6.9919,6.9736,6.9684,6.9684,6.9684,6.9784,6.9931,7.1306,7.2314,7.28,7.3301,7.4183,7.5393,7.6132,7.65,7.65,7.65,7.65,7.65,7.65,7.65,7.65,7.65,7.65,7.65,7.65,7.65,7.65,7.65,7.65,7.65,7.65,7.65,7.65,6.8555,6.8597,6.8638,6.8764,6.8805,6.8805,6.8805,6.9684,7.0337,7.0337,7.1252,7.1905,7.1905,7.1984,7.2036,7.2036,7.2036,7.1618,7.0651,7.1095,7.1356,7.1278,7.1853,7.2114,7.2036,7.2036,7.1748,7.1147,7.1147,7.0938,7.0598,7.0494,7.0546,7.0729,7.0624,7.0311,6.9866,7.0389,7.0311,6.9919,7.099,7.1409,7.1461,7.2062,7.2297,7.2297,7.2297,7.2297,7.2297,7.2297,7.2297,7.2297,7.2297,7.2245,7.2167,7.2167,7.2114,7.1827,7.086,7.0598,7.0703,7.1147,7.0938,7.0703,7.1173,7.0938,7.0598,7.0598,7.0651,7.0572,7.0049,7.0023,6.9265,6.673,6.8716,6.9762,6.741,6.9501,7.1147,7.0755,7.0259,7.0076,7.0415,6.9997,6.9684,6.9684,6.9684,7.0119,7.1001,7.1312,7.2767,7.5602,7.544,7.5781,7.6762,7.6612,7.65,7.65,7.65,7.65,7.65,7.65,7.65,7.65,7.65,7.65,7.65,7.65,7.65,7.65,7.65,7.65,7.65,7.65,7.65,7.65,6.8805,6.8805,6.8805,6.8805,6.9067,6.9291,6.9291,7.0049,7.0598,7.0598,7.1304,7.1827,7.1827,7.2114,7.2297,7.2297,7.2297,7.2088,7.1539,7.1748,7.1618,7.099,7.1513,7.167,7.1382,7.1382,7.1252,7.0964,7.0964,7.099,7.1017,7.0729,7.0755,7.1017,7.0729,7.0442,7.0206,7.0468,7.0598,7.0651,7.12,7.1592,7.1905,7.2193,7.2297,7.2297,7.2297,7.2297,7.2297,7.2297,7.2297,7.2297,7.2297,7.2297,7.2297,7.2297,7.2297,7.2114,7.1252,7.1017,7.1017,7.099,7.0781,7.0651,7.0912,7.0781,7.0494,7.018,7.0363,7.0415,6.9814,6.9971,6.9736,6.8403,6.9004,6.9501,6.9108,6.9866,7.0624,7.099,7.0781,7.0494,7.0154,6.9866,6.9579,6.9265,7.0062,7.0768,7.1257,7.2995,7.4705,7.6251,7.6571,7.6816,7.709,7.6687,7.65,7.65,7.65,7.65,7.65,7.65,7.65,7.65,7.65,7.65,7.65,7.65,7.65,7.65,7.65,7.65,7.65,7.65,7.65,7.65,6.8962,6.8988,6.904,6.9171,6.9605,6.9893,6.9893,7.0415,7.0781,7.0781,7.1278,7.1618,7.1618,7.201,7.2297,7.2297,7.2297,7.2297,7.2297,7.2297,7.1905,7.1017,7.1382,7.1409,7.099,7.099,7.099,7.099,7.099,7.12,7.1592,7.1043,7.1017,7.1382,7.0834,7.0598,7.0598,7.0729,7.1017,7.1409,7.1565,7.1879,7.2297,7.2297,7.2297,7.2297,7.2297,7.2297,7.2297,7.2297,7.2297,7.2297,7.2297,7.2297,7.2297,7.2297,7.2297,7.2193,7.1748,7.1618,7.1513,7.1095,7.0886,7.0781,7.0781,7.0677,7.0468,6.9997,7.0154,7.0232,6.9788,6.9971,7.0023,6.9474,6.9318,6.9432,7.0128,7.0154,7.0363,7.1121,7.12,7.086,6.9997,6.9893,6.9657,6.904,7.0565,7.1635,7.1873,7.4705,7.6488,7.6962,7.7357,7.7431,7.709,7.6687,7.65,7.65,7.65,7.65,7.65,7.65,7.65,7.65,7.65,7.65,7.65,7.65,7.65,7.65,7.65,7.65,7.65,7.65,7.65,7.65,6.9527,6.9631,6.9814,7.0363,7.0494,7.052,7.052,7.099,7.133,7.133,7.1853,7.2245,7.2245,7.2271,7.2297,7.2297,7.2297,7.2297,7.2297,7.2297,7.2271,7.2167,7.2219,7.2219,7.2167,7.2167,7.2167,7.2167,7.2167,7.2193,7.2219,7.1618,7.1356,7.1382,7.0834,7.0598,7.0624,7.1121,7.1356,7.1461,7.201,7.2271,7.2297,7.2297,7.2297,7.2297,7.2297,7.2297,7.2297,7.2297,7.2297,7.2297,7.2297,7.2297,7.2297,7.2297,7.2297,7.2297,7.2245,7.2245,7.2219,7.2193,7.1748,7.133,7.133,7.0964,7.0598,7.0546,7.0128,6.9736,6.971,6.9291,6.8231,6.6129,6.8403,6.9579,6.7017,6.9318,7.1121,7.0703,7.0651,7.0624,7.0546,7.052,7.0285,6.9684,7.118,7.2568,7.3572,7.5316,7.7132,7.8945,7.8095,7.7431,7.709,7.6687,7.65,7.65,7.65,7.65,7.65,7.65,7.65,7.65,7.65,7.65,7.65,7.65,7.65,7.65,7.65,7.65,7.65,7.65,7.65,7.65,7.0206,7.0259,7.0337,7.0546,7.0886,7.1095,7.1095,7.1592,7.1958,7.1958,7.2167,7.2297,7.2297,7.2297,7.2297,7.2297,7.2297,7.2297,7.2297,7.2297,7.2297,7.2297,7.2297,7.2297,7.2297,7.2297,7.2297,7.2297,7.2297,7.2297,7.2297,7.2062,7.1958,7.1958,7.1748,7.1644,7.167,7.1879,7.1958,7.1984,7.2219,7.2297,7.2297,7.2297,7.2297,7.2297,7.2297,7.2297,7.2297,7.2297,7.2297,7.2297,7.2297,7.2297,7.2297,7.2297,7.2297,7.2297,7.2297,7.2297,7.2297,7.2297,7.214,7.1958,7.1958,7.1801,7.1539,7.1173,7.0912,7.0546,6.984,6.9814,6.9527,6.8272,6.9161,6.9788,6.9056,7.0076,7.0938,7.1069,7.1435,7.1513,7.1121,7.1751,7.1902,7.1287,7.3432,7.4922,7.5345,7.7099,7.8619,7.9776,7.8942,7.8206,7.7645,7.6891,7.65,7.65,7.65,7.65,7.65,7.65,7.65,7.65,7.65,7.65,7.65,7.65,7.65,7.65,7.65,7.65,7.65,7.65,7.65,7.65,7.0807,7.0834,7.0912,7.1095,7.1435,7.167,7.167,7.2036,7.2297,7.2297,7.2297,7.2297,7.2297,7.2297,7.2297,7.2297,7.2297,7.2297,7.2297,7.2297,7.2297,7.2297,7.2297,7.2297,7.2297,7.2297,7.2297,7.2297,7.2297,7.2297,7.2297,7.2297,7.2297,7.2297,7.2297,7.2297,7.2297,7.2297,7.2297,7.2297,7.2297,7.2297,7.2297,7.2297,7.2297,7.2297,7.2297,7.2297,7.2297,7.2297,7.2297,7.2297,7.2297,7.2297,7.2297,7.2297,7.2297,7.2297,7.2297,7.2297,7.2297,7.2297,7.2297,7.2297,7.2297,7.2297,7.2193,7.1775,7.1539,7.1147,7.0389,7.0442,7.052,7.0259,7.0232,7.0389,7.0781,7.0834,7.0938,7.1121,7.1513,7.1729,7.1655,7.2355,7.2791,7.269,7.5131,7.6883,7.7491,7.8869,7.9759,8.0082,7.9437,7.8888,7.8421,7.7543,7.6994,7.679,7.679,7.6674,7.65,7.65,7.65,7.65,7.65,7.65,7.65,7.65,7.65,7.65,7.65,7.65,7.65,7.65,7.65,7.65,7.1304,7.1409,7.1592,7.2193,7.2297,7.2297,7.2297,7.2297,7.2297,7.2297,7.2297,7.2297,7.2297,7.2297,7.2297,7.2297,7.2297,7.2297,7.2297,7.2297,7.2297,7.2297,7.2297,7.2297,7.2297,7.2297,7.2297,7.2297,7.2297,7.2297,7.2297,7.2297,7.2297,7.2297,7.2297,7.2297,7.2297,7.2297,7.2297,7.2297,7.2297,7.2297,7.2297,7.2297,7.2297,7.2297,7.2297,7.2297,7.2297,7.2297,7.2297,7.2297,7.2297,7.2297,7.2297,7.2297,7.2297,7.2297,7.2297,7.2297,7.2297,7.2297,7.2297,7.2297,7.2297,7.2297,7.2297,7.2297,7.1827,7.1409,7.1409,7.0964,7.0781,7.1304,7.1409,7.1409,7.1382,7.1409,7.12,7.0677,7.0598,7.1058,7.2151,7.2233,7.269,7.3756,7.5995,7.8134,8.0094,8.0377,8.0312,7.9918,7.9502,7.9307,7.9307,7.8698,7.8059,7.742,7.742,7.7072,7.65,7.65,7.65,7.65,7.65,7.65,7.65,7.65,7.65,7.65,7.65,7.65,7.65,7.65,7.65,7.65,7.201,7.2036,7.2088,7.2271,7.2297,7.2297,7.2297,7.2297,7.2297,7.2297,7.2297,7.2297,7.2297,7.2297,7.2297,7.2297,7.2297,7.2297,7.2297,7.2297,7.2297,7.2297,7.2297,7.2297,7.2297,7.2297,7.2297,7.2297,7.2297,7.2297,7.2297,7.2297,7.2297,7.2297,7.2297,7.2297,7.2297,7.2297,7.2297,7.2297,7.2297,7.2297,7.2297,7.2297,7.2297,7.2297,7.2297,7.2297,7.2297,7.2297,7.2297,7.2297,7.2297,7.2297,7.2297,7.2297,7.2297,7.2297,7.2297,7.2297,7.2297,7.2297,7.2297,7.2297,7.2297,7.2297,7.2297,7.2297,7.2167,7.1905,7.1487,7.1618,7.1592,7.0938,7.1147,7.1278,7.0886,7.1147,7.133,7.1173,7.2622,7.376,7.4049,7.5523,7.6553,7.6847,7.7942,7.9142,8.034,8.0194,8.0239,8.0561,8.02,8.0004,8.0004,7.893,7.8291,7.8117,7.8117,7.7769,7.713,7.7624,7.7371,7.6529,7.6927,7.6907,7.65,7.65,7.65,7.65,7.65,7.65,7.65,7.65,7.65,7.65,7.2297,7.2297,7.2297,7.2297,7.2297,7.2297,7.2297,7.2297,7.2297,7.2297,7.2297,7.2297,7.2297,7.2297,7.2297,7.2297,7.2297,7.2297,7.2297,7.2297,7.2297,7.2297,7.2297,7.2297,7.2297,7.2297,7.2297,7.2297,7.2297,7.2297,7.2297,7.2297,7.2297,7.2297,7.2297,7.2297,7.2297,7.2297,7.2297,7.2297,7.2297,7.2297,7.2297,7.2297,7.2297,7.2297,7.2297,7.2297,7.2297,7.2297,7.2297,7.2297,7.2297,7.2297,7.2297,7.2297,7.2297,7.2297,7.2297,7.2297,7.2297,7.2297,7.2297,7.2297,7.2297,7.2297,7.2297,7.2297,7.2297,7.2193,7.1827,7.2062,7.2062,7.1382,7.1539,7.1799,7.1921,7.2191,7.2622,7.3072,7.4387,7.5406,7.5811,7.706,7.8163,7.8912,7.9215,7.9719,8.0606,8.0424,8.0396,8.0658,8.0412,8.0294,8.0294,7.954,7.9017,7.8756,7.8756,7.8407,7.7827,7.8233,7.7972,7.7284,7.7624,7.742,7.6878,7.6878,7.6732,7.65,7.65,7.65,7.65,7.65,7.65,7.65,7.2297,7.2297,7.2297,7.2297,7.2297,7.2297,7.2297,7.2297,7.2297,7.2297,7.2297,7.2297,7.2297,7.2297,7.2297,7.2297,7.2297,7.2297,7.2297,7.2297,7.2297,7.2297,7.2297,7.2297,7.2297,7.2297,7.2297,7.2297,7.2297,7.2297,7.2297,7.2297,7.2323,7.2376,7.2376,7.2402,7.2454,7.2402,7.2376,7.2376,7.2323,7.2297,7.2297,7.2297,7.2297,7.2297,7.2297,7.2297,7.2297,7.2297,7.2297,7.2297,7.2297,7.2297,7.2297,7.2297,7.2297,7.2297,7.2297,7.2297,7.2297,7.2297,7.2297,7.2297,7.2297,7.2297,7.2297,7.2297,7.2297,7.2297,7.2297,7.2297,7.2341,7.2516,7.256,7.2974,7.416,7.4302,7.4733,7.5804,7.6107,7.6553,7.7451,7.7639,7.8394,8.0116,7.9875,8.0027,8.0795,8.0844,8.0687,8.0294,8.0294,8.0294,8.0294,8.0294,7.9975,7.9394,7.9394,7.9075,7.8494,7.8553,7.8524,7.8407,7.8465,7.8117,7.7478,7.742,7.7072,7.6587,7.6529,7.65,7.65,7.65,7.65,7.65,7.2297,7.2297,7.2297,7.2297,7.2297,7.2297,7.2297,7.2297,7.2297,7.2297,7.2297,7.2297,7.2297,7.2297,7.2297,7.2297,7.2297,7.2297,7.2297,7.2297,7.2297,7.2297,7.2297,7.2297,7.2297,7.2297,7.2297,7.2297,7.2297,7.2297,7.2297,7.2297,7.2533,7.2925,7.2925,7.3186,7.3604,7.3134,7.2925,7.2898,7.248,7.2297,7.2297,7.2297,7.2297,7.2297,7.2297,7.2297,7.2297,7.2297,7.2297,7.2297,7.2297,7.2297,7.2297,7.2297,7.2297,7.2297,7.2297,7.2297,7.2297,7.2297,7.2297,7.2297,7.2297,7.2297,7.2297,7.2297,7.2297,7.2297,7.2297,7.2297,7.2751,7.4096,7.4352,7.4908,7.651,7.6756,7.6824,7.712,7.8341,7.9263,7.9471,8.0297,8.0726,8.0458,8.0344,8.0314,8.0423,8.0412,8.0373,8.0294,8.0294,8.0294,8.0294,8.0294,8.0236,8.0091,8.0091,7.9743,7.9133,7.9656,7.9336,7.8436,7.8901,7.8756,7.8146,7.7624,7.7333,7.7159,7.6674,7.65,7.65,7.65,7.65,7.6558,7.2297,7.2297,7.2297,7.2297,7.2297,7.2297,7.2297,7.2297,7.2297,7.2297,7.2297,7.2297,7.2297,7.2297,7.2297,7.2297,7.2297,7.2297,7.2297,7.2297,7.2297,7.2297,7.2297,7.2297,7.2297,7.2297,7.2297,7.2297,7.2297,7.2297,7.2297,7.2297,7.2454,7.2716,7.2716,7.2898,7.3186,7.2846,7.2716,7.2689,7.2428,7.2297,7.2297,7.2297,7.2297,7.2297,7.2297,7.2297,7.2297,7.2297,7.2297,7.2297,7.2297,7.2297,7.2297,7.2297,7.2297,7.2297,7.2297,7.2297,7.2297,7.2297,7.2297,7.2297,7.2297,7.2297,7.2297,7.2297,7.2297,7.2533,7.3419,7.3522,7.4096,7.586,7.6152,7.6746,7.8499,7.874,7.9089,7.9923,8.0844,8.1231,8.0936,8.0833,8.0672,8.0521,8.0129,8.0065,8.0305,8.0294,8.0294,8.0294,8.0294,8.0294,8.0294,8.0294,8.0294,8.0294,8.0294,8.012,7.9801,8.0149,7.9946,7.9336,7.9627,7.9423,7.8814,7.8465,7.8146,7.7856,7.7507,7.7226,7.6994,7.7313,7.7429,7.742,7.2297,7.2297,7.2297,7.2297,7.2297,7.2297,7.2297,7.2297,7.2297,7.2297,7.2297,7.2297,7.2297,7.2297,7.2297,7.2297,7.2297,7.2297,7.2297,7.2297,7.2297,7.2297,7.2297,7.2297,7.2297,7.2297,7.2297,7.2297,7.2297,7.2297,7.2297,7.2297,7.235,7.2428,7.2428,7.2506,7.2585,7.248,7.2428,7.2428,7.235,7.2297,7.2297,7.2297,7.2297,7.2297,7.2297,7.2297,7.2297,7.2297,7.2297,7.2323,7.2402,7.2428,7.2454,7.2559,7.2506,7.2428,7.2428,7.2376,7.2297,7.2297,7.2516,7.2751,7.2751,7.2516,7.2385,7.2664,7.2751,7.3289,7.5047,7.5315,7.5901,7.7648,7.7933,7.8539,8.0306,8.0542,8.1116,8.2625,8.2806,8.2559,8.1915,8.0739,8.0167,8.0545,7.9958,7.9792,8.0265,8.0294,8.0294,8.0294,8.0294,8.0294,8.0294,8.0294,8.0294,8.0294,8.0294,8.0294,8.0294,8.0294,8.0294,8.0294,8.0294,7.9975,7.9452,7.9336,7.9017,7.8553,7.8436,7.8059,7.7653,7.8204,7.8465,7.8553,7.2297,7.2297,7.2297,7.2297,7.2297,7.2297,7.2297,7.2297,7.2297,7.2297,7.2297,7.2297,7.2297,7.2297,7.2297,7.2297,7.2297,7.2297,7.2297,7.2297,7.2297,7.2297,7.2297,7.2297,7.2297,7.2297,7.2297,7.2297,7.2297,7.2297,7.2297,7.2297,7.2559,7.3003,7.3003,7.3291,7.3735,7.3212,7.3003,7.2951,7.248,7.2297,7.2297,7.2297,7.2297,7.2297,7.2297,7.2297,7.2297,7.2297,7.2297,7.2376,7.2846,7.3003,7.3108,7.363,7.3395,7.3003,7.3003,7.2663,7.2297,7.2297,7.3435,7.4565,7.4565,7.3376,7.2708,7.4224,7.4565,7.5089,7.6828,7.7157,7.7729,7.9448,7.9725,8.0385,8.2176,8.2435,8.2511,8.2769,8.2806,8.2595,8.2087,8.1883,8.15,8.0893,8.0737,8.06,8.0334,8.0294,8.0294,8.0294,8.0294,8.0294,8.0294,8.0294,8.0294,8.0294,8.0294,8.0294,8.0294,8.0294,8.0294,8.0294,8.0294,8.0236,8.012,7.954,7.9249,7.9133,7.8611,7.8349,7.8291,7.8378,7.8727,7.9191,7.2297,7.2297,7.2297,7.2297,7.2297,7.2297,7.2297,7.2297,7.2297,7.2297,7.2297,7.2297,7.2297,7.2297,7.2297,7.2297,7.2297,7.2297,7.2297,7.2297,7.2297,7.2297,7.2297,7.2297,7.2297,7.2297,7.2454,7.2742,7.2742,7.2925,7.3264,7.3264,7.3212,7.3108,7.3108,7.3081,7.3029,7.2768,7.2663,7.2637,7.2402,7.2297,7.2297,7.2297,7.2297,7.2297,7.2297,7.2297,7.2297,7.2297,7.2297,7.235,7.2585,7.2872,7.3381,7.4692,7.4848,7.4824,7.5831,7.4954,7.3994,7.4962,7.5047,7.5173,7.6152,7.5776,7.5399,7.6193,7.6332,7.6869,7.862,7.894,7.9527,8.1339,8.161,8.1908,8.2693,8.2806,8.2806,8.2806,8.2579,8.2321,8.2091,8.1669,8.1282,8.0922,8.0687,8.0491,8.0294,8.0294,8.0294,8.0294,8.0294,8.0294,8.0294,8.0294,8.0294,8.0294,8.0294,8.0294,8.0294,8.0294,8.0294,8.0294,8.0294,8.0294,8.0265,7.9975,7.9859,7.983,7.9569,7.9452,7.9423,7.9046,7.9307,7.9859]}]]